Wetterdaten: Samstag, 01.10.2022
Datum Zeit Temp. 2m Temp +5 cm Feuchte A. Luftdruck Regen Wind Richtung Richtung Sonnenschein UV Solar Taupunkt Windchill Windben
01.10.2022 00:00 9,1 C 8,3 C 80 % 1011,8 hPa 0,0 l/m 17,7 km/h (3 Bft) S 180 0 min 0,0 UV-I 0 W/m 5,8 C 2,9 C 24,1 km/h (4 Bft)
01.10.2022 00:01 9,1 C 8,3 C 81 % 1011,6 hPa 0,0 l/m 14,5 km/h (3 Bft) S 180 0 min 0,0 UV-I 0 W/m 6,0 C 4,3 C 19,3 km/h (3 Bft)
01.10.2022 00:02 9,1 C 8,3 C 80 % 1011,6 hPa 0,0 l/m 16,1 km/h (3 Bft) S-SO 157 0 min 0,0 UV-I 0 W/m 5,8 C 3,6 C 25,7 km/h (4 Bft)
01.10.2022 00:03 9,1 C 8,3 C 80 % 1011,6 hPa 0,0 l/m 17,7 km/h (3 Bft) S-SO 157 0 min 0,0 UV-I 0 W/m 5,8 C 2,9 C 22,5 km/h (4 Bft)
01.10.2022 00:04 9,1 C 8,3 C 80 % 1011,6 hPa 0,0 l/m 14,5 km/h (3 Bft) S 180 0 min 0,0 UV-I 0 W/m 5,8 C 4,3 C 19,3 km/h (3 Bft)
01.10.2022 00:05 9,1 C 8,3 C 81 % 1011,6 hPa 0,0 l/m 14,5 km/h (3 Bft) S 180 0 min 0,0 UV-I 0 W/m 6,0 C 4,3 C 24,1 km/h (4 Bft)
01.10.2022 00:06 9,1 C 8,3 C 81 % 1011,5 hPa 0,0 l/m 14,5 km/h (3 Bft) S 180 0 min 0,0 UV-I 0 W/m 6,0 C 4,3 C 19,3 km/h (3 Bft)
01.10.2022 00:07 9,1 C 8,3 C 81 % 1011,5 hPa 0,0 l/m 17,7 km/h (3 Bft) S 180 0 min 0,0 UV-I 0 W/m 6,0 C 2,9 C 29,0 km/h (5 Bft)
01.10.2022 00:08 9,1 C 8,3 C 81 % 1011,6 hPa 0,0 l/m 17,7 km/h (3 Bft) S 180 0 min 0,0 UV-I 0 W/m 6,0 C 2,9 C 25,7 km/h (4 Bft)
01.10.2022 00:09 9,1 C 8,3 C 81 % 1011,5 hPa 0,0 l/m 16,1 km/h (3 Bft) S 180 0 min 0,0 UV-I 0 W/m 6,0 C 3,6 C 24,1 km/h (4 Bft)
01.10.2022 00:10 9,1 C 8,3 C 81 % 1011,5 hPa 0,0 l/m 19,3 km/h (3 Bft) S 180 0 min 0,0 UV-I 0 W/m 6,0 C 2,4 C 29,0 km/h (5 Bft)
01.10.2022 00:11 9,1 C 8,3 C 81 % 1011,4 hPa 0,0 l/m 12,9 km/h (3 Bft) S-SO 157 0 min 0,0 UV-I 0 W/m 6,0 C 5,0 C 22,5 km/h (4 Bft)
01.10.2022 00:12 9,1 C 8,3 C 81 % 1011,5 hPa 0,0 l/m 16,1 km/h (3 Bft) S 180 0 min 0,0 UV-I 0 W/m 6,0 C 3,6 C 22,5 km/h (4 Bft)
01.10.2022 00:13 9,1 C 8,3 C 81 % 1011,5 hPa 0,0 l/m 19,3 km/h (3 Bft) S-SW 202 0 min 0,0 UV-I 0 W/m 6,0 C 2,4 C 25,7 km/h (4 Bft)
01.10.2022 00:14 9,1 C 8,3 C 81 % 1011,5 hPa 0,0 l/m 14,5 km/h (3 Bft) S 180 0 min 0,0 UV-I 0 W/m 6,0 C 4,3 C 20,9 km/h (4 Bft)
01.10.2022 00:15 9,1 C 8,3 C 81 % 1011,4 hPa 0,0 l/m 14,5 km/h (3 Bft) S 180 0 min 0,0 UV-I 0 W/m 6,0 C 4,3 C 17,7 km/h (3 Bft)
01.10.2022 00:16 9,1 C 8,3 C 81 % 1011,5 hPa 0,0 l/m 16,1 km/h (3 Bft) S 180 0 min 0,0 UV-I 0 W/m 6,0 C 3,6 C 24,1 km/h (4 Bft)
01.10.2022 00:17 9,1 C 8,3 C 81 % 1011,5 hPa 0,0 l/m 19,3 km/h (3 Bft) S 180 0 min 0,0 UV-I 0 W/m 6,0 C 2,4 C 27,4 km/h (4 Bft)
01.10.2022 00:18 9,1 C 8,3 C 81 % 1011,4 hPa 0,0 l/m 17,7 km/h (3 Bft) S 180 0 min 0,0 UV-I 0 W/m 6,0 C 2,9 C 30,6 km/h (5 Bft)
01.10.2022 00:19 9,1 C 8,3 C 81 % 1011,4 hPa 0,0 l/m 12,9 km/h (3 Bft) S 180 0 min 0,0 UV-I 0 W/m 6,0 C 5,0 C 30,6 km/h (5 Bft)
01.10.2022 00:20 9,1 C 8,3 C 81 % 1011,5 hPa 0,0 l/m 17,7 km/h (3 Bft) S 180 0 min 0,0 UV-I 0 W/m 6,0 C 2,9 C 25,7 km/h (4 Bft)
01.10.2022 00:21 9,1 C 8,3 C 81 % 1011,3 hPa 0,0 l/m 14,5 km/h (3 Bft) S 180 0 min 0,0 UV-I 0 W/m 6,0 C 4,3 C 20,9 km/h (4 Bft)
01.10.2022 00:22 9,1 C 8,3 C 81 % 1011,3 hPa 0,0 l/m 16,1 km/h (3 Bft) S-SO 157 0 min 0,0 UV-I 0 W/m 6,0 C 3,6 C 24,1 km/h (4 Bft)
01.10.2022 00:23 9,1 C 8,3 C 81 % 1011,4 hPa 0,0 l/m 20,9 km/h (4 Bft) S-SO 157 0 min 0,0 UV-I 0 W/m 6,0 C 1,8 C 27,4 km/h (4 Bft)
01.10.2022 00:24 9,1 C 8,3 C 81 % 1011,5 hPa 0,0 l/m 20,9 km/h (4 Bft) S-SO 157 0 min 0,0 UV-I 0 W/m 6,0 C 1,8 C 29,0 km/h (5 Bft)
01.10.2022 00:25 9,1 C 8,3 C 81 % 1011,4 hPa 0,0 l/m 19,3 km/h (3 Bft) S 180 0 min 0,0 UV-I 0 W/m 6,0 C 2,4 C 27,4 km/h (4 Bft)
01.10.2022 00:26 9,2 C 8,3 C 80 % 1011,5 hPa 0,0 l/m 20,9 km/h (4 Bft) S 180 0 min 0,0 UV-I 0 W/m 5,9 C 2,0 C 29,0 km/h (5 Bft)
01.10.2022 00:27 9,2 C 8,3 C 80 % 1011,4 hPa 0,0 l/m 20,9 km/h (4 Bft) S-SO 157 0 min 0,0 UV-I 0 W/m 5,9 C 2,0 C 37,0 km/h (5 Bft)
01.10.2022 00:28 9,1 C 8,3 C 80 % 1011,5 hPa 0,0 l/m 14,5 km/h (3 Bft) S 180 0 min 0,0 UV-I 0 W/m 5,8 C 4,3 C 35,4 km/h (5 Bft)
01.10.2022 00:29 9,1 C 8,3 C 80 % 1011,3 hPa 0,0 l/m 14,5 km/h (3 Bft) S 180 0 min 0,0 UV-I 0 W/m 5,8 C 4,3 C 22,5 km/h (4 Bft)
01.10.2022 00:30 9,1 C 8,3 C 81 % 1011,4 hPa 0,0 l/m 17,7 km/h (3 Bft) S-SO 157 0 min 0,0 UV-I 0 W/m 6,0 C 2,9 C 27,4 km/h (4 Bft)
01.10.2022 00:31 9,1 C 8,3 C 81 % 1011,4 hPa 0,0 l/m 16,1 km/h (3 Bft) S 180 0 min 0,0 UV-I 0 W/m 6,0 C 3,6 C 20,9 km/h (4 Bft)
01.10.2022 00:32 9,1 C 8,3 C 81 % 1011,4 hPa 0,0 l/m 17,7 km/h (3 Bft) S 180 0 min 0,0 UV-I 0 W/m 6,0 C 2,9 C 22,5 km/h (4 Bft)
01.10.2022 00:33 9,1 C 8,3 C 81 % 1011,4 hPa 0,0 l/m 17,7 km/h (3 Bft) S 180 0 min 0,0 UV-I 0 W/m 6,0 C 2,9 C 24,1 km/h (4 Bft)
01.10.2022 00:34 9,2 C 8,3 C 81 % 1011,4 hPa 0,0 l/m 12,9 km/h (3 Bft) S 180 0 min 0,0 UV-I 0 W/m 6,1 C 5,1 C 17,7 km/h (3 Bft)
01.10.2022 00:35 9,1 C 8,3 C 81 % 1011,4 hPa 0,0 l/m 16,1 km/h (3 Bft) S 180 0 min 0,0 UV-I 0 W/m 6,0 C 3,6 C 22,5 km/h (4 Bft)
01.10.2022 00:36 9,1 C 8,3 C 81 % 1011,4 hPa 0,0 l/m 17,7 km/h (3 Bft) S 180 0 min 0,0 UV-I 0 W/m 6,0 C 2,9 C 29,0 km/h (5 Bft)
01.10.2022 00:37 9,1 C 8,3 C 81 % 1011,4 hPa 0,0 l/m 17,7 km/h (3 Bft) S 180 0 min 0,0 UV-I 0 W/m 6,0 C 2,9 C 24,1 km/h (4 Bft)
01.10.2022 00:38 9,1 C 8,3 C 81 % 1011,3 hPa 0,0 l/m 16,1 km/h (3 Bft) S 180 0 min 0,0 UV-I 0 W/m 6,0 C 3,6 C 20,9 km/h (4 Bft)
01.10.2022 00:39 9,1 C 8,3 C 81 % 1011,4 hPa 0,0 l/m 17,7 km/h (3 Bft) S 180 0 min 0,0 UV-I 0 W/m 6,0 C 2,9 C 25,7 km/h (4 Bft)
01.10.2022 00:40 9,1 C 8,3 C 81 % 1011,4 hPa 0,0 l/m 20,9 km/h (4 Bft) S 180 0 min 0,0 UV-I 0 W/m 6,0 C 1,8 C 30,6 km/h (5 Bft)
01.10.2022 00:41 9,2 C 8,3 C 81 % 1011,4 hPa 0,0 l/m 19,3 km/h (3 Bft) S-SO 157 0 min 0,0 UV-I 0 W/m 6,1 C 2,5 C 24,1 km/h (4 Bft)
01.10.2022 00:42 9,2 C 8,3 C 81 % 1011,4 hPa 0,0 l/m 17,7 km/h (3 Bft) S 180 0 min 0,0 UV-I 0 W/m 6,1 C 3,1 C 25,7 km/h (4 Bft)
01.10.2022 00:43 9,2 C 8,3 C 81 % 1011,4 hPa 0,0 l/m 17,7 km/h (3 Bft) S 180 0 min 0,0 UV-I 0 W/m 6,1 C 3,1 C 30,6 km/h (5 Bft)
01.10.2022 00:44 9,2 C 8,3 C 81 % 1011,4 hPa 0,0 l/m 14,5 km/h (3 Bft) S 180 0 min 0,0 UV-I 0 W/m 6,1 C 4,4 C 19,3 km/h (3 Bft)
01.10.2022 00:45 9,1 C 8,3 C 81 % 1011,5 hPa 0,0 l/m 14,5 km/h (3 Bft) S-SW 202 0 min 0,0 UV-I 0 W/m 6,0 C 4,3 C 20,9 km/h (4 Bft)
01.10.2022 00:46 9,1 C 8,3 C 81 % 1011,3 hPa 0,0 l/m 11,3 km/h (2 Bft) S 180 0 min 0,0 UV-I 0 W/m 6,0 C 5,9 C 19,3 km/h (3 Bft)
01.10.2022 00:47 9,1 C 8,3 C 81 % 1011,3 hPa 0,0 l/m 16,1 km/h (3 Bft) S-SO 157 0 min 0,0 UV-I 0 W/m 6,0 C 3,6 C 25,7 km/h (4 Bft)
01.10.2022 00:48 9,1 C 8,3 C 81 % 1011,3 hPa 0,0 l/m 12,9 km/h (3 Bft) S 180 0 min 0,0 UV-I 0 W/m 6,0 C 5,0 C 16,1 km/h (3 Bft)
01.10.2022 00:49 9,1 C 8,3 C 81 % 1011,3 hPa 0,0 l/m 17,7 km/h (3 Bft) S 180 0 min 0,0 UV-I 0 W/m 6,0 C 2,9 C 32,2 km/h (5 Bft)
01.10.2022 00:50 9,1 C 8,3 C 81 % 1011,3 hPa 0,0 l/m 20,9 km/h (4 Bft) S-SO 157 0 min 0,0 UV-I 0 W/m 6,0 C 1,8 C 38,6 km/h (5 Bft)
01.10.2022 00:51 9,2 C 8,3 C 81 % 1011,3 hPa 0,0 l/m 22,5 km/h (4 Bft) S 180 0 min 0,0 UV-I 0 W/m 6,1 C 1,5 C 32,2 km/h (5 Bft)
01.10.2022 00:52 9,2 C 8,3 C 81 % 1011,3 hPa 0,0 l/m 19,3 km/h (3 Bft) S 180 0 min 0,0 UV-I 0 W/m 6,1 C 2,5 C 30,6 km/h (5 Bft)
01.10.2022 00:53 9,2 C 8,3 C 81 % 1011,3 hPa 0,0 l/m 16,1 km/h (3 Bft) S 180 0 min 0,0 UV-I 0 W/m 6,1 C 3,7 C 24,1 km/h (4 Bft)
01.10.2022 00:54 9,2 C 8,3 C 81 % 1011,3 hPa 0,0 l/m 17,7 km/h (3 Bft) S 180 0 min 0,0 UV-I 0 W/m 6,1 C 3,1 C 27,4 km/h (4 Bft)
01.10.2022 00:55 9,2 C 8,3 C 81 % 1011,3 hPa 0,0 l/m 22,5 km/h (4 Bft) S 180 0 min 0,0 UV-I 0 W/m 6,1 C 1,5 C 33,8 km/h (5 Bft)
01.10.2022 00:56 9,2 C 8,3 C 81 % 1011,3 hPa 0,0 l/m 22,5 km/h (4 Bft) S 180 0 min 0,0 UV-I 0 W/m 6,1 C 1,5 C 32,2 km/h (5 Bft)
01.10.2022 00:57 9,2 C 8,3 C 81 % 1011,2 hPa 0,0 l/m 16,1 km/h (3 Bft) S-SO 157 0 min 0,0 UV-I 0 W/m 6,1 C 3,7 C 25,7 km/h (4 Bft)
01.10.2022 00:58 9,2 C 8,3 C 81 % 1011,2 hPa 0,0 l/m 20,9 km/h (4 Bft) S-SW 202 0 min 0,0 UV-I 0 W/m 6,1 C 2,0 C 30,6 km/h (5 Bft)
01.10.2022 00:59 9,2 C 8,3 C 81 % 1011,2 hPa 0,0 l/m 20,9 km/h (4 Bft) S 180 0 min 0,0 UV-I 0 W/m 6,1 C 2,0 C 27,4 km/h (4 Bft)
01.10.2022 01:00 9,2 C 8,3 C 81 % 1011,2 hPa 0,0 l/m 20,9 km/h (4 Bft) S 180 0 min 0,0 UV-I 0 W/m 6,1 C 2,0 C 35,4 km/h (5 Bft)
01.10.2022 01:01 9,2 C 8,3 C 81 % 1011,3 hPa 0,0 l/m 20,9 km/h (4 Bft) S 180 0 min 0,0 UV-I 0 W/m 6,1 C 2,0 C 30,6 km/h (5 Bft)
01.10.2022 01:02 9,2 C 8,3 C 80 % 1011,2 hPa 0,0 l/m 16,1 km/h (3 Bft) S-SO 157 0 min 0,0 UV-I 0 W/m 5,9 C 3,7 C 24,1 km/h (4 Bft)
01.10.2022 01:03 9,2 C 8,3 C 81 % 1011,2 hPa 0,0 l/m 19,3 km/h (3 Bft) S-SO 157 0 min 0,0 UV-I 0 W/m 6,1 C 2,5 C 24,1 km/h (4 Bft)
01.10.2022 01:04 9,2 C 8,9 C 80 % 1011,2 hPa 0,0 l/m 24,1 km/h (4 Bft) S 180 0 min 0,0 UV-I 0 W/m 5,9 C 1,0 C 33,8 km/h (5 Bft)
01.10.2022 01:05 9,2 C 8,9 C 80 % 1011,1 hPa 0,0 l/m 27,4 km/h (4 Bft) S 180 0 min 0,0 UV-I 0 W/m 5,9 C 0,1 C 38,6 km/h (5 Bft)
01.10.2022 01:06 9,2 C 8,9 C 80 % 1011,2 hPa 0,0 l/m 27,4 km/h (4 Bft) S 180 0 min 0,0 UV-I 0 W/m 5,9 C 0,1 C 38,6 km/h (5 Bft)
01.10.2022 01:07 9,3 C 8,9 C 80 % 1011,1 hPa 0,0 l/m 24,1 km/h (4 Bft) S 180 0 min 0,0 UV-I 0 W/m 6,0 C 1,1 C 37,0 km/h (5 Bft)
01.10.2022 01:08 9,2 C 8,9 C 80 % 1011,2 hPa 0,0 l/m 20,9 km/h (4 Bft) S 180 0 min 0,0 UV-I 0 W/m 5,9 C 2,0 C 32,2 km/h (5 Bft)
01.10.2022 01:09 9,2 C 8,9 C 80 % 1011,1 hPa 0,0 l/m 17,7 km/h (3 Bft) S-SO 157 0 min 0,0 UV-I 0 W/m 5,9 C 3,1 C 25,7 km/h (4 Bft)
01.10.2022 01:10 9,2 C 8,9 C 80 % 1011,2 hPa 0,0 l/m 20,9 km/h (4 Bft) S 180 0 min 0,0 UV-I 0 W/m 5,9 C 2,0 C 33,8 km/h (5 Bft)
01.10.2022 01:11 9,2 C 8,9 C 80 % 1011,2 hPa 0,0 l/m 14,5 km/h (3 Bft) S-SO 157 0 min 0,0 UV-I 0 W/m 5,9 C 4,4 C 20,9 km/h (4 Bft)
01.10.2022 01:12 9,2 C 8,3 C 80 % 1011,2 hPa 0,0 l/m 12,9 km/h (3 Bft) S-SO 157 0 min 0,0 UV-I 0 W/m 5,9 C 5,1 C 22,5 km/h (4 Bft)
01.10.2022 01:13 9,2 C 8,3 C 81 % 1011,2 hPa 0,0 l/m 16,1 km/h (3 Bft) S 180 0 min 0,0 UV-I 0 W/m 6,1 C 3,7 C 24,1 km/h (4 Bft)
01.10.2022 01:14 9,2 C 8,3 C 81 % 1011,2 hPa 0,0 l/m 17,7 km/h (3 Bft) S-SO 157 0 min 0,0 UV-I 0 W/m 6,1 C 3,1 C 32,2 km/h (5 Bft)
01.10.2022 01:15 9,2 C 8,3 C 81 % 1011,1 hPa 0,0 l/m 20,9 km/h (4 Bft) S 180 0 min 0,0 UV-I 0 W/m 6,1 C 2,0 C 30,6 km/h (5 Bft)
01.10.2022 01:16 9,2 C 8,3 C 81 % 1011,1 hPa 0,0 l/m 14,5 km/h (3 Bft) S-SO 157 0 min 0,0 UV-I 0 W/m 6,1 C 4,4 C 19,3 km/h (3 Bft)
01.10.2022 01:17 9,2 C 8,9 C 81 % 1011,1 hPa 0,0 l/m 19,3 km/h (3 Bft) S 180 0 min 0,0 UV-I 0 W/m 6,1 C 2,5 C 27,4 km/h (4 Bft)
01.10.2022 01:18 9,2 C 8,3 C 81 % 1011,1 hPa 0,0 l/m 12,9 km/h (3 Bft) S 180 0 min 0,0 UV-I 0 W/m 6,1 C 5,1 C 16,1 km/h (3 Bft)
01.10.2022 01:19 9,2 C 8,3 C 81 % 1011,1 hPa 0,0 l/m 16,1 km/h (3 Bft) S 180 0 min 0,0 UV-I 0 W/m 6,1 C 3,7 C 22,5 km/h (4 Bft)
01.10.2022 01:20 9,2 C 8,3 C 81 % 1011,1 hPa 0,0 l/m 16,1 km/h (3 Bft) S 180 0 min 0,0 UV-I 0 W/m 6,1 C 3,7 C 22,5 km/h (4 Bft)
01.10.2022 01:21 9,2 C 8,3 C 81 % 1011,1 hPa 0,0 l/m 17,7 km/h (3 Bft) S-SO 157 0 min 0,0 UV-I 0 W/m 6,1 C 3,1 C 24,1 km/h (4 Bft)
01.10.2022 01:22 9,2 C 8,3 C 81 % 1011,1 hPa 0,0 l/m 14,5 km/h (3 Bft) S 180 0 min 0,0 UV-I 0 W/m 6,1 C 4,4 C 19,3 km/h (3 Bft)
01.10.2022 01:23 9,2 C 8,3 C 81 % 1011,0 hPa 0,0 l/m 14,5 km/h (3 Bft) S-SO 157 0 min 0,0 UV-I 0 W/m 6,1 C 4,4 C 20,9 km/h (4 Bft)
01.10.2022 01:24 9,2 C 8,3 C 81 % 1011,0 hPa 0,0 l/m 14,5 km/h (3 Bft) S-SO 157 0 min 0,0 UV-I 0 W/m 6,1 C 4,4 C 25,7 km/h (4 Bft)
01.10.2022 01:25 9,2 C 8,3 C 81 % 1010,9 hPa 0,0 l/m 16,1 km/h (3 Bft) S 180 0 min 0,0 UV-I 0 W/m 6,1 C 3,7 C 24,1 km/h (4 Bft)
01.10.2022 01:26 9,2 C 8,3 C 81 % 1010,9 hPa 0,0 l/m 16,1 km/h (3 Bft) S 180 0 min 0,0 UV-I 0 W/m 6,1 C 3,7 C 27,4 km/h (4 Bft)
01.10.2022 01:27 9,2 C 8,3 C 81 % 1010,9 hPa 0,0 l/m 20,9 km/h (4 Bft) S-SO 157 0 min 0,0 UV-I 0 W/m 6,1 C 2,0 C 32,2 km/h (5 Bft)
01.10.2022 01:28 9,2 C 8,9 C 81 % 1010,9 hPa 0,0 l/m 16,1 km/h (3 Bft) S 180 0 min 0,0 UV-I 0 W/m 6,1 C 3,7 C 29,0 km/h (5 Bft)
01.10.2022 01:29 9,2 C 8,9 C 81 % 1010,9 hPa 0,0 l/m 17,7 km/h (3 Bft) S 180 0 min 0,0 UV-I 0 W/m 6,1 C 3,1 C 30,6 km/h (5 Bft)
01.10.2022 01:30 9,2 C 8,9 C 81 % 1010,8 hPa 0,0 l/m 16,1 km/h (3 Bft) S 180 0 min 0,0 UV-I 0 W/m 6,1 C 3,7 C 30,6 km/h (5 Bft)
01.10.2022 01:31 9,2 C 8,9 C 81 % 1010,9 hPa 0,0 l/m 22,5 km/h (4 Bft) S 180 0 min 0,0 UV-I 0 W/m 6,1 C 1,5 C 33,8 km/h (5 Bft)
01.10.2022 01:32 9,2 C 8,9 C 81 % 1010,9 hPa 0,0 l/m 17,7 km/h (3 Bft) S 180 0 min 0,0 UV-I 0 W/m 6,1 C 3,1 C 30,6 km/h (5 Bft)
01.10.2022 01:33 9,2 C 8,9 C 81 % 1010,8 hPa 0,0 l/m 17,7 km/h (3 Bft) S 180 0 min 0,0 UV-I 0 W/m 6,1 C 3,1 C 27,4 km/h (4 Bft)
01.10.2022 01:34 9,2 C 8,9 C 81 % 1011,0 hPa 0,0 l/m 22,5 km/h (4 Bft) S-SO 157 0 min 0,0 UV-I 0 W/m 6,1 C 1,5 C 30,6 km/h (5 Bft)
01.10.2022 01:35 9,2 C 8,9 C 81 % 1010,9 hPa 0,0 l/m 27,4 km/h (4 Bft) S-SW 202 0 min 0,0 UV-I 0 W/m 6,1 C 0,1 C 40,2 km/h (6 Bft)
01.10.2022 01:36 9,2 C 8,9 C 81 % 1010,9 hPa 0,0 l/m 20,9 km/h (4 Bft) S 180 0 min 0,0 UV-I 0 W/m 6,1 C 2,0 C 40,2 km/h (6 Bft)
01.10.2022 01:37 9,2 C 8,9 C 81 % 1010,8 hPa 0,0 l/m 22,5 km/h (4 Bft) S 180 0 min 0,0 UV-I 0 W/m 6,1 C 1,5 C 33,8 km/h (5 Bft)
01.10.2022 01:38 9,2 C 8,9 C 81 % 1010,9 hPa 0,0 l/m 19,3 km/h (3 Bft) S 180 0 min 0,0 UV-I 0 W/m 6,1 C 2,5 C 25,7 km/h (4 Bft)
01.10.2022 01:39 9,2 C 8,9 C 81 % 1010,8 hPa 0,0 l/m 17,7 km/h (3 Bft) S 180 0 min 0,0 UV-I 0 W/m 6,1 C 3,1 C 25,7 km/h (4 Bft)
01.10.2022 01:40 9,2 C 8,9 C 80 % 1010,8 hPa 0,0 l/m 20,9 km/h (4 Bft) S 180 0 min 0,0 UV-I 0 W/m 5,9 C 2,0 C 35,4 km/h (5 Bft)
01.10.2022 01:41 9,2 C 8,9 C 81 % 1010,8 hPa 0,0 l/m 20,9 km/h (4 Bft) S 180 0 min 0,0 UV-I 0 W/m 6,1 C 2,0 C 25,7 km/h (4 Bft)
01.10.2022 01:42 9,2 C 8,9 C 80 % 1010,7 hPa 0,0 l/m 19,3 km/h (3 Bft) S-SO 157 0 min 0,0 UV-I 0 W/m 5,9 C 2,5 C 32,2 km/h (5 Bft)
01.10.2022 01:43 9,3 C 8,9 C 80 % 1010,7 hPa 0,0 l/m 24,1 km/h (4 Bft) S-SW 202 0 min 0,0 UV-I 0 W/m 6,0 C 1,1 C 41,8 km/h (6 Bft)
01.10.2022 01:44 9,3 C 8,9 C 80 % 1010,7 hPa 0,0 l/m 22,5 km/h (4 Bft) S 180 0 min 0,0 UV-I 0 W/m 6,0 C 1,6 C 37,0 km/h (5 Bft)
01.10.2022 01:45 9,3 C 8,9 C 80 % 1010,7 hPa 0,0 l/m 20,9 km/h (4 Bft) S 180 0 min 0,0 UV-I 0 W/m 6,0 C 2,1 C 41,8 km/h (6 Bft)
01.10.2022 01:46 9,3 C 8,9 C 80 % 1010,6 hPa 0,0 l/m 20,9 km/h (4 Bft) S 180 0 min 0,0 UV-I 0 W/m 6,0 C 2,1 C 35,4 km/h (5 Bft)
01.10.2022 01:47 9,3 C 8,9 C 80 % 1010,7 hPa 0,0 l/m 20,9 km/h (4 Bft) S 180 0 min 0,0 UV-I 0 W/m 6,0 C 2,1 C 30,6 km/h (5 Bft)
01.10.2022 01:48 9,3 C 8,9 C 80 % 1010,7 hPa 0,0 l/m 22,5 km/h (4 Bft) S 180 0 min 0,0 UV-I 0 W/m 6,0 C 1,6 C 33,8 km/h (5 Bft)
01.10.2022 01:49 9,3 C 8,9 C 80 % 1010,7 hPa 0,0 l/m 27,4 km/h (4 Bft) S 180 0 min 0,0 UV-I 0 W/m 6,0 C 0,3 C 43,5 km/h (6 Bft)
01.10.2022 01:50 9,3 C 8,9 C 80 % 1010,7 hPa 0,0 l/m 29,0 km/h (5 Bft) S-SW 202 0 min 0,0 UV-I 0 W/m 6,0 C -0,1 C 40,2 km/h (6 Bft)
01.10.2022 01:51 9,3 C 8,9 C 80 % 1010,7 hPa 0,0 l/m 19,3 km/h (3 Bft) S 180 0 min 0,0 UV-I 0 W/m 6,0 C 2,6 C 27,4 km/h (4 Bft)
01.10.2022 01:52 9,3 C 8,9 C 80 % 1010,6 hPa 0,0 l/m 20,9 km/h (4 Bft) S 180 0 min 0,0 UV-I 0 W/m 6,0 C 2,1 C 32,2 km/h (5 Bft)
01.10.2022 01:53 9,3 C 8,9 C 80 % 1010,6 hPa 0,0 l/m 22,5 km/h (4 Bft) S 180 0 min 0,0 UV-I 0 W/m 6,0 C 1,6 C 32,2 km/h (5 Bft)
01.10.2022 01:54 9,3 C 8,9 C 80 % 1010,6 hPa 0,0 l/m 20,9 km/h (4 Bft) S 180 0 min 0,0 UV-I 0 W/m 6,0 C 2,1 C 29,0 km/h (5 Bft)
01.10.2022 01:55 9,3 C 8,9 C 80 % 1010,6 hPa 0,0 l/m 20,9 km/h (4 Bft) S 180 0 min 0,0 UV-I 0 W/m 6,0 C 2,1 C 27,4 km/h (4 Bft)
01.10.2022 01:56 9,3 C 8,9 C 80 % 1010,6 hPa 0,0 l/m 30,6 km/h (5 Bft) S 180 0 min 0,0 UV-I 0 W/m 6,0 C -0,5 C 43,5 km/h (6 Bft)
01.10.2022 01:57 9,3 C 8,9 C 80 % 1010,5 hPa 0,0 l/m 22,5 km/h (4 Bft) S 180 0 min 0,0 UV-I 0 W/m 6,0 C 1,6 C 37,0 km/h (5 Bft)
01.10.2022 01:58 9,3 C 8,9 C 80 % 1010,6 hPa 0,0 l/m 25,7 km/h (4 Bft) S 180 0 min 0,0 UV-I 0 W/m 6,0 C 0,7 C 38,6 km/h (5 Bft)
01.10.2022 01:59 9,3 C 8,9 C 80 % 1010,5 hPa 0,0 l/m 24,1 km/h (4 Bft) S 180 0 min 0,0 UV-I 0 W/m 6,0 C 1,1 C 30,6 km/h (5 Bft)
01.10.2022 02:00 9,3 C 8,9 C 80 % 1010,5 hPa 0,0 l/m 19,3 km/h (3 Bft) S-SO 157 0 min 0,0 UV-I 0 W/m 6,0 C 2,6 C 32,2 km/h (5 Bft)
01.10.2022 02:01 9,3 C 8,9 C 80 % 1010,5 hPa 0,0 l/m 24,1 km/h (4 Bft) S-SW 202 0 min 0,0 UV-I 0 W/m 6,0 C 1,1 C 30,6 km/h (5 Bft)
01.10.2022 02:02 9,3 C 8,9 C 80 % 1010,4 hPa 0,0 l/m 16,1 km/h (3 Bft) S-SO 157 0 min 0,0 UV-I 0 W/m 6,0 C 3,8 C 24,1 km/h (4 Bft)
01.10.2022 02:03 9,3 C 8,9 C 80 % 1010,5 hPa 0,0 l/m 16,1 km/h (3 Bft) S 180 0 min 0,0 UV-I 0 W/m 6,0 C 3,8 C 24,1 km/h (4 Bft)
01.10.2022 02:04 9,3 C 8,9 C 80 % 1010,5 hPa 0,0 l/m 20,9 km/h (4 Bft) S 180 0 min 0,0 UV-I 0 W/m 6,0 C 2,1 C 29,0 km/h (5 Bft)
01.10.2022 02:05 9,2 C 8,9 C 80 % 1010,6 hPa 0,0 l/m 19,3 km/h (3 Bft) S 180 0 min 0,0 UV-I 0 W/m 5,9 C 2,5 C 29,0 km/h (5 Bft)
01.10.2022 02:06 9,2 C 8,9 C 80 % 1010,5 hPa 0,0 l/m 20,9 km/h (4 Bft) S 180 0 min 0,0 UV-I 0 W/m 5,9 C 2,0 C 30,6 km/h (5 Bft)
01.10.2022 02:07 9,2 C 8,9 C 80 % 1010,5 hPa 0,0 l/m 24,1 km/h (4 Bft) S 180 0 min 0,0 UV-I 0 W/m 5,9 C 1,0 C 37,0 km/h (5 Bft)
01.10.2022 02:08 9,2 C 8,3 C 80 % 1010,4 hPa 0,0 l/m 22,5 km/h (4 Bft) S-SW 202 0 min 0,0 UV-I 0 W/m 5,9 C 1,5 C 29,0 km/h (5 Bft)
01.10.2022 02:09 9,2 C 8,3 C 80 % 1010,4 hPa 0,0 l/m 17,7 km/h (3 Bft) S-SO 157 0 min 0,0 UV-I 0 W/m 5,9 C 3,1 C 24,1 km/h (4 Bft)
01.10.2022 02:10 9,2 C 8,3 C 81 % 1010,4 hPa 0,0 l/m 17,7 km/h (3 Bft) S 180 0 min 0,0 UV-I 0 W/m 6,1 C 3,1 C 27,4 km/h (4 Bft)
01.10.2022 02:11 9,1 C 7,8 C 81 % 1010,4 hPa 0,0 l/m 17,7 km/h (3 Bft) S 180 0 min 0,0 UV-I 0 W/m 6,0 C 2,9 C 35,4 km/h (5 Bft)
01.10.2022 02:12 9,1 C 7,8 C 81 % 1010,4 hPa 0,0 l/m 19,3 km/h (3 Bft) S 180 0 min 0,0 UV-I 0 W/m 6,0 C 2,4 C 30,6 km/h (5 Bft)
01.10.2022 02:13 9,1 C 7,8 C 81 % 1010,4 hPa 0,0 l/m 16,1 km/h (3 Bft) S 180 0 min 0,0 UV-I 0 W/m 6,0 C 3,6 C 27,4 km/h (4 Bft)
01.10.2022 02:14 9,1 C 7,8 C 81 % 1010,3 hPa 0,0 l/m 20,9 km/h (4 Bft) S 180 0 min 0,0 UV-I 0 W/m 6,0 C 1,8 C 29,0 km/h (5 Bft)
01.10.2022 02:15 9,0 C 7,8 C 81 % 1010,3 hPa 0,0 l/m 16,1 km/h (3 Bft) S 180 0 min 0,0 UV-I 0 W/m 5,9 C 3,5 C 20,9 km/h (4 Bft)
01.10.2022 02:16 9,0 C 7,8 C 82 % 1010,3 hPa 0,0 l/m 17,7 km/h (3 Bft) S 180 0 min 0,0 UV-I 0 W/m 6,1 C 2,8 C 25,7 km/h (4 Bft)
01.10.2022 02:17 9,0 C 7,8 C 82 % 1010,3 hPa 0,0 l/m 11,3 km/h (2 Bft) S 180 0 min 0,0 UV-I 0 W/m 6,1 C 5,7 C 16,1 km/h (3 Bft)
01.10.2022 02:18 8,9 C 7,8 C 82 % 1010,4 hPa 0,0 l/m 14,5 km/h (3 Bft) S 180 0 min 0,0 UV-I 0 W/m 6,0 C 4,0 C 20,9 km/h (4 Bft)
01.10.2022 02:19 8,9 C 7,8 C 82 % 1010,3 hPa 0,0 l/m 19,3 km/h (3 Bft) S-SO 157 0 min 0,0 UV-I 0 W/m 6,0 C 2,1 C 29,0 km/h (5 Bft)
01.10.2022 02:20 8,9 C 7,8 C 83 % 1010,4 hPa 0,0 l/m 17,7 km/h (3 Bft) S 180 0 min 0,0 UV-I 0 W/m 6,2 C 2,7 C 27,4 km/h (4 Bft)
01.10.2022 02:21 8,9 C 7,2 C 83 % 1010,3 hPa 0,0 l/m 19,3 km/h (3 Bft) S 180 0 min 0,0 UV-I 0 W/m 6,2 C 2,1 C 29,0 km/h (5 Bft)
01.10.2022 02:22 8,8 C 7,2 C 83 % 1010,3 hPa 0,0 l/m 24,1 km/h (4 Bft) S 180 0 min 0,0 UV-I 0 W/m 6,1 C 0,5 C 33,8 km/h (5 Bft)
01.10.2022 02:23 8,8 C 7,2 C 83 % 1010,3 hPa 0,0 l/m 27,4 km/h (4 Bft) S 180 0 min 0,0 UV-I 0 W/m 6,1 C -0,4 C 41,8 km/h (6 Bft)
01.10.2022 02:24 8,8 C 7,2 C 83 % 1010,2 hPa 0,0 l/m 27,4 km/h (4 Bft) S 180 0 min 0,0 UV-I 0 W/m 6,1 C -0,4 C 40,2 km/h (6 Bft)
01.10.2022 02:25 8,8 C 7,2 C 83 % 1010,3 hPa 0,0 l/m 24,1 km/h (4 Bft) S 180 0 min 0,0 UV-I 0 W/m 6,1 C 0,5 C 30,6 km/h (5 Bft)
01.10.2022 02:26 8,8 C 7,2 C 83 % 1010,2 hPa 0,0 l/m 20,9 km/h (4 Bft) S-SO 157 0 min 0,0 UV-I 0 W/m 6,1 C 1,4 C 29,0 km/h (5 Bft)
01.10.2022 02:27 8,8 C 7,2 C 83 % 1010,2 hPa 0,0 l/m 19,3 km/h (3 Bft) S 180 0 min 0,0 UV-I 0 W/m 6,1 C 2,0 C 32,2 km/h (5 Bft)
01.10.2022 02:28 8,7 C 7,2 C 84 % 1010,4 hPa 0,2 l/m 19,3 km/h (3 Bft) S 180 0 min 0,0 UV-I 0 W/m 6,2 C 1,9 C 32,2 km/h (5 Bft)
01.10.2022 02:29 8,7 C 7,2 C 84 % 1010,3 hPa 0,0 l/m 24,1 km/h (4 Bft) S-SW 202 0 min 0,0 UV-I 0 W/m 6,2 C 0,3 C 33,8 km/h (5 Bft)
01.10.2022 02:30 8,7 C 7,2 C 84 % 1010,3 hPa 0,0 l/m 16,1 km/h (3 Bft) S 180 0 min 0,0 UV-I 0 W/m 6,2 C 3,1 C 30,6 km/h (5 Bft)
01.10.2022 02:31 8,7 C 7,2 C 84 % 1010,2 hPa 0,0 l/m 16,1 km/h (3 Bft) S 180 0 min 0,0 UV-I 0 W/m 6,2 C 3,1 C 29,0 km/h (5 Bft)
01.10.2022 02:32 8,7 C 7,2 C 84 % 1010,1 hPa 0,0 l/m 20,9 km/h (4 Bft) S 180 0 min 0,0 UV-I 0 W/m 6,2 C 1,3 C 30,6 km/h (5 Bft)
01.10.2022 02:33 8,6 C 7,2 C 84 % 1010,1 hPa 0,0 l/m 20,9 km/h (4 Bft) S 180 0 min 0,0 UV-I 0 W/m 6,1 C 1,2 C 25,7 km/h (4 Bft)
01.10.2022 02:34 8,6 C 7,2 C 85 % 1010,1 hPa 0,0 l/m 20,9 km/h (4 Bft) S 180 0 min 0,0 UV-I 0 W/m 6,2 C 1,2 C 25,7 km/h (4 Bft)
01.10.2022 02:35 8,6 C 7,2 C 85 % 1010,1 hPa 0,0 l/m 22,5 km/h (4 Bft) S 180 0 min 0,0 UV-I 0 W/m 6,2 C 0,7 C 33,8 km/h (5 Bft)
01.10.2022 02:36 8,6 C 7,2 C 85 % 1010,1 hPa 0,0 l/m 14,5 km/h (3 Bft) S 180 0 min 0,0 UV-I 0 W/m 6,2 C 3,7 C 19,3 km/h (3 Bft)
01.10.2022 02:37 8,6 C 7,2 C 85 % 1010,0 hPa 0,0 l/m 20,9 km/h (4 Bft) S 180 0 min 0,0 UV-I 0 W/m 6,2 C 1,2 C 35,4 km/h (5 Bft)
01.10.2022 02:38 8,6 C 7,2 C 85 % 1010,1 hPa 0,2 l/m 17,7 km/h (3 Bft) S 180 0 min 0,0 UV-I 0 W/m 6,2 C 2,3 C 24,1 km/h (4 Bft)
01.10.2022 02:39 8,6 C 7,2 C 85 % 1010,1 hPa 0,0 l/m 19,3 km/h (3 Bft) S 180 0 min 0,0 UV-I 0 W/m 6,2 C 1,7 C 30,6 km/h (5 Bft)
01.10.2022 02:40 8,5 C 7,2 C 85 % 1010,0 hPa 0,0 l/m 19,3 km/h (3 Bft) S 180 0 min 0,0 UV-I 0 W/m 6,1 C 1,6 C 30,6 km/h (5 Bft)
01.10.2022 02:41 8,5 C 7,2 C 85 % 1010,0 hPa 0,0 l/m 17,7 km/h (3 Bft) S 180 0 min 0,0 UV-I 0 W/m 6,1 C 2,2 C 32,2 km/h (5 Bft)
01.10.2022 02:42 8,5 C 7,2 C 85 % 1010,1 hPa 0,0 l/m 22,5 km/h (4 Bft) S 180 0 min 0,0 UV-I 0 W/m 6,1 C 0,5 C 37,0 km/h (5 Bft)
01.10.2022 02:43 8,5 C 7,2 C 85 % 1010,0 hPa 0,0 l/m 19,3 km/h (3 Bft) S 180 0 min 0,0 UV-I 0 W/m 6,1 C 1,6 C 27,4 km/h (4 Bft)
01.10.2022 02:44 8,5 C 7,2 C 85 % 1010,0 hPa 0,0 l/m 14,5 km/h (3 Bft) S 180 0 min 0,0 UV-I 0 W/m 6,1 C 3,5 C 22,5 km/h (4 Bft)
01.10.2022 02:45 8,5 C 7,2 C 86 % 1010,0 hPa 0,0 l/m 22,5 km/h (4 Bft) S 180 0 min 0,0 UV-I 0 W/m 6,3 C 0,5 C 37,0 km/h (5 Bft)
01.10.2022 02:46 8,4 C 7,2 C 86 % 1009,9 hPa 0,0 l/m 19,3 km/h (3 Bft) S-SO 157 0 min 0,0 UV-I 0 W/m 6,2 C 1,5 C 27,4 km/h (4 Bft)
01.10.2022 02:47 8,5 C 7,2 C 86 % 1009,9 hPa 0,0 l/m 20,9 km/h (4 Bft) S 180 0 min 0,0 UV-I 0 W/m 6,3 C 1,0 C 35,4 km/h (5 Bft)
01.10.2022 02:48 8,5 C 7,2 C 86 % 1009,9 hPa 0,0 l/m 22,5 km/h (4 Bft) S-SO 157 0 min 0,0 UV-I 0 W/m 6,3 C 0,5 C 35,4 km/h (5 Bft)
01.10.2022 02:49 8,5 C 7,2 C 86 % 1009,9 hPa 0,2 l/m 19,3 km/h (3 Bft) S 180 0 min 0,0 UV-I 0 W/m 6,3 C 1,6 C 27,4 km/h (4 Bft)
01.10.2022 02:50 8,5 C 7,2 C 86 % 1009,8 hPa 0,0 l/m 19,3 km/h (3 Bft) S-SO 157 0 min 0,0 UV-I 0 W/m 6,3 C 1,6 C 30,6 km/h (5 Bft)
01.10.2022 02:51 8,4 C 7,2 C 86 % 1009,9 hPa 0,0 l/m 16,1 km/h (3 Bft) S 180 0 min 0,0 UV-I 0 W/m 6,2 C 2,7 C 29,0 km/h (5 Bft)
01.10.2022 02:52 8,4 C 7,2 C 86 % 1009,9 hPa 0,0 l/m 19,3 km/h (3 Bft) S 180 0 min 0,0 UV-I 0 W/m 6,2 C 1,5 C 25,7 km/h (4 Bft)
01.10.2022 02:53 8,4 C 7,2 C 86 % 1009,9 hPa 0,0 l/m 17,7 km/h (3 Bft) S 180 0 min 0,0 UV-I 0 W/m 6,2 C 2,1 C 33,8 km/h (5 Bft)
01.10.2022 02:54 8,4 C 7,2 C 86 % 1009,8 hPa 0,0 l/m 24,1 km/h (4 Bft) S 180 0 min 0,0 UV-I 0 W/m 6,2 C -0,1 C 32,2 km/h (5 Bft)
01.10.2022 02:55 8,4 C 7,2 C 86 % 1009,9 hPa 0,0 l/m 17,7 km/h (3 Bft) S 180 0 min 0,0 UV-I 0 W/m 6,2 C 2,1 C 29,0 km/h (5 Bft)
01.10.2022 02:56 8,4 C 7,2 C 86 % 1009,9 hPa 0,0 l/m 22,5 km/h (4 Bft) S 180 0 min 0,0 UV-I 0 W/m 6,2 C 0,4 C 32,2 km/h (5 Bft)
01.10.2022 02:57 8,4 C 7,2 C 86 % 1009,8 hPa 0,2 l/m 22,5 km/h (4 Bft) S 180 0 min 0,0 UV-I 0 W/m 6,2 C 0,4 C 30,6 km/h (5 Bft)
01.10.2022 02:58 8,4 C 7,2 C 86 % 1009,8 hPa 0,0 l/m 17,7 km/h (3 Bft) S 180 0 min 0,0 UV-I 0 W/m 6,2 C 2,1 C 25,7 km/h (4 Bft)
01.10.2022 02:59 8,4 C 7,2 C 86 % 1009,9 hPa 0,0 l/m 14,5 km/h (3 Bft) S 180 0 min 0,0 UV-I 0 W/m 6,2 C 3,4 C 29,0 km/h (5 Bft)
01.10.2022 03:00 8,4 C 7,2 C 86 % 1009,8 hPa 0,0 l/m 20,9 km/h (4 Bft) S 180 0 min 0,0 UV-I 0 W/m 6,2 C 0,9 C 32,2 km/h (5 Bft)
01.10.2022 03:01 8,4 C 7,2 C 86 % 1009,8 hPa 0,0 l/m 22,5 km/h (4 Bft) S 180 0 min 0,0 UV-I 0 W/m 6,2 C 0,4 C 32,2 km/h (5 Bft)
01.10.2022 03:02 8,4 C 7,2 C 86 % 1009,8 hPa 0,0 l/m 19,3 km/h (3 Bft) S 180 0 min 0,0 UV-I 0 W/m 6,2 C 1,5 C 30,6 km/h (5 Bft)
01.10.2022 03:03 8,4 C 7,2 C 86 % 1009,7 hPa 0,0 l/m 16,1 km/h (3 Bft) S-SO 157 0 min 0,0 UV-I 0 W/m 6,2 C 2,7 C 24,1 km/h (4 Bft)
01.10.2022 03:04 8,4 C 7,2 C 86 % 1009,7 hPa 0,0 l/m 25,7 km/h (4 Bft) S 180 0 min 0,0 UV-I 0 W/m 6,2 C -0,5 C 37,0 km/h (5 Bft)
01.10.2022 03:05 8,4 C 7,2 C 86 % 1009,8 hPa 0,2 l/m 24,1 km/h (4 Bft) S 180 0 min 0,0 UV-I 0 W/m 6,2 C -0,1 C 35,4 km/h (5 Bft)
01.10.2022 03:06 8,4 C 7,2 C 86 % 1009,6 hPa 0,0 l/m 17,7 km/h (3 Bft) S 180 0 min 0,0 UV-I 0 W/m 6,2 C 2,1 C 24,1 km/h (4 Bft)
01.10.2022 03:07 8,3 C 7,2 C 86 % 1009,7 hPa 0,0 l/m 11,3 km/h (2 Bft) S 180 0 min 0,0 UV-I 0 W/m 6,1 C 4,9 C 19,3 km/h (3 Bft)
01.10.2022 03:08 8,3 C 7,2 C 87 % 1009,8 hPa 0,0 l/m 19,3 km/h (3 Bft) S 180 0 min 0,0 UV-I 0 W/m 6,3 C 1,3 C 25,7 km/h (4 Bft)
01.10.2022 03:09 8,3 C 7,2 C 87 % 1009,7 hPa 0,0 l/m 14,5 km/h (3 Bft) S 180 0 min 0,0 UV-I 0 W/m 6,3 C 3,3 C 20,9 km/h (4 Bft)
01.10.2022 03:10 8,3 C 7,2 C 87 % 1009,7 hPa 0,0 l/m 20,9 km/h (4 Bft) S-SO 157 0 min 0,0 UV-I 0 W/m 6,3 C 0,8 C 30,6 km/h (5 Bft)
01.10.2022 03:11 8,3 C 7,2 C 87 % 1009,6 hPa 0,0 l/m 17,7 km/h (3 Bft) S 180 0 min 0,0 UV-I 0 W/m 6,3 C 1,9 C 24,1 km/h (4 Bft)
01.10.2022 03:12 8,3 C 7,2 C 87 % 1009,6 hPa 0,2 l/m 22,5 km/h (4 Bft) S 180 0 min 0,0 UV-I 0 W/m 6,3 C 0,3 C 32,2 km/h (5 Bft)
01.10.2022 03:13 8,3 C 7,2 C 87 % 1009,5 hPa 0,0 l/m 20,9 km/h (4 Bft) S 180 0 min 0,0 UV-I 0 W/m 6,3 C 0,8 C 33,8 km/h (5 Bft)
01.10.2022 03:14 8,3 C 7,2 C 87 % 1009,5 hPa 0,0 l/m 19,3 km/h (3 Bft) S 180 0 min 0,0 UV-I 0 W/m 6,3 C 1,3 C 30,6 km/h (5 Bft)
01.10.2022 03:15 8,3 C 7,2 C 87 % 1009,5 hPa 0,0 l/m 20,9 km/h (4 Bft) S 180 0 min 0,0 UV-I 0 W/m 6,3 C 0,8 C 35,4 km/h (5 Bft)
01.10.2022 03:16 8,3 C 7,2 C 87 % 1009,5 hPa 0,0 l/m 24,1 km/h (4 Bft) S-SO 157 0 min 0,0 UV-I 0 W/m 6,3 C -0,2 C 35,4 km/h (5 Bft)
01.10.2022 03:17 8,3 C 7,2 C 87 % 1009,4 hPa 0,0 l/m 16,1 km/h (3 Bft) S-SO 157 0 min 0,0 UV-I 0 W/m 6,3 C 2,6 C 25,7 km/h (4 Bft)
01.10.2022 03:18 8,3 C 7,2 C 87 % 1009,5 hPa 0,0 l/m 14,5 km/h (3 Bft) S-SO 157 0 min 0,0 UV-I 0 W/m 6,3 C 3,3 C 19,3 km/h (3 Bft)
01.10.2022 03:19 8,2 C 7,2 C 87 % 1009,5 hPa 0,0 l/m 19,3 km/h (3 Bft) S 180 0 min 0,0 UV-I 0 W/m 6,2 C 1,2 C 30,6 km/h (5 Bft)
01.10.2022 03:20 8,2 C 7,2 C 87 % 1009,4 hPa 0,2 l/m 19,3 km/h (3 Bft) S 180 0 min 0,0 UV-I 0 W/m 6,2 C 1,2 C 27,4 km/h (4 Bft)
01.10.2022 03:21 8,2 C 7,2 C 87 % 1009,5 hPa 0,0 l/m 17,7 km/h (3 Bft) S-SO 157 0 min 0,0 UV-I 0 W/m 6,2 C 1,8 C 25,7 km/h (4 Bft)
01.10.2022 03:22 8,2 C 7,2 C 87 % 1009,4 hPa 0,0 l/m 16,1 km/h (3 Bft) S 180 0 min 0,0 UV-I 0 W/m 6,2 C 2,5 C 20,9 km/h (4 Bft)
01.10.2022 03:23 8,2 C 7,2 C 88 % 1009,4 hPa 0,0 l/m 19,3 km/h (3 Bft) S 180 0 min 0,0 UV-I 0 W/m 6,3 C 1,2 C 25,7 km/h (4 Bft)
01.10.2022 03:24 8,2 C 7,2 C 88 % 1009,4 hPa 0,0 l/m 19,3 km/h (3 Bft) S 180 0 min 0,0 UV-I 0 W/m 6,3 C 1,2 C 24,1 km/h (4 Bft)
01.10.2022 03:25 8,2 C 7,2 C 88 % 1009,4 hPa 0,0 l/m 14,5 km/h (3 Bft) S 180 0 min 0,0 UV-I 0 W/m 6,3 C 3,2 C 19,3 km/h (3 Bft)
01.10.2022 03:26 8,2 C 7,2 C 88 % 1009,3 hPa 0,2 l/m 19,3 km/h (3 Bft) S 180 0 min 0,0 UV-I 0 W/m 6,3 C 1,2 C 29,0 km/h (5 Bft)
01.10.2022 03:27 8,2 C 7,2 C 88 % 1009,3 hPa 0,0 l/m 19,3 km/h (3 Bft) S 180 0 min 0,0 UV-I 0 W/m 6,3 C 1,2 C 25,7 km/h (4 Bft)
01.10.2022 03:28 8,2 C 7,2 C 88 % 1009,4 hPa 0,0 l/m 16,1 km/h (3 Bft) S 180 0 min 0,0 UV-I 0 W/m 6,3 C 2,5 C 22,5 km/h (4 Bft)
01.10.2022 03:29 8,2 C 7,2 C 88 % 1009,3 hPa 0,0 l/m 16,1 km/h (3 Bft) S 180 0 min 0,0 UV-I 0 W/m 6,3 C 2,5 C 24,1 km/h (4 Bft)
01.10.2022 03:30 8,2 C 7,2 C 88 % 1009,4 hPa 0,0 l/m 16,1 km/h (3 Bft) S-SO 157 0 min 0,0 UV-I 0 W/m 6,3 C 2,5 C 24,1 km/h (4 Bft)
01.10.2022 03:31 8,2 C 7,2 C 88 % 1009,4 hPa 0,0 l/m 20,9 km/h (4 Bft) S 180 0 min 0,0 UV-I 0 W/m 6,3 C 0,7 C 33,8 km/h (5 Bft)
01.10.2022 03:32 8,2 C 7,2 C 88 % 1009,4 hPa 0,0 l/m 14,5 km/h (3 Bft) S 180 0 min 0,0 UV-I 0 W/m 6,3 C 3,2 C 19,3 km/h (3 Bft)
01.10.2022 03:33 8,2 C 7,2 C 88 % 1009,3 hPa 0,0 l/m 19,3 km/h (3 Bft) S-SO 157 0 min 0,0 UV-I 0 W/m 6,3 C 1,2 C 35,4 km/h (5 Bft)
01.10.2022 03:34 8,2 C 7,2 C 88 % 1009,4 hPa 0,0 l/m 17,7 km/h (3 Bft) S 180 0 min 0,0 UV-I 0 W/m 6,3 C 1,8 C 20,9 km/h (4 Bft)
01.10.2022 03:35 8,2 C 7,2 C 88 % 1009,4 hPa 0,0 l/m 19,3 km/h (3 Bft) S 180 0 min 0,0 UV-I 0 W/m 6,3 C 1,2 C 29,0 km/h (5 Bft)
01.10.2022 03:36 8,2 C 7,2 C 88 % 1009,3 hPa 0,2 l/m 17,7 km/h (3 Bft) S 180 0 min 0,0 UV-I 0 W/m 6,3 C 1,8 C 29,0 km/h (5 Bft)
01.10.2022 03:37 8,2 C 7,2 C 88 % 1009,3 hPa 0,0 l/m 20,9 km/h (4 Bft) S 180 0 min 0,0 UV-I 0 W/m 6,3 C 0,7 C 32,2 km/h (5 Bft)
01.10.2022 03:38 8,2 C 7,2 C 88 % 1009,3 hPa 0,0 l/m 17,7 km/h (3 Bft) S 180 0 min 0,0 UV-I 0 W/m 6,3 C 1,8 C 24,1 km/h (4 Bft)
01.10.2022 03:39 8,2 C 7,2 C 88 % 1009,4 hPa 0,0 l/m 17,7 km/h (3 Bft) S 180 0 min 0,0 UV-I 0 W/m 6,3 C 1,8 C 25,7 km/h (4 Bft)
01.10.2022 03:40 8,2 C 7,2 C 88 % 1009,2 hPa 0,0 l/m 19,3 km/h (3 Bft) S 180 0 min 0,0 UV-I 0 W/m 6,3 C 1,2 C 30,6 km/h (5 Bft)
01.10.2022 03:41 8,2 C 7,2 C 88 % 1009,2 hPa 0,0 l/m 16,1 km/h (3 Bft) S 180 0 min 0,0 UV-I 0 W/m 6,3 C 2,5 C 24,1 km/h (4 Bft)
01.10.2022 03:42 8,2 C 7,2 C 88 % 1009,3 hPa 0,0 l/m 19,3 km/h (3 Bft) S-SO 157 0 min 0,0 UV-I 0 W/m 6,3 C 1,2 C 27,4 km/h (4 Bft)
01.10.2022 03:43 8,2 C 7,2 C 88 % 1009,3 hPa 0,0 l/m 24,1 km/h (4 Bft) S 180 0 min 0,0 UV-I 0 W/m 6,3 C -0,3 C 32,2 km/h (5 Bft)
01.10.2022 03:44 8,2 C 7,2 C 88 % 1009,3 hPa 0,2 l/m 17,7 km/h (3 Bft) S 180 0 min 0,0 UV-I 0 W/m 6,3 C 1,8 C 22,5 km/h (4 Bft)
01.10.2022 03:45 8,2 C 7,2 C 88 % 1009,3 hPa 0,0 l/m 17,7 km/h (3 Bft) S 180 0 min 0,0 UV-I 0 W/m 6,3 C 1,8 C 27,4 km/h (4 Bft)
01.10.2022 03:46 8,2 C 7,2 C 88 % 1009,1 hPa 0,0 l/m 20,9 km/h (4 Bft) S 180 0 min 0,0 UV-I 0 W/m 6,3 C 0,7 C 32,2 km/h (5 Bft)
01.10.2022 03:47 8,2 C 7,2 C 88 % 1009,2 hPa 0,0 l/m 22,5 km/h (4 Bft) S 180 0 min 0,0 UV-I 0 W/m 6,3 C 0,1 C 30,6 km/h (5 Bft)
01.10.2022 03:48 8,2 C 7,2 C 88 % 1009,1 hPa 0,0 l/m 20,9 km/h (4 Bft) S 180 0 min 0,0 UV-I 0 W/m 6,3 C 0,7 C 29,0 km/h (5 Bft)
01.10.2022 03:49 8,2 C 7,2 C 89 % 1009,2 hPa 0,0 l/m 22,5 km/h (4 Bft) S 180 0 min 0,0 UV-I 0 W/m 6,5 C 0,1 C 35,4 km/h (5 Bft)
01.10.2022 03:50 8,2 C 7,2 C 89 % 1009,1 hPa 0,2 l/m 17,7 km/h (3 Bft) S 180 0 min 0,0 UV-I 0 W/m 6,5 C 1,8 C 25,7 km/h (4 Bft)
01.10.2022 03:51 8,2 C 7,2 C 89 % 1009,2 hPa 0,0 l/m 25,7 km/h (4 Bft) S 180 0 min 0,0 UV-I 0 W/m 6,5 C -0,8 C 53,1 km/h (7 Bft)
01.10.2022 03:52 8,3 C 7,2 C 89 % 1009,2 hPa 0,0 l/m 17,7 km/h (3 Bft) S 180 0 min 0,0 UV-I 0 W/m 6,6 C 1,9 C 49,9 km/h (6 Bft)
01.10.2022 03:53 8,3 C 7,2 C 89 % 1009,1 hPa 0,0 l/m 20,9 km/h (4 Bft) S 180 0 min 0,0 UV-I 0 W/m 6,6 C 0,8 C 37,0 km/h (5 Bft)
01.10.2022 03:54 8,2 C 7,2 C 89 % 1009,0 hPa 0,0 l/m 27,4 km/h (4 Bft) S 180 0 min 0,0 UV-I 0 W/m 6,5 C -1,2 C 41,8 km/h (6 Bft)
01.10.2022 03:55 8,3 C 7,2 C 89 % 1009,1 hPa 0,2 l/m 27,4 km/h (4 Bft) S 180 0 min 0,0 UV-I 0 W/m 6,6 C -1,1 C 48,3 km/h (6 Bft)
01.10.2022 03:56 8,3 C 7,2 C 89 % 1009,0 hPa 0,0 l/m 17,7 km/h (3 Bft) S 180 0 min 0,0 UV-I 0 W/m 6,6 C 1,9 C 29,0 km/h (5 Bft)
01.10.2022 03:57 8,3 C 7,2 C 89 % 1009,0 hPa 0,0 l/m 17,7 km/h (3 Bft) S 180 0 min 0,0 UV-I 0 W/m 6,6 C 1,9 C 45,1 km/h (6 Bft)
01.10.2022 03:58 8,3 C 7,2 C 89 % 1008,9 hPa 0,0 l/m 19,3 km/h (3 Bft) S 180 0 min 0,0 UV-I 0 W/m 6,6 C 1,3 C 29,0 km/h (5 Bft)
01.10.2022 03:59 8,3 C 7,2 C 89 % 1008,9 hPa 0,0 l/m 19,3 km/h (3 Bft) S 180 0 min 0,0 UV-I 0 W/m 6,6 C 1,3 C 25,7 km/h (4 Bft)
01.10.2022 04:00 8,3 C 7,2 C 89 % 1008,9 hPa 0,2 l/m 27,4 km/h (4 Bft) S-SO 157 0 min 0,0 UV-I 0 W/m 6,6 C -1,1 C 37,0 km/h (5 Bft)
01.10.2022 04:01 8,3 C 7,2 C 89 % 1008,9 hPa 0,0 l/m 24,1 km/h (4 Bft) S 180 0 min 0,0 UV-I 0 W/m 6,6 C -0,2 C 38,6 km/h (5 Bft)
01.10.2022 04:02 8,3 C 7,2 C 89 % 1008,8 hPa 0,0 l/m 25,7 km/h (4 Bft) S 180 0 min 0,0 UV-I 0 W/m 6,6 C -0,7 C 38,6 km/h (5 Bft)
01.10.2022 04:03 8,3 C 7,2 C 89 % 1008,8 hPa 0,0 l/m 22,5 km/h (4 Bft) S 180 0 min 0,0 UV-I 0 W/m 6,6 C 0,3 C 29,0 km/h (5 Bft)
01.10.2022 04:04 8,3 C 7,2 C 89 % 1008,9 hPa 0,2 l/m 17,7 km/h (3 Bft) S 180 0 min 0,0 UV-I 0 W/m 6,6 C 1,9 C 22,5 km/h (4 Bft)
01.10.2022 04:05 8,3 C 7,2 C 89 % 1008,8 hPa 0,0 l/m 17,7 km/h (3 Bft) S 180 0 min 0,0 UV-I 0 W/m 6,6 C 1,9 C 24,1 km/h (4 Bft)
01.10.2022 04:06 8,3 C 7,2 C 89 % 1008,7 hPa 0,0 l/m 20,9 km/h (4 Bft) S 180 0 min 0,0 UV-I 0 W/m 6,6 C 0,8 C 29,0 km/h (5 Bft)
01.10.2022 04:07 8,3 C 7,2 C 89 % 1008,8 hPa 0,0 l/m 14,5 km/h (3 Bft) S 180 0 min 0,0 UV-I 0 W/m 6,6 C 3,3 C 20,9 km/h (4 Bft)
01.10.2022 04:08 8,3 C 7,2 C 89 % 1008,8 hPa 0,0 l/m 16,1 km/h (3 Bft) S 180 0 min 0,0 UV-I 0 W/m 6,6 C 2,6 C 30,6 km/h (5 Bft)
01.10.2022 04:09 8,3 C 7,2 C 89 % 1008,7 hPa 0,2 l/m 19,3 km/h (3 Bft) S-SO 157 0 min 0,0 UV-I 0 W/m 6,6 C 1,3 C 27,4 km/h (4 Bft)
01.10.2022 04:10 8,3 C 7,2 C 89 % 1008,6 hPa 0,0 l/m 20,9 km/h (4 Bft) S-SO 157 0 min 0,0 UV-I 0 W/m 6,6 C 0,8 C 30,6 km/h (5 Bft)
01.10.2022 04:11 8,3 C 7,2 C 89 % 1008,6 hPa 0,0 l/m 20,9 km/h (4 Bft) S 180 0 min 0,0 UV-I 0 W/m 6,6 C 0,8 C 29,0 km/h (5 Bft)
01.10.2022 04:12 8,3 C 7,2 C 89 % 1008,6 hPa 0,0 l/m 20,9 km/h (4 Bft) S 180 0 min 0,0 UV-I 0 W/m 6,6 C 0,8 C 33,8 km/h (5 Bft)
01.10.2022 04:13 8,3 C 7,2 C 89 % 1008,6 hPa 0,0 l/m 20,9 km/h (4 Bft) S 180 0 min 0,0 UV-I 0 W/m 6,6 C 0,8 C 38,6 km/h (5 Bft)
01.10.2022 04:14 8,3 C 7,2 C 89 % 1008,5 hPa 0,0 l/m 24,1 km/h (4 Bft) S 180 0 min 0,0 UV-I 0 W/m 6,6 C -0,2 C 30,6 km/h (5 Bft)
01.10.2022 04:15 8,3 C 7,2 C 89 % 1008,4 hPa 0,2 l/m 19,3 km/h (3 Bft) S 180 0 min 0,0 UV-I 0 W/m 6,6 C 1,3 C 24,1 km/h (4 Bft)
01.10.2022 04:16 8,3 C 7,2 C 89 % 1008,3 hPa 0,0 l/m 19,3 km/h (3 Bft) S 180 0 min 0,0 UV-I 0 W/m 6,6 C 1,3 C 30,6 km/h (5 Bft)
01.10.2022 04:17 8,3 C 7,2 C 89 % 1008,5 hPa 0,0 l/m 19,3 km/h (3 Bft) S 180 0 min 0,0 UV-I 0 W/m 6,6 C 1,3 C 30,6 km/h (5 Bft)
01.10.2022 04:18 8,3 C 7,2 C 89 % 1008,4 hPa 0,0 l/m 24,1 km/h (4 Bft) S-SW 202 0 min 0,0 UV-I 0 W/m 6,6 C -0,2 C 33,8 km/h (5 Bft)
01.10.2022 04:19 8,3 C 7,2 C 89 % 1008,4 hPa 0,0 l/m 22,5 km/h (4 Bft) S 180 0 min 0,0 UV-I 0 W/m 6,6 C 0,3 C 32,2 km/h (5 Bft)
01.10.2022 04:20 8,3 C 7,8 C 89 % 1008,4 hPa 0,0 l/m 19,3 km/h (3 Bft) S 180 0 min 0,0 UV-I 0 W/m 6,6 C 1,3 C 35,4 km/h (5 Bft)
01.10.2022 04:21 8,3 C 7,8 C 89 % 1008,3 hPa 0,0 l/m 16,1 km/h (3 Bft) S 180 0 min 0,0 UV-I 0 W/m 6,6 C 2,6 C 24,1 km/h (4 Bft)
01.10.2022 04:22 8,3 C 7,8 C 89 % 1008,4 hPa 0,2 l/m 14,5 km/h (3 Bft) S 180 0 min 0,0 UV-I 0 W/m 6,6 C 3,3 C 32,2 km/h (5 Bft)
01.10.2022 04:23 8,3 C 7,8 C 89 % 1008,5 hPa 0,0 l/m 20,9 km/h (4 Bft) S 180 0 min 0,0 UV-I 0 W/m 6,6 C 0,8 C 43,5 km/h (6 Bft)
01.10.2022 04:24 8,3 C 7,8 C 89 % 1008,5 hPa 0,0 l/m 17,7 km/h (3 Bft) S 180 0 min 0,0 UV-I 0 W/m 6,6 C 1,9 C 25,7 km/h (4 Bft)
01.10.2022 04:25 8,3 C 7,8 C 89 % 1008,4 hPa 0,0 l/m 20,9 km/h (4 Bft) S-SO 157 0 min 0,0 UV-I 0 W/m 6,6 C 0,8 C 32,2 km/h (5 Bft)
01.10.2022 04:26 8,3 C 7,8 C 89 % 1008,4 hPa 0,0 l/m 20,9 km/h (4 Bft) S 180 0 min 0,0 UV-I 0 W/m 6,6 C 0,8 C 29,0 km/h (5 Bft)
01.10.2022 04:27 8,3 C 7,8 C 89 % 1008,4 hPa 0,2 l/m 25,7 km/h (4 Bft) S 180 0 min 0,0 UV-I 0 W/m 6,6 C -0,7 C 40,2 km/h (6 Bft)
01.10.2022 04:28 8,3 C 7,8 C 89 % 1008,3 hPa 0,0 l/m 17,7 km/h (3 Bft) S-SO 157 0 min 0,0 UV-I 0 W/m 6,6 C 1,9 C 27,4 km/h (4 Bft)
01.10.2022 04:29 8,3 C 7,8 C 89 % 1008,3 hPa 0,0 l/m 17,7 km/h (3 Bft) S 180 0 min 0,0 UV-I 0 W/m 6,6 C 1,9 C 25,7 km/h (4 Bft)
01.10.2022 04:30 8,3 C 7,8 C 89 % 1008,2 hPa 0,0 l/m 16,1 km/h (3 Bft) S 180 0 min 0,0 UV-I 0 W/m 6,6 C 2,6 C 20,9 km/h (4 Bft)
01.10.2022 04:31 8,3 C 7,8 C 89 % 1008,2 hPa 0,0 l/m 29,0 km/h (5 Bft) S-SO 157 0 min 0,0 UV-I 0 W/m 6,6 C -1,5 C 43,5 km/h (6 Bft)
01.10.2022 04:32 8,3 C 7,8 C 89 % 1008,1 hPa 0,2 l/m 20,9 km/h (4 Bft) S 180 0 min 0,0 UV-I 0 W/m 6,6 C 0,8 C 30,6 km/h (5 Bft)
01.10.2022 04:33 8,3 C 7,8 C 89 % 1008,0 hPa 0,0 l/m 29,0 km/h (5 Bft) S 180 0 min 0,0 UV-I 0 W/m 6,6 C -1,5 C 41,8 km/h (6 Bft)
01.10.2022 04:34 8,3 C 7,8 C 89 % 1008,2 hPa 0,0 l/m 24,1 km/h (4 Bft) S-SO 157 0 min 0,0 UV-I 0 W/m 6,6 C -0,2 C 35,4 km/h (5 Bft)
01.10.2022 04:35 8,3 C 7,8 C 89 % 1008,0 hPa 0,0 l/m 25,7 km/h (4 Bft) S-SO 157 0 min 0,0 UV-I 0 W/m 6,6 C -0,7 C 38,6 km/h (5 Bft)
01.10.2022 04:36 8,3 C 7,8 C 89 % 1008,1 hPa 0,0 l/m 32,2 km/h (5 Bft) S 180 0 min 0,0 UV-I 0 W/m 6,6 C -2,2 C 51,5 km/h (7 Bft)
01.10.2022 04:37 8,4 C 7,8 C 89 % 1007,9 hPa 0,0 l/m 24,1 km/h (4 Bft) S 180 0 min 0,0 UV-I 0 W/m 6,7 C -0,1 C 33,8 km/h (5 Bft)
01.10.2022 04:38 8,4 C 7,8 C 89 % 1008,0 hPa 0,2 l/m 27,4 km/h (4 Bft) S 180 0 min 0,0 UV-I 0 W/m 6,7 C -1,0 C 43,5 km/h (6 Bft)
01.10.2022 04:39 8,4 C 7,8 C 89 % 1008,0 hPa 0,0 l/m 22,5 km/h (4 Bft) S-SO 157 0 min 0,0 UV-I 0 W/m 6,7 C 0,4 C 35,4 km/h (5 Bft)
01.10.2022 04:40 8,4 C 7,8 C 89 % 1008,0 hPa 0,0 l/m 20,9 km/h (4 Bft) S 180 0 min 0,0 UV-I 0 W/m 6,7 C 0,9 C 29,0 km/h (5 Bft)
01.10.2022 04:41 8,4 C 7,8 C 89 % 1007,9 hPa 0,0 l/m 27,4 km/h (4 Bft) S 180 0 min 0,0 UV-I 0 W/m 6,7 C -1,0 C 38,6 km/h (5 Bft)
01.10.2022 04:42 8,4 C 7,8 C 89 % 1007,9 hPa 0,0 l/m 22,5 km/h (4 Bft) S 180 0 min 0,0 UV-I 0 W/m 6,7 C 0,4 C 35,4 km/h (5 Bft)
01.10.2022 04:43 8,4 C 7,8 C 89 % 1008,0 hPa 0,0 l/m 27,4 km/h (4 Bft) S-SO 157 0 min 0,0 UV-I 0 W/m 6,7 C -1,0 C 35,4 km/h (5 Bft)
01.10.2022 04:44 8,3 C 7,8 C 89 % 1008,0 hPa 0,0 l/m 16,1 km/h (3 Bft) S 180 0 min 0,0 UV-I 0 W/m 6,6 C 2,6 C 29,0 km/h (5 Bft)
01.10.2022 04:45 8,4 C 7,8 C 89 % 1007,8 hPa 0,0 l/m 22,5 km/h (4 Bft) S 180 0 min 0,0 UV-I 0 W/m 6,7 C 0,4 C 35,4 km/h (5 Bft)
01.10.2022 04:46 8,4 C 7,8 C 89 % 1008,0 hPa 0,2 l/m 24,1 km/h (4 Bft) S 180 0 min 0,0 UV-I 0 W/m 6,7 C -0,1 C 30,6 km/h (5 Bft)
01.10.2022 04:47 8,4 C 7,8 C 89 % 1008,1 hPa 0,0 l/m 22,5 km/h (4 Bft) S 180 0 min 0,0 UV-I 0 W/m 6,7 C 0,4 C 35,4 km/h (5 Bft)
01.10.2022 04:48 8,3 C 7,8 C 89 % 1007,9 hPa 0,0 l/m 16,1 km/h (3 Bft) S 180 0 min 0,0 UV-I 0 W/m 6,6 C 2,6 C 24,1 km/h (4 Bft)
01.10.2022 04:49 8,3 C 7,8 C 89 % 1008,0 hPa 0,0 l/m 14,5 km/h (3 Bft) S 180 0 min 0,0 UV-I 0 W/m 6,6 C 3,3 C 19,3 km/h (3 Bft)
01.10.2022 04:50 8,4 C 7,8 C 89 % 1007,9 hPa 0,0 l/m 20,9 km/h (4 Bft) S 180 0 min 0,0 UV-I 0 W/m 6,7 C 0,9 C 35,4 km/h (5 Bft)
01.10.2022 04:51 8,4 C 7,8 C 89 % 1007,9 hPa 0,0 l/m 25,7 km/h (4 Bft) S 180 0 min 0,0 UV-I 0 W/m 6,7 C -0,5 C 41,8 km/h (6 Bft)
01.10.2022 04:52 8,3 C 7,8 C 89 % 1007,9 hPa 0,0 l/m 22,5 km/h (4 Bft) S-SO 157 0 min 0,0 UV-I 0 W/m 6,6 C 0,3 C 29,0 km/h (5 Bft)
01.10.2022 04:53 8,3 C 7,8 C 89 % 1008,0 hPa 0,2 l/m 35,4 km/h (5 Bft) S-SO 157 0 min 0,0 UV-I 0 W/m 6,6 C -2,8 C 57,9 km/h (7 Bft)
01.10.2022 04:54 8,4 C 7,8 C 89 % 1007,9 hPa 0,0 l/m 33,8 km/h (5 Bft) S 180 0 min 0,0 UV-I 0 W/m 6,7 C -2,4 C 45,1 km/h (6 Bft)
01.10.2022 04:55 8,4 C 7,8 C 89 % 1007,9 hPa 0,0 l/m 29,0 km/h (5 Bft) S-SW 202 0 min 0,0 UV-I 0 W/m 6,7 C -1,4 C 43,5 km/h (6 Bft)
01.10.2022 04:56 8,4 C 7,8 C 89 % 1007,8 hPa 0,0 l/m 22,5 km/h (4 Bft) S 180 0 min 0,0 UV-I 0 W/m 6,7 C 0,4 C 30,6 km/h (5 Bft)
01.10.2022 04:57 8,4 C 7,8 C 89 % 1007,8 hPa 0,0 l/m 19,3 km/h (3 Bft) S 180 0 min 0,0 UV-I 0 W/m 6,7 C 1,5 C 27,4 km/h (4 Bft)
01.10.2022 04:58 8,4 C 7,8 C 89 % 1007,8 hPa 0,0 l/m 24,1 km/h (4 Bft) S 180 0 min 0,0 UV-I 0 W/m 6,7 C -0,1 C 37,0 km/h (5 Bft)
01.10.2022 04:59 8,4 C 7,8 C 89 % 1007,8 hPa 0,0 l/m 22,5 km/h (4 Bft) S 180 0 min 0,0 UV-I 0 W/m 6,7 C 0,4 C 30,6 km/h (5 Bft)
01.10.2022 05:00 8,4 C 7,8 C 89 % 1007,8 hPa 0,0 l/m 20,9 km/h (4 Bft) S 180 0 min 0,0 UV-I 0 W/m 6,7 C 0,9 C 32,2 km/h (5 Bft)
01.10.2022 05:01 8,4 C 7,8 C 89 % 1007,8 hPa 0,0 l/m 16,1 km/h (3 Bft) S 180 0 min 0,0 UV-I 0 W/m 6,7 C 2,7 C 25,7 km/h (4 Bft)
01.10.2022 05:02 8,4 C 7,8 C 89 % 1007,7 hPa 0,0 l/m 17,7 km/h (3 Bft) S 180 0 min 0,0 UV-I 0 W/m 6,7 C 2,1 C 29,0 km/h (5 Bft)
01.10.2022 05:03 8,4 C 7,8 C 89 % 1007,7 hPa 0,2 l/m 25,7 km/h (4 Bft) S 180 0 min 0,0 UV-I 0 W/m 6,7 C -0,5 C 38,6 km/h (5 Bft)
01.10.2022 05:04 8,4 C 7,8 C 89 % 1007,7 hPa 0,0 l/m 17,7 km/h (3 Bft) SO 135 0 min 0,0 UV-I 0 W/m 6,7 C 2,1 C 29,0 km/h (5 Bft)
01.10.2022 05:05 8,4 C 7,8 C 89 % 1007,6 hPa 0,0 l/m 25,7 km/h (4 Bft) S-SO 157 0 min 0,0 UV-I 0 W/m 6,7 C -0,5 C 38,6 km/h (5 Bft)
01.10.2022 05:06 8,4 C 7,8 C 90 % 1007,6 hPa 0,2 l/m 24,1 km/h (4 Bft) S-SO 157 0 min 0,0 UV-I 0 W/m 6,9 C -0,1 C 32,2 km/h (5 Bft)
01.10.2022 05:07 8,4 C 7,8 C 90 % 1007,6 hPa 0,0 l/m 19,3 km/h (3 Bft) S-SW 202 0 min 0,0 UV-I 0 W/m 6,9 C 1,5 C 25,7 km/h (4 Bft)
01.10.2022 05:08 8,4 C 7,8 C 90 % 1007,6 hPa 0,0 l/m 24,1 km/h (4 Bft) S 180 0 min 0,0 UV-I 0 W/m 6,9 C -0,1 C 33,8 km/h (5 Bft)
01.10.2022 05:09 8,4 C 7,8 C 90 % 1007,6 hPa 0,0 l/m 25,7 km/h (4 Bft) S 180 0 min 0,0 UV-I 0 W/m 6,9 C -0,5 C 43,5 km/h (6 Bft)
01.10.2022 05:10 8,4 C 7,8 C 90 % 1007,4 hPa 0,0 l/m 20,9 km/h (4 Bft) S 180 0 min 0,0 UV-I 0 W/m 6,9 C 0,9 C 29,0 km/h (5 Bft)
01.10.2022 05:11 8,4 C 7,8 C 90 % 1007,3 hPa 0,2 l/m 22,5 km/h (4 Bft) S 180 0 min 0,0 UV-I 0 W/m 6,9 C 0,4 C 38,6 km/h (5 Bft)
01.10.2022 05:12 8,4 C 7,8 C 90 % 1007,2 hPa 0,0 l/m 17,7 km/h (3 Bft) S 180 0 min 0,0 UV-I 0 W/m 6,9 C 2,1 C 25,7 km/h (4 Bft)
01.10.2022 05:13 8,3 C 7,8 C 90 % 1007,1 hPa 0,0 l/m 17,7 km/h (3 Bft) S 180 0 min 0,0 UV-I 0 W/m 6,8 C 1,9 C 27,4 km/h (4 Bft)
01.10.2022 05:14 8,3 C 7,8 C 90 % 1007,3 hPa 0,0 l/m 17,7 km/h (3 Bft) S-SO 157 0 min 0,0 UV-I 0 W/m 6,8 C 1,9 C 29,0 km/h (5 Bft)
01.10.2022 05:15 8,4 C 7,8 C 90 % 1007,5 hPa 0,0 l/m 20,9 km/h (4 Bft) S 180 0 min 0,0 UV-I 0 W/m 6,9 C 0,9 C 30,6 km/h (5 Bft)
01.10.2022 05:16 8,4 C 7,8 C 90 % 1007,4 hPa 0,0 l/m 17,7 km/h (3 Bft) S 180 0 min 0,0 UV-I 0 W/m 6,9 C 2,1 C 37,0 km/h (5 Bft)
01.10.2022 05:17 8,4 C 7,8 C 90 % 1007,3 hPa 0,2 l/m 20,9 km/h (4 Bft) S 180 0 min 0,0 UV-I 0 W/m 6,9 C 0,9 C 29,0 km/h (5 Bft)
01.10.2022 05:18 8,4 C 7,8 C 90 % 1007,3 hPa 0,0 l/m 20,9 km/h (4 Bft) S 180 0 min 0,0 UV-I 0 W/m 6,9 C 0,9 C 35,4 km/h (5 Bft)
01.10.2022 05:19 8,4 C 7,8 C 90 % 1007,3 hPa 0,0 l/m 20,9 km/h (4 Bft) S-SW 202 0 min 0,0 UV-I 0 W/m 6,9 C 0,9 C 38,6 km/h (5 Bft)
01.10.2022 05:20 8,4 C 7,8 C 90 % 1007,5 hPa 0,0 l/m 29,0 km/h (5 Bft) S 180 0 min 0,0 UV-I 0 W/m 6,9 C -1,4 C 38,6 km/h (5 Bft)
01.10.2022 05:21 8,4 C 7,8 C 90 % 1007,3 hPa 0,0 l/m 27,4 km/h (4 Bft) S 180 0 min 0,0 UV-I 0 W/m 6,9 C -1,0 C 37,0 km/h (5 Bft)
01.10.2022 05:22 8,4 C 7,8 C 90 % 1007,3 hPa 0,0 l/m 22,5 km/h (4 Bft) S 180 0 min 0,0 UV-I 0 W/m 6,9 C 0,4 C 32,2 km/h (5 Bft)
01.10.2022 05:23 8,4 C 7,8 C 90 % 1007,3 hPa 0,0 l/m 14,5 km/h (3 Bft) S-SO 157 0 min 0,0 UV-I 0 W/m 6,9 C 3,4 C 20,9 km/h (4 Bft)
01.10.2022 05:24 8,4 C 7,8 C 90 % 1007,3 hPa 0,0 l/m 16,1 km/h (3 Bft) S-SO 157 0 min 0,0 UV-I 0 W/m 6,9 C 2,7 C 20,9 km/h (4 Bft)
01.10.2022 05:25 8,4 C 7,8 C 90 % 1007,3 hPa 0,0 l/m 14,5 km/h (3 Bft) S 180 0 min 0,0 UV-I 0 W/m 6,9 C 3,4 C 27,4 km/h (4 Bft)
01.10.2022 05:26 8,4 C 7,8 C 90 % 1007,5 hPa 0,0 l/m 16,1 km/h (3 Bft) S 180 0 min 0,0 UV-I 0 W/m 6,9 C 2,7 C 22,5 km/h (4 Bft)
01.10.2022 05:27 8,4 C 7,8 C 90 % 1007,4 hPa 0,2 l/m 12,9 km/h (3 Bft) S 180 0 min 0,0 UV-I 0 W/m 6,9 C 4,2 C 20,9 km/h (4 Bft)
01.10.2022 05:28 8,4 C 7,8 C 90 % 1007,4 hPa 0,0 l/m 12,9 km/h (3 Bft) S-SO 157 0 min 0,0 UV-I 0 W/m 6,9 C 4,2 C 19,3 km/h (3 Bft)
01.10.2022 05:29 8,4 C 7,8 C 90 % 1007,7 hPa 0,0 l/m 17,7 km/h (3 Bft) S 180 0 min 0,0 UV-I 0 W/m 6,9 C 2,1 C 29,0 km/h (5 Bft)
01.10.2022 05:30 8,4 C 7,8 C 90 % 1007,7 hPa 0,0 l/m 16,1 km/h (3 Bft) S 180 0 min 0,0 UV-I 0 W/m 6,9 C 2,7 C 19,3 km/h (3 Bft)
01.10.2022 05:31 8,3 C 7,8 C 90 % 1007,7 hPa 0,0 l/m 16,1 km/h (3 Bft) S 180 0 min 0,0 UV-I 0 W/m 6,8 C 2,6 C 24,1 km/h (4 Bft)
01.10.2022 05:32 8,4 C 7,8 C 90 % 1007,6 hPa 0,4 l/m 14,5 km/h (3 Bft) S 180 0 min 0,0 UV-I 0 W/m 6,9 C 3,4 C 27,4 km/h (4 Bft)
01.10.2022 05:33 8,3 C 7,8 C 90 % 1007,6 hPa 0,2 l/m 19,3 km/h (3 Bft) S-SO 157 0 min 0,0 UV-I 0 W/m 6,8 C 1,3 C 25,7 km/h (4 Bft)
01.10.2022 05:34 8,4 C 7,8 C 90 % 1007,5 hPa 0,2 l/m 16,1 km/h (3 Bft) S 180 0 min 0,0 UV-I 0 W/m 6,9 C 2,7 C 19,3 km/h (3 Bft)
01.10.2022 05:35 8,4 C 7,8 C 90 % 1007,5 hPa 0,2 l/m 19,3 km/h (3 Bft) S 180 0 min 0,0 UV-I 0 W/m 6,9 C 1,5 C 25,7 km/h (4 Bft)
01.10.2022 05:36 8,4 C 7,8 C 90 % 1007,6 hPa 0,0 l/m 17,7 km/h (3 Bft) S-SW 202 0 min 0,0 UV-I 0 W/m 6,9 C 2,1 C 24,1 km/h (4 Bft)
01.10.2022 05:37 8,4 C 7,8 C 90 % 1007,6 hPa 0,2 l/m 22,5 km/h (4 Bft) S 180 0 min 0,0 UV-I 0 W/m 6,9 C 0,4 C 38,6 km/h (5 Bft)
01.10.2022 05:38 8,4 C 7,8 C 90 % 1007,6 hPa 0,2 l/m 22,5 km/h (4 Bft) S 180 0 min 0,0 UV-I 0 W/m 6,9 C 0,4 C 35,4 km/h (5 Bft)
01.10.2022 05:39 8,4 C 7,8 C 90 % 1007,5 hPa 0,0 l/m 24,1 km/h (4 Bft) S 180 0 min 0,0 UV-I 0 W/m 6,9 C -0,1 C 43,5 km/h (6 Bft)
01.10.2022 05:40 8,4 C 7,8 C 90 % 1007,5 hPa 0,2 l/m 20,9 km/h (4 Bft) S 180 0 min 0,0 UV-I 0 W/m 6,9 C 0,9 C 32,2 km/h (5 Bft)
01.10.2022 05:41 8,4 C 7,8 C 90 % 1007,4 hPa 0,2 l/m 14,5 km/h (3 Bft) S 180 0 min 0,0 UV-I 0 W/m 6,9 C 3,4 C 22,5 km/h (4 Bft)
01.10.2022 05:42 8,4 C 7,8 C 90 % 1007,4 hPa 0,2 l/m 16,1 km/h (3 Bft) SO 135 0 min 0,0 UV-I 0 W/m 6,9 C 2,7 C 22,5 km/h (4 Bft)
01.10.2022 05:43 8,4 C 7,8 C 90 % 1007,3 hPa 0,2 l/m 25,7 km/h (4 Bft) S 180 0 min 0,0 UV-I 0 W/m 6,9 C -0,5 C 33,8 km/h (5 Bft)
01.10.2022 05:44 8,4 C 7,8 C 90 % 1007,5 hPa 0,2 l/m 32,2 km/h (5 Bft) S-SO 157 0 min 0,0 UV-I 0 W/m 6,9 C -2,1 C 46,7 km/h (6 Bft)
01.10.2022 05:45 8,4 C 7,8 C 90 % 1007,2 hPa 0,2 l/m 29,0 km/h (5 Bft) S 180 0 min 0,0 UV-I 0 W/m 6,9 C -1,4 C 43,5 km/h (6 Bft)
01.10.2022 05:46 8,4 C 7,8 C 90 % 1007,3 hPa 0,2 l/m 22,5 km/h (4 Bft) S 180 0 min 0,0 UV-I 0 W/m 6,9 C 0,4 C 37,0 km/h (5 Bft)
01.10.2022 05:47 8,4 C 7,8 C 90 % 1007,4 hPa 0,0 l/m 22,5 km/h (4 Bft) S 180 0 min 0,0 UV-I 0 W/m 6,9 C 0,4 C 32,2 km/h (5 Bft)
01.10.2022 05:48 8,4 C 7,8 C 90 % 1007,3 hPa 0,0 l/m 20,9 km/h (4 Bft) S 180 0 min 0,0 UV-I 0 W/m 6,9 C 0,9 C 41,8 km/h (6 Bft)
01.10.2022 05:49 8,4 C 7,8 C 90 % 1007,5 hPa 0,2 l/m 27,4 km/h (4 Bft) S-SO 157 0 min 0,0 UV-I 0 W/m 6,9 C -1,0 C 37,0 km/h (5 Bft)
01.10.2022 05:50 8,4 C 7,8 C 90 % 1007,4 hPa 0,0 l/m 20,9 km/h (4 Bft) S 180 0 min 0,0 UV-I 0 W/m 6,9 C 0,9 C 30,6 km/h (5 Bft)
01.10.2022 05:51 8,4 C 7,8 C 90 % 1007,5 hPa 0,0 l/m 30,6 km/h (5 Bft) S 180 0 min 0,0 UV-I 0 W/m 6,9 C -1,7 C 41,8 km/h (6 Bft)
01.10.2022 05:52 8,4 C 7,8 C 90 % 1007,5 hPa 0,0 l/m 19,3 km/h (3 Bft) S 180 0 min 0,0 UV-I 0 W/m 6,9 C 1,5 C 32,2 km/h (5 Bft)
01.10.2022 05:53 8,4 C 7,8 C 90 % 1007,6 hPa 0,0 l/m 22,5 km/h (4 Bft) S 180 0 min 0,0 UV-I 0 W/m 6,9 C 0,4 C 32,2 km/h (5 Bft)
01.10.2022 05:54 8,4 C 7,8 C 90 % 1007,6 hPa 0,0 l/m 19,3 km/h (3 Bft) S-SO 157 0 min 0,0 UV-I 0 W/m 6,9 C 1,5 C 27,4 km/h (4 Bft)
01.10.2022 05:55 8,4 C 7,8 C 90 % 1007,6 hPa 0,2 l/m 25,7 km/h (4 Bft) S 180 0 min 0,0 UV-I 0 W/m 6,9 C -0,5 C 43,5 km/h (6 Bft)
01.10.2022 05:56 8,4 C 7,8 C 90 % 1007,5 hPa 0,0 l/m 24,1 km/h (4 Bft) S-SO 157 0 min 0,0 UV-I 0 W/m 6,9 C -0,1 C 33,8 km/h (5 Bft)
01.10.2022 05:57 8,4 C 7,8 C 90 % 1007,7 hPa 0,0 l/m 27,4 km/h (4 Bft) S-SO 157 0 min 0,0 UV-I 0 W/m 6,9 C -1,0 C 45,1 km/h (6 Bft)
01.10.2022 05:58 8,4 C 7,8 C 90 % 1007,6 hPa 0,2 l/m 16,1 km/h (3 Bft) S 180 0 min 0,0 UV-I 0 W/m 6,9 C 2,7 C 24,1 km/h (4 Bft)
01.10.2022 05:59 8,4 C 7,8 C 90 % 1007,6 hPa 0,0 l/m 24,1 km/h (4 Bft) S 180 0 min 0,0 UV-I 0 W/m 6,9 C -0,1 C 41,8 km/h (6 Bft)
01.10.2022 06:00 8,4 C 7,8 C 90 % 1007,6 hPa 0,0 l/m 22,5 km/h (4 Bft) S 180 0 min 0,0 UV-I 0 W/m 6,9 C 0,4 C 30,6 km/h (5 Bft)
01.10.2022 06:01 8,5 C 7,8 C 90 % 1007,6 hPa 0,0 l/m 22,5 km/h (4 Bft) S-SO 157 0 min 0,0 UV-I 0 W/m 7,0 C 0,5 C 33,8 km/h (5 Bft)
01.10.2022 06:02 8,5 C 7,8 C 90 % 1007,5 hPa 0,0 l/m 22,5 km/h (4 Bft) S 180 0 min 0,0 UV-I 0 W/m 7,0 C 0,5 C 35,4 km/h (5 Bft)
01.10.2022 06:03 8,6 C 7,8 C 90 % 1007,5 hPa 0,2 l/m 17,7 km/h (3 Bft) S-SO 157 0 min 0,0 UV-I 0 W/m 7,1 C 2,3 C 24,1 km/h (4 Bft)
01.10.2022 06:04 8,5 C 7,8 C 90 % 1007,5 hPa 0,0 l/m 19,3 km/h (3 Bft) S-SO 157 0 min 0,0 UV-I 0 W/m 7,0 C 1,6 C 32,2 km/h (5 Bft)
01.10.2022 06:05 8,5 C 7,8 C 90 % 1007,4 hPa 0,0 l/m 19,3 km/h (3 Bft) S 180 0 min 0,0 UV-I 0 W/m 7,0 C 1,6 C 32,2 km/h (5 Bft)
01.10.2022 06:06 8,5 C 7,8 C 90 % 1007,4 hPa 0,0 l/m 20,9 km/h (4 Bft) S-SO 157 0 min 0,0 UV-I 0 W/m 7,0 C 1,0 C 40,2 km/h (6 Bft)
01.10.2022 06:07 8,5 C 7,8 C 90 % 1007,4 hPa 0,2 l/m 19,3 km/h (3 Bft) S-SO 157 0 min 0,0 UV-I 0 W/m 7,0 C 1,6 C 32,2 km/h (5 Bft)
01.10.2022 06:08 8,5 C 7,8 C 90 % 1007,6 hPa 0,0 l/m 17,7 km/h (3 Bft) S 180 0 min 0,0 UV-I 0 W/m 7,0 C 2,2 C 24,1 km/h (4 Bft)
01.10.2022 06:09 8,6 C 7,8 C 90 % 1007,5 hPa 0,0 l/m 17,7 km/h (3 Bft) S-SW 202 0 min 0,0 UV-I 0 W/m 7,1 C 2,3 C 22,5 km/h (4 Bft)
01.10.2022 06:10 8,5 C 7,8 C 90 % 1007,5 hPa 0,0 l/m 16,1 km/h (3 Bft) S 180 0 min 0,0 UV-I 0 W/m 7,0 C 2,8 C 27,4 km/h (4 Bft)
01.10.2022 06:11 8,5 C 7,8 C 90 % 1007,5 hPa 0,0 l/m 16,1 km/h (3 Bft) S 180 0 min 0,0 UV-I 0 W/m 7,0 C 2,8 C 20,9 km/h (4 Bft)
01.10.2022 06:12 8,5 C 7,8 C 90 % 1007,5 hPa 0,0 l/m 20,9 km/h (4 Bft) S-SO 157 0 min 0,0 UV-I 0 W/m 7,0 C 1,0 C 32,2 km/h (5 Bft)
01.10.2022 06:13 8,6 C 7,8 C 90 % 1007,4 hPa 0,0 l/m 17,7 km/h (3 Bft) S-SW 202 0 min 0,0 UV-I 0 W/m 7,1 C 2,3 C 27,4 km/h (4 Bft)
01.10.2022 06:14 8,6 C 7,8 C 90 % 1007,4 hPa 0,0 l/m 22,5 km/h (4 Bft) S 180 0 min 0,0 UV-I 0 W/m 7,1 C 0,7 C 38,6 km/h (5 Bft)
01.10.2022 06:15 8,5 C 7,8 C 90 % 1007,3 hPa 0,0 l/m 22,5 km/h (4 Bft) S-SO 157 0 min 0,0 UV-I 0 W/m 7,0 C 0,5 C 37,0 km/h (5 Bft)
01.10.2022 06:16 8,5 C 7,8 C 90 % 1007,3 hPa 0,2 l/m 27,4 km/h (4 Bft) S-SO 157 0 min 0,0 UV-I 0 W/m 7,0 C -0,8 C 37,0 km/h (5 Bft)
01.10.2022 06:17 8,5 C 7,8 C 90 % 1007,2 hPa 0,0 l/m 24,1 km/h (4 Bft) S-SO 157 0 min 0,0 UV-I 0 W/m 7,0 C 0,1 C 37,0 km/h (5 Bft)
01.10.2022 06:18 8,6 C 7,8 C 90 % 1007,2 hPa 0,0 l/m 19,3 km/h (3 Bft) S 180 0 min 0,0 UV-I 0 W/m 7,1 C 1,7 C 25,7 km/h (4 Bft)
01.10.2022 06:19 8,6 C 7,8 C 90 % 1007,3 hPa 0,0 l/m 20,9 km/h (4 Bft) S-SW 202 0 min 0,0 UV-I 0 W/m 7,1 C 1,2 C 27,4 km/h (4 Bft)
01.10.2022 06:20 8,5 C 7,8 C 90 % 1007,3 hPa 0,0 l/m 22,5 km/h (4 Bft) S 180 0 min 0,0 UV-I 0 W/m 7,0 C 0,5 C 32,2 km/h (5 Bft)
01.10.2022 06:21 8,6 C 7,8 C 90 % 1007,2 hPa 0,0 l/m 19,3 km/h (3 Bft) S-SW 202 0 min 0,0 UV-I 0 W/m 7,1 C 1,7 C 27,4 km/h (4 Bft)
01.10.2022 06:22 8,6 C 7,8 C 90 % 1007,3 hPa 0,2 l/m 20,9 km/h (4 Bft) S 180 0 min 0,0 UV-I 0 W/m 7,1 C 1,2 C 32,2 km/h (5 Bft)
01.10.2022 06:23 8,5 C 7,8 C 90 % 1007,1 hPa 0,0 l/m 27,4 km/h (4 Bft) S 180 0 min 0,0 UV-I 0 W/m 7,0 C -0,8 C 37,0 km/h (5 Bft)
01.10.2022 06:24 8,6 C 7,8 C 90 % 1007,1 hPa 0,0 l/m 25,7 km/h (4 Bft) S 180 0 min 0,0 UV-I 0 W/m 7,1 C -0,3 C 43,5 km/h (6 Bft)
01.10.2022 06:25 8,6 C 7,8 C 90 % 1007,1 hPa 0,0 l/m 20,9 km/h (4 Bft) S 180 0 min 0,0 UV-I 0 W/m 7,1 C 1,2 C 37,0 km/h (5 Bft)
01.10.2022 06:26 8,6 C 7,8 C 90 % 1007,0 hPa 0,0 l/m 19,3 km/h (3 Bft) S 180 0 min 0,0 UV-I 0 W/m 7,1 C 1,7 C 27,4 km/h (4 Bft)
01.10.2022 06:27 8,6 C 7,8 C 90 % 1006,9 hPa 0,0 l/m 27,4 km/h (4 Bft) S-SW 202 0 min 0,0 UV-I 0 W/m 7,1 C -0,7 C 41,8 km/h (6 Bft)
01.10.2022 06:28 8,6 C 7,8 C 90 % 1007,0 hPa 0,0 l/m 17,7 km/h (3 Bft) S 180 0 min 0,0 UV-I 0 W/m 7,1 C 2,3 C 27,4 km/h (4 Bft)
01.10.2022 06:29 8,6 C 7,8 C 90 % 1007,0 hPa 0,0 l/m 20,9 km/h (4 Bft) S 180 0 min 0,0 UV-I 0 W/m 7,1 C 1,2 C 37,0 km/h (5 Bft)
01.10.2022 06:30 8,6 C 7,8 C 90 % 1007,0 hPa 0,0 l/m 22,5 km/h (4 Bft) S 180 0 min 0,0 UV-I 0 W/m 7,1 C 0,7 C 33,8 km/h (5 Bft)
01.10.2022 06:31 8,6 C 7,8 C 90 % 1007,1 hPa 0,0 l/m 20,9 km/h (4 Bft) S 180 0 min 0,0 UV-I 0 W/m 7,1 C 1,2 C 41,8 km/h (6 Bft)
01.10.2022 06:32 8,6 C 7,8 C 90 % 1007,1 hPa 0,0 l/m 17,7 km/h (3 Bft) S-SO 157 0 min 0,0 UV-I 0 W/m 7,1 C 2,3 C 25,7 km/h (4 Bft)
01.10.2022 06:33 8,7 C 7,8 C 90 % 1007,0 hPa 0,0 l/m 20,9 km/h (4 Bft) S-SO 157 0 min 0,0 UV-I 0 W/m 7,2 C 1,3 C 29,0 km/h (5 Bft)
01.10.2022 06:34 8,6 C 7,8 C 90 % 1007,0 hPa 0,0 l/m 16,1 km/h (3 Bft) S 180 0 min 0,0 UV-I 0 W/m 7,1 C 3,0 C 32,2 km/h (5 Bft)
01.10.2022 06:35 8,6 C 7,8 C 90 % 1007,1 hPa 0,0 l/m 14,5 km/h (3 Bft) S 180 0 min 0,0 UV-I 0 W/m 7,1 C 3,7 C 25,7 km/h (4 Bft)
01.10.2022 06:36 8,7 C 7,8 C 90 % 1007,1 hPa 0,0 l/m 16,1 km/h (3 Bft) S-SW 202 0 min 0,0 UV-I 0 W/m 7,2 C 3,1 C 22,5 km/h (4 Bft)
01.10.2022 06:37 8,7 C 7,8 C 90 % 1007,1 hPa 0,0 l/m 25,7 km/h (4 Bft) S 180 0 min 0,0 UV-I 0 W/m 7,2 C -0,1 C 37,0 km/h (5 Bft)
01.10.2022 06:38 8,6 C 7,8 C 90 % 1007,2 hPa 0,0 l/m 24,1 km/h (4 Bft) S-SO 157 0 min 0,0 UV-I 0 W/m 7,1 C 0,2 C 30,6 km/h (5 Bft)
01.10.2022 06:39 8,7 C 7,8 C 90 % 1007,1 hPa 0,0 l/m 19,3 km/h (3 Bft) S 180 0 min 0,0 UV-I 0 W/m 7,2 C 1,9 C 27,4 km/h (4 Bft)
01.10.2022 06:40 8,7 C 7,8 C 90 % 1007,1 hPa 0,0 l/m 19,3 km/h (3 Bft) S 180 0 min 0,0 UV-I 0 W/m 7,2 C 1,9 C 25,7 km/h (4 Bft)
01.10.2022 06:41 8,7 C 7,8 C 90 % 1007,1 hPa 0,0 l/m 19,3 km/h (3 Bft) S-SO 157 0 min 0,0 UV-I 0 W/m 7,2 C 1,9 C 25,7 km/h (4 Bft)
01.10.2022 06:42 8,7 C 7,8 C 90 % 1007,1 hPa 0,0 l/m 25,7 km/h (4 Bft) S 180 0 min 0,0 UV-I 0 W/m 7,2 C -0,1 C 32,2 km/h (5 Bft)
01.10.2022 06:43 8,7 C 7,8 C 90 % 1007,1 hPa 0,2 l/m 19,3 km/h (3 Bft) S 180 0 min 0,0 UV-I 0 W/m 7,2 C 1,9 C 27,4 km/h (4 Bft)
01.10.2022 06:44 8,7 C 7,8 C 90 % 1007,0 hPa 0,0 l/m 17,7 km/h (3 Bft) S 180 0 min 0,0 UV-I 0 W/m 7,2 C 2,4 C 22,5 km/h (4 Bft)
01.10.2022 06:45 8,7 C 7,8 C 90 % 1007,0 hPa 0,0 l/m 20,9 km/h (4 Bft) S 180 0 min 0,0 UV-I 0 W/m 7,2 C 1,3 C 30,6 km/h (5 Bft)
01.10.2022 06:46 8,7 C 7,8 C 90 % 1007,0 hPa 0,0 l/m 17,7 km/h (3 Bft) S 180 0 min 0,0 UV-I 0 W/m 7,2 C 2,4 C 29,0 km/h (5 Bft)
01.10.2022 06:47 8,7 C 7,8 C 90 % 1006,9 hPa 0,0 l/m 17,7 km/h (3 Bft) S-SO 157 0 min 0,0 UV-I 0 W/m 7,2 C 2,4 C 24,1 km/h (4 Bft)
01.10.2022 06:48 8,7 C 7,8 C 90 % 1006,9 hPa 0,0 l/m 16,1 km/h (3 Bft) S 180 0 min 0,0 UV-I 0 W/m 7,2 C 3,1 C 24,1 km/h (4 Bft)
01.10.2022 06:49 8,7 C 7,8 C 90 % 1007,0 hPa 0,0 l/m 20,9 km/h (4 Bft) S 180 0 min 0,0 UV-I 0 W/m 7,2 C 1,3 C 33,8 km/h (5 Bft)
01.10.2022 06:50 8,7 C 7,8 C 90 % 1007,0 hPa 0,0 l/m 17,7 km/h (3 Bft) S-SO 157 0 min 0,0 UV-I 0 W/m 7,2 C 2,4 C 27,4 km/h (4 Bft)
01.10.2022 06:51 8,7 C 7,8 C 90 % 1007,0 hPa 0,0 l/m 17,7 km/h (3 Bft) S-SW 202 0 min 0,0 UV-I 0 W/m 7,2 C 2,4 C 24,1 km/h (4 Bft)
01.10.2022 06:52 8,8 C 7,8 C 90 % 1007,0 hPa 0,0 l/m 17,7 km/h (3 Bft) S 180 0 min 0,0 UV-I 0 W/m 7,3 C 2,6 C 27,4 km/h (4 Bft)
01.10.2022 06:53 8,7 C 7,8 C 90 % 1007,0 hPa 0,0 l/m 14,5 km/h (3 Bft) S 180 0 min 0,0 UV-I 0 W/m 7,2 C 3,8 C 22,5 km/h (4 Bft)
01.10.2022 06:54 8,7 C 7,8 C 90 % 1007,0 hPa 0,0 l/m 19,3 km/h (3 Bft) S 180 0 min 0,0 UV-I 0 W/m 7,2 C 1,9 C 27,4 km/h (4 Bft)
01.10.2022 06:55 8,7 C 7,8 C 90 % 1007,1 hPa 0,0 l/m 22,5 km/h (4 Bft) S 180 0 min 0,0 UV-I 0 W/m 7,2 C 0,8 C 38,6 km/h (5 Bft)
01.10.2022 06:56 8,7 C 7,8 C 90 % 1007,1 hPa 0,0 l/m 19,3 km/h (3 Bft) S 180 0 min 0,0 UV-I 0 W/m 7,2 C 1,9 C 25,7 km/h (4 Bft)
01.10.2022 06:57 8,8 C 7,8 C 90 % 1007,0 hPa 0,0 l/m 19,3 km/h (3 Bft) S-SO 157 0 min 0,0 UV-I 0 W/m 7,3 C 2,0 C 30,6 km/h (5 Bft)
01.10.2022 06:58 8,7 C 7,8 C 90 % 1007,1 hPa 0,0 l/m 17,7 km/h (3 Bft) S-SO 157 0 min 0,0 UV-I 0 W/m 7,2 C 2,4 C 25,7 km/h (4 Bft)
01.10.2022 06:59 8,7 C 7,8 C 90 % 1007,0 hPa 0,0 l/m 17,7 km/h (3 Bft) S 180 0 min 0,0 UV-I 0 W/m 7,2 C 2,4 C 24,1 km/h (4 Bft)
01.10.2022 07:00 8,8 C 7,8 C 90 % 1007,1 hPa 0,2 l/m 19,3 km/h (3 Bft) S 180 0 min 0,0 UV-I 0 W/m 7,3 C 2,0 C 33,8 km/h (5 Bft)
01.10.2022 07:01 8,8 C 7,8 C 90 % 1007,0 hPa 0,0 l/m 19,3 km/h (3 Bft) S 180 0 min 0,0 UV-I 0 W/m 7,3 C 2,0 C 32,2 km/h (5 Bft)
01.10.2022 07:02 8,7 C 7,8 C 91 % 1006,9 hPa 0,0 l/m 19,3 km/h (3 Bft) S-SO 157 0 min 0,0 UV-I 0 W/m 7,3 C 1,9 C 32,2 km/h (5 Bft)
01.10.2022 07:03 8,7 C 7,8 C 90 % 1006,9 hPa 0,0 l/m 19,3 km/h (3 Bft) S-SO 157 0 min 0,0 UV-I 0 W/m 7,2 C 1,9 C 37,0 km/h (5 Bft)
01.10.2022 07:04 8,7 C 7,8 C 91 % 1007,0 hPa 0,0 l/m 19,3 km/h (3 Bft) S 180 0 min 0,0 UV-I 0 W/m 7,3 C 1,9 C 29,0 km/h (5 Bft)
01.10.2022 07:05 8,7 C 7,8 C 91 % 1006,9 hPa 0,0 l/m 12,9 km/h (3 Bft) S-SO 157 0 min 0,0 UV-I 0 W/m 7,3 C 4,6 C 17,7 km/h (3 Bft)
01.10.2022 07:06 8,8 C 7,8 C 91 % 1006,9 hPa 0,0 l/m 19,3 km/h (3 Bft) S 180 0 min 0,0 UV-I 0 W/m 7,4 C 2,0 C 32,2 km/h (5 Bft)
01.10.2022 07:07 8,8 C 7,8 C 91 % 1006,9 hPa 0,0 l/m 16,1 km/h (3 Bft) S 180 0 min 0,0 UV-I 0 W/m 7,4 C 3,2 C 24,1 km/h (4 Bft)
01.10.2022 07:08 8,8 C 7,8 C 91 % 1007,0 hPa 0,0 l/m 19,3 km/h (3 Bft) S 180 0 min 0,0 UV-I 0 W/m 7,4 C 2,0 C 27,4 km/h (4 Bft)
01.10.2022 07:09 8,8 C 7,8 C 91 % 1007,0 hPa 0,0 l/m 11,3 km/h (2 Bft) S 180 0 min 0,0 UV-I 0 W/m 7,4 C 5,5 C 19,3 km/h (3 Bft)
01.10.2022 07:10 8,8 C 7,8 C 91 % 1006,9 hPa 0,0 l/m 16,1 km/h (3 Bft) S-SW 202 0 min 0,0 UV-I 0 W/m 7,4 C 3,2 C 24,1 km/h (4 Bft)
01.10.2022 07:11 8,7 C 7,8 C 90 % 1006,9 hPa 0,0 l/m 16,1 km/h (3 Bft) S 180 0 min 0,0 UV-I 0 W/m 7,2 C 3,1 C 22,5 km/h (4 Bft)
01.10.2022 07:12 8,8 C 7,8 C 91 % 1006,9 hPa 0,0 l/m 14,5 km/h (3 Bft) S 180 0 min 0,0 UV-I 0 W/m 7,4 C 3,9 C 24,1 km/h (4 Bft)
01.10.2022 07:13 8,7 C 7,8 C 90 % 1006,9 hPa 0,0 l/m 14,5 km/h (3 Bft) S 180 0 min 0,0 UV-I 0 W/m 7,2 C 3,8 C 17,7 km/h (3 Bft)
01.10.2022 07:14 8,8 C 7,8 C 91 % 1006,9 hPa 0,0 l/m 22,5 km/h (4 Bft) S 180 0 min 0,0 UV-I 0 W/m 7,4 C 0,9 C 29,0 km/h (5 Bft)
01.10.2022 07:15 8,7 C 7,8 C 91 % 1006,9 hPa 0,0 l/m 19,3 km/h (3 Bft) S 180 0 min 0,0 UV-I 0 W/m 7,3 C 1,9 C 27,4 km/h (4 Bft)
01.10.2022 07:16 8,8 C 7,8 C 91 % 1006,9 hPa 0,2 l/m 22,5 km/h (4 Bft) S 180 0 min 0,0 UV-I 0 W/m 7,4 C 0,9 C 37,0 km/h (5 Bft)
01.10.2022 07:17 8,7 C 7,8 C 91 % 1006,8 hPa 0,0 l/m 25,7 km/h (4 Bft) S 180 0 min 0,0 UV-I 0 W/m 7,3 C -0,1 C 38,6 km/h (5 Bft)
01.10.2022 07:18 8,8 C 8,3 C 91 % 1006,9 hPa 0,0 l/m 17,7 km/h (3 Bft) S 180 0 min 0,0 UV-I 0 W/m 7,4 C 2,6 C 25,7 km/h (4 Bft)
01.10.2022 07:19 8,8 C 8,3 C 91 % 1006,9 hPa 0,0 l/m 17,7 km/h (3 Bft) S 180 0 min 0,0 UV-I 0 W/m 7,4 C 2,6 C 30,6 km/h (5 Bft)
01.10.2022 07:20 8,8 C 8,3 C 91 % 1006,9 hPa 0,0 l/m 16,1 km/h (3 Bft) S 180 0 min 0,0 UV-I 0 W/m 7,4 C 3,2 C 22,5 km/h (4 Bft)
01.10.2022 07:21 8,8 C 8,3 C 91 % 1007,0 hPa 0,0 l/m 14,5 km/h (3 Bft) S 180 0 min 0,0 UV-I 0 W/m 7,4 C 3,9 C 25,7 km/h (4 Bft)
01.10.2022 07:22 8,8 C 8,3 C 91 % 1006,9 hPa 0,0 l/m 22,5 km/h (4 Bft) S 180 0 min 0,0 UV-I 0 W/m 7,4 C 0,9 C 40,2 km/h (6 Bft)
01.10.2022 07:23 8,8 C 8,3 C 91 % 1007,0 hPa 0,0 l/m 20,9 km/h (4 Bft) S 180 0 min 0,0 UV-I 0 W/m 7,4 C 1,4 C 33,8 km/h (5 Bft)
01.10.2022 07:24 8,8 C 8,3 C 91 % 1006,8 hPa 0,0 l/m 19,3 km/h (3 Bft) S 180 0 min 0,0 UV-I 0 W/m 7,4 C 2,0 C 25,7 km/h (4 Bft)
01.10.2022 07:25 8,8 C 8,3 C 91 % 1006,8 hPa 0,0 l/m 19,3 km/h (3 Bft) S 180 0 min 0,0 UV-I 0 W/m 7,4 C 2,0 C 27,4 km/h (4 Bft)
01.10.2022 07:26 8,8 C 8,3 C 91 % 1006,9 hPa 0,0 l/m 19,3 km/h (3 Bft) S 180 0 min 0,0 UV-I 0 W/m 7,4 C 2,0 C 32,2 km/h (5 Bft)
01.10.2022 07:27 8,8 C 8,3 C 91 % 1006,9 hPa 0,0 l/m 22,5 km/h (4 Bft) S 180 0 min 0,0 UV-I 0 W/m 7,4 C 0,9 C 33,8 km/h (5 Bft)
01.10.2022 07:28 8,9 C 8,3 C 91 % 1006,8 hPa 0,0 l/m 19,3 km/h (3 Bft) S 180 0 min 0,0 UV-I 0 W/m 7,5 C 2,1 C 29,0 km/h (5 Bft)
01.10.2022 07:29 8,9 C 8,3 C 91 % 1006,9 hPa 0,0 l/m 19,3 km/h (3 Bft) S 180 0 min 0,0 UV-I 0 W/m 7,5 C 2,1 C 33,8 km/h (5 Bft)
01.10.2022 07:30 8,9 C 8,3 C 91 % 1007,0 hPa 0,0 l/m 16,1 km/h (3 Bft) S-SW 202 0 min 0,0 UV-I 0 W/m 7,5 C 3,3 C 20,9 km/h (4 Bft)
01.10.2022 07:31 8,9 C 8,3 C 91 % 1007,0 hPa 0,0 l/m 16,1 km/h (3 Bft) S-SW 202 0 min 0,0 UV-I 0 W/m 7,5 C 3,3 C 19,3 km/h (3 Bft)
01.10.2022 07:32 8,9 C 8,3 C 91 % 1006,9 hPa 0,0 l/m 22,5 km/h (4 Bft) S-SW 202 0 min 0,0 UV-I 0 W/m 7,5 C 1,1 C 30,6 km/h (5 Bft)
01.10.2022 07:33 8,9 C 8,3 C 91 % 1007,0 hPa 0,0 l/m 19,3 km/h (3 Bft) S 180 0 min 0,0 UV-I 0 W/m 7,5 C 2,1 C 25,7 km/h (4 Bft)
01.10.2022 07:34 8,9 C 8,3 C 91 % 1006,8 hPa 0,0 l/m 20,9 km/h (4 Bft) S 180 0 min 0,0 UV-I 0 W/m 7,5 C 1,6 C 25,7 km/h (4 Bft)
01.10.2022 07:35 8,9 C 8,3 C 91 % 1007,1 hPa 0,0 l/m 22,5 km/h (4 Bft) S 180 0 min 0,0 UV-I 0 W/m 7,5 C 1,1 C 32,2 km/h (5 Bft)
01.10.2022 07:36 8,9 C 8,3 C 91 % 1007,1 hPa 0,0 l/m 16,1 km/h (3 Bft) S-SO 157 0 min 0,0 UV-I 0 W/m 7,5 C 3,3 C 25,7 km/h (4 Bft)
01.10.2022 07:37 8,9 C 8,3 C 91 % 1007,1 hPa 0,0 l/m 12,9 km/h (3 Bft) S 180 0 min 0,0 UV-I 0 W/m 7,5 C 4,8 C 30,6 km/h (5 Bft)
01.10.2022 07:38 8,9 C 8,3 C 91 % 1007,1 hPa 0,0 l/m 14,5 km/h (3 Bft) S 180 0 min 0,0 UV-I 0 W/m 7,5 C 4,0 C 24,1 km/h (4 Bft)
01.10.2022 07:39 8,9 C 8,3 C 91 % 1007,2 hPa 0,0 l/m 16,1 km/h (3 Bft) S 180 0 min 0,0 UV-I 0 W/m 7,5 C 3,3 C 25,7 km/h (4 Bft)
01.10.2022 07:40 8,9 C 8,3 C 91 % 1007,1 hPa 0,0 l/m 19,3 km/h (3 Bft) S 180 0 min 0,0 UV-I 0 W/m 7,5 C 2,1 C 29,0 km/h (5 Bft)
01.10.2022 07:41 8,9 C 8,3 C 91 % 1007,1 hPa 0,0 l/m 20,9 km/h (4 Bft) S 180 0 min 0,0 UV-I 0 W/m 7,5 C 1,6 C 27,4 km/h (4 Bft)
01.10.2022 07:42 8,9 C 8,3 C 91 % 1007,1 hPa 0,2 l/m 19,3 km/h (3 Bft) S 180 0 min 0,0 UV-I 0 W/m 7,5 C 2,1 C 24,1 km/h (4 Bft)
01.10.2022 07:43 8,9 C 8,3 C 91 % 1007,3 hPa 0,0 l/m 20,9 km/h (4 Bft) S-SO 157 0 min 0,0 UV-I 0 W/m 7,5 C 1,6 C 29,0 km/h (5 Bft)
01.10.2022 07:44 8,9 C 8,3 C 91 % 1007,1 hPa 0,0 l/m 24,1 km/h (4 Bft) S 180 0 min 0,0 UV-I 0 W/m 7,5 C 0,6 C 38,6 km/h (5 Bft)
01.10.2022 07:45 9,0 C 8,3 C 91 % 1007,3 hPa 0,0 l/m 22,5 km/h (4 Bft) S 180 0 min 0,0 UV-I 0 W/m 7,6 C 1,2 C 32,2 km/h (5 Bft)
01.10.2022 07:46 9,0 C 8,3 C 91 % 1007,2 hPa 0,0 l/m 14,5 km/h (3 Bft) S 180 0 min 0,0 UV-I 0 W/m 7,6 C 4,1 C 19,3 km/h (3 Bft)
01.10.2022 07:47 8,9 C 8,3 C 91 % 1007,3 hPa 0,0 l/m 16,1 km/h (3 Bft) S-SW 202 0 min 0,0 UV-I 0 W/m 7,5 C 3,3 C 25,7 km/h (4 Bft)
01.10.2022 07:48 9,0 C 8,3 C 91 % 1007,2 hPa 0,0 l/m 17,7 km/h (3 Bft) S 180 0 min 0,0 UV-I 0 W/m 7,6 C 2,8 C 27,4 km/h (4 Bft)
01.10.2022 07:49 9,0 C 8,3 C 91 % 1007,2 hPa 0,0 l/m 14,5 km/h (3 Bft) S 180 0 min 0,0 UV-I 0 W/m 7,6 C 4,1 C 22,5 km/h (4 Bft)
01.10.2022 07:50 9,0 C 8,3 C 91 % 1007,2 hPa 0,0 l/m 14,5 km/h (3 Bft) S-SW 202 0 min 0,0 UV-I 0 W/m 7,6 C 4,1 C 19,3 km/h (3 Bft)
01.10.2022 07:51 8,9 C 8,3 C 91 % 1007,1 hPa 0,0 l/m 17,7 km/h (3 Bft) S-SW 202 0 min 0,0 UV-I 0 W/m 7,5 C 2,7 C 27,4 km/h (4 Bft)
01.10.2022 07:52 9,0 C 8,3 C 91 % 1007,3 hPa 0,0 l/m 20,9 km/h (4 Bft) S 180 0 min 0,0 UV-I 0 W/m 7,6 C 1,7 C 30,6 km/h (5 Bft)
01.10.2022 07:53 9,0 C 8,3 C 91 % 1007,2 hPa 0,0 l/m 22,5 km/h (4 Bft) S 180 0 min 0,0 UV-I 0 W/m 7,6 C 1,2 C 32,2 km/h (5 Bft)
01.10.2022 07:54 9,0 C 8,3 C 91 % 1007,2 hPa 0,2 l/m 20,9 km/h (4 Bft) S 180 0 min 0,0 UV-I 0 W/m 7,6 C 1,7 C 33,8 km/h (5 Bft)
01.10.2022 07:55 9,0 C 8,3 C 91 % 1007,2 hPa 0,0 l/m 19,3 km/h (3 Bft) S 180 0 min 0,0 UV-I 0 W/m 7,6 C 2,2 C 29,0 km/h (5 Bft)
01.10.2022 07:56 9,0 C 8,3 C 91 % 1007,3 hPa 0,0 l/m 19,3 km/h (3 Bft) S-SW 202 0 min 0,0 UV-I 0 W/m 7,6 C 2,2 C 25,7 km/h (4 Bft)
01.10.2022 07:57 9,0 C 8,3 C 91 % 1007,2 hPa 0,0 l/m 20,9 km/h (4 Bft) S 180 0 min 0,0 UV-I 0 W/m 7,6 C 1,7 C 37,0 km/h (5 Bft)
01.10.2022 07:58 9,0 C 8,3 C 91 % 1007,1 hPa 0,0 l/m 25,7 km/h (4 Bft) S 180 0 min 0,0 UV-I 0 W/m 7,6 C 0,3 C 43,5 km/h (6 Bft)
01.10.2022 07:59 9,0 C 8,3 C 91 % 1007,2 hPa 0,0 l/m 16,1 km/h (3 Bft) S-SO 157 0 min 0,0 UV-I 0 W/m 7,6 C 3,5 C 24,1 km/h (4 Bft)
01.10.2022 08:00 9,0 C 8,3 C 91 % 1007,3 hPa 0,0 l/m 11,3 km/h (2 Bft) S 180 0 min 0,0 UV-I 0 W/m 7,6 C 5,7 C 16,1 km/h (3 Bft)
01.10.2022 08:01 9,0 C 8,3 C 91 % 1007,3 hPa 0,0 l/m 17,7 km/h (3 Bft) S 180 0 min 0,0 UV-I 0 W/m 7,6 C 2,8 C 25,7 km/h (4 Bft)
01.10.2022 08:02 9,1 C 8,3 C 91 % 1007,3 hPa 0,0 l/m 20,9 km/h (4 Bft) S 180 0 min 0,0 UV-I 0 W/m 7,7 C 1,8 C 32,2 km/h (5 Bft)
01.10.2022 08:03 9,1 C 8,3 C 91 % 1007,1 hPa 0,0 l/m 16,1 km/h (3 Bft) S 180 0 min 0,0 UV-I 0 W/m 7,7 C 3,6 C 24,1 km/h (4 Bft)
01.10.2022 08:04 9,1 C 8,3 C 91 % 1007,1 hPa 0,0 l/m 17,7 km/h (3 Bft) S 180 0 min 0,0 UV-I 0 W/m 7,7 C 2,9 C 22,5 km/h (4 Bft)
01.10.2022 08:05 9,1 C 8,3 C 91 % 1007,1 hPa 0,0 l/m 20,9 km/h (4 Bft) S 180 0 min 0,0 UV-I 0 W/m 7,7 C 1,8 C 33,8 km/h (5 Bft)
01.10.2022 08:06 9,1 C 8,3 C 91 % 1007,1 hPa 0,0 l/m 17,7 km/h (3 Bft) S 180 0 min 0,0 UV-I 0 W/m 7,7 C 2,9 C 24,1 km/h (4 Bft)
01.10.2022 08:07 9,1 C 8,3 C 91 % 1007,1 hPa 0,0 l/m 16,1 km/h (3 Bft) S-SO 157 0 min 0,0 UV-I 0 W/m 7,7 C 3,6 C 24,1 km/h (4 Bft)
01.10.2022 08:08 9,1 C 8,3 C 91 % 1007,1 hPa 0,0 l/m 19,3 km/h (3 Bft) S 180 0 min 0,0 UV-I 0 W/m 7,7 C 2,4 C 29,0 km/h (5 Bft)
01.10.2022 08:09 9,1 C 8,3 C 91 % 1007,1 hPa 0,0 l/m 16,1 km/h (3 Bft) S-SO 157 0 min 0,0 UV-I 0 W/m 7,7 C 3,6 C 22,5 km/h (4 Bft)
01.10.2022 08:10 9,1 C 8,3 C 91 % 1007,0 hPa 0,0 l/m 25,7 km/h (4 Bft) S 180 0 min 0,0 UV-I 5 W/m 7,7 C 0,4 C 40,2 km/h (6 Bft)
01.10.2022 08:11 9,1 C 8,3 C 91 % 1007,1 hPa 0,0 l/m 16,1 km/h (3 Bft) S 180 0 min 0,0 UV-I 5 W/m 7,7 C 3,6 C 24,1 km/h (4 Bft)
01.10.2022 08:12 9,1 C 8,3 C 91 % 1007,0 hPa 0,0 l/m 16,1 km/h (3 Bft) S 180 0 min 0,0 UV-I 0 W/m 7,7 C 3,6 C 27,4 km/h (4 Bft)
01.10.2022 08:13 9,1 C 8,3 C 91 % 1007,1 hPa 0,0 l/m 12,9 km/h (3 Bft) S-SO 157 0 min 0,0 UV-I 0 W/m 7,7 C 5,0 C 16,1 km/h (3 Bft)
01.10.2022 08:14 9,1 C 8,3 C 91 % 1007,1 hPa 0,0 l/m 14,5 km/h (3 Bft) S 180 0 min 0,0 UV-I 0 W/m 7,7 C 4,3 C 25,7 km/h (4 Bft)
01.10.2022 08:15 9,1 C 8,3 C 91 % 1007,1 hPa 0,0 l/m 25,7 km/h (4 Bft) S 180 0 min 0,0 UV-I 0 W/m 7,7 C 0,4 C 35,4 km/h (5 Bft)
01.10.2022 08:16 9,1 C 8,3 C 91 % 1007,1 hPa 0,0 l/m 16,1 km/h (3 Bft) S 180 0 min 0,0 UV-I 5 W/m 7,7 C 3,6 C 24,1 km/h (4 Bft)
01.10.2022 08:17 9,2 C 8,3 C 91 % 1007,1 hPa 0,0 l/m 20,9 km/h (4 Bft) S 180 0 min 0,0 UV-I 5 W/m 7,8 C 2,0 C 30,6 km/h (5 Bft)
01.10.2022 08:18 9,2 C 8,3 C 91 % 1007,1 hPa 0,0 l/m 17,7 km/h (3 Bft) S 180 0 min 0,0 UV-I 5 W/m 7,8 C 3,1 C 25,7 km/h (4 Bft)
01.10.2022 08:19 9,2 C 8,3 C 91 % 1007,1 hPa 0,0 l/m 19,3 km/h (3 Bft) S 180 0 min 0,0 UV-I 5 W/m 7,8 C 2,5 C 29,0 km/h (5 Bft)
01.10.2022 08:20 9,2 C 8,3 C 91 % 1007,1 hPa 0,0 l/m 19,3 km/h (3 Bft) S-SW 202 0 min 0,0 UV-I 7 W/m 7,8 C 2,5 C 32,2 km/h (5 Bft)
01.10.2022 08:21 9,2 C 8,3 C 91 % 1007,1 hPa 0,0 l/m 20,9 km/h (4 Bft) S 180 0 min 0,0 UV-I 7 W/m 7,8 C 2,0 C 27,4 km/h (4 Bft)
01.10.2022 08:22 9,2 C 8,3 C 91 % 1007,1 hPa 0,0 l/m 25,7 km/h (4 Bft) S 180 0 min 0,0 UV-I 7 W/m 7,8 C 0,6 C 32,2 km/h (5 Bft)
01.10.2022 08:23 9,2 C 8,3 C 91 % 1006,9 hPa 0,0 l/m 16,1 km/h (3 Bft) S-SO 157 0 min 0,0 UV-I 9 W/m 7,8 C 3,7 C 24,1 km/h (4 Bft)
01.10.2022 08:24 9,2 C 8,3 C 91 % 1006,9 hPa 0,0 l/m 14,5 km/h (3 Bft) S 180 0 min 0,0 UV-I 7 W/m 7,8 C 4,4 C 22,5 km/h (4 Bft)
01.10.2022 08:25 9,2 C 8,3 C 91 % 1006,9 hPa 0,0 l/m 14,5 km/h (3 Bft) S 180 0 min 0,0 UV-I 7 W/m 7,8 C 4,4 C 19,3 km/h (3 Bft)
01.10.2022 08:26 9,2 C 8,3 C 91 % 1007,0 hPa 0,0 l/m 16,1 km/h (3 Bft) S 180 0 min 0,0 UV-I 9 W/m 7,8 C 3,7 C 24,1 km/h (4 Bft)
01.10.2022 08:27 9,2 C 8,3 C 91 % 1007,0 hPa 0,0 l/m 20,9 km/h (4 Bft) S 180 0 min 0,0 UV-I 9 W/m 7,8 C 2,0 C 32,2 km/h (5 Bft)
01.10.2022 08:28 9,2 C 8,3 C 91 % 1007,1 hPa 0,0 l/m 12,9 km/h (3 Bft) S 180 0 min 0,0 UV-I 8 W/m 7,8 C 5,1 C 20,9 km/h (4 Bft)
01.10.2022 08:29 9,2 C 8,3 C 91 % 1007,1 hPa 0,0 l/m 17,7 km/h (3 Bft) S 180 0 min 0,0 UV-I 7 W/m 7,8 C 3,1 C 25,7 km/h (4 Bft)
01.10.2022 08:30 9,3 C 8,3 C 91 % 1007,1 hPa 0,2 l/m 17,7 km/h (3 Bft) S-SW 202 0 min 0,0 UV-I 9 W/m 7,9 C 3,2 C 24,1 km/h (4 Bft)
01.10.2022 08:31 9,3 C 8,3 C 91 % 1007,2 hPa 0,0 l/m 17,7 km/h (3 Bft) S-SW 202 0 min 0,0 UV-I 9 W/m 7,9 C 3,2 C 24,1 km/h (4 Bft)
01.10.2022 08:32 9,3 C 8,3 C 91 % 1007,1 hPa 0,0 l/m 17,7 km/h (3 Bft) S-SO 157 0 min 0,0 UV-I 9 W/m 7,9 C 3,2 C 24,1 km/h (4 Bft)
01.10.2022 08:33 9,3 C 8,3 C 91 % 1007,2 hPa 0,0 l/m 16,1 km/h (3 Bft) S 180 0 min 0,0 UV-I 7 W/m 7,9 C 3,8 C 25,7 km/h (4 Bft)
01.10.2022 08:34 9,3 C 8,3 C 91 % 1007,2 hPa 0,0 l/m 22,5 km/h (4 Bft) S 180 0 min 0,0 UV-I 6 W/m 7,9 C 1,6 C 30,6 km/h (5 Bft)
01.10.2022 08:35 9,3 C 8,3 C 91 % 1007,1 hPa 0,0 l/m 16,1 km/h (3 Bft) S 180 0 min 0,0 UV-I 5 W/m 7,9 C 3,8 C 29,0 km/h (5 Bft)
01.10.2022 08:36 9,3 C 8,3 C 91 % 1007,1 hPa 0,0 l/m 12,9 km/h (3 Bft) S 180 0 min 0,0 UV-I 5 W/m 7,9 C 5,3 C 17,7 km/h (3 Bft)
01.10.2022 08:37 9,2 C 8,3 C 91 % 1007,1 hPa 0,0 l/m 17,7 km/h (3 Bft) S 180 0 min 0,0 UV-I 5 W/m 7,8 C 3,1 C 22,5 km/h (4 Bft)
01.10.2022 08:38 9,2 C 8,3 C 91 % 1007,0 hPa 0,0 l/m 20,9 km/h (4 Bft) S 180 0 min 0,0 UV-I 5 W/m 7,8 C 2,0 C 29,0 km/h (5 Bft)
01.10.2022 08:39 9,3 C 8,3 C 91 % 1007,1 hPa 0,0 l/m 17,7 km/h (3 Bft) S-SO 157 0 min 0,0 UV-I 7 W/m 7,9 C 3,2 C 24,1 km/h (4 Bft)
01.10.2022 08:40 9,3 C 8,9 C 91 % 1007,1 hPa 0,2 l/m 16,1 km/h (3 Bft) S-SO 157 0 min 0,0 UV-I 12 W/m 7,9 C 3,8 C 27,4 km/h (4 Bft)
01.10.2022 08:41 9,3 C 8,9 C 91 % 1007,1 hPa 0,0 l/m 12,9 km/h (3 Bft) S 180 0 min 0,0 UV-I 14 W/m 7,9 C 5,3 C 19,3 km/h (3 Bft)
01.10.2022 08:42 9,3 C 8,9 C 91 % 1007,2 hPa 0,0 l/m 25,7 km/h (4 Bft) S 180 0 min 0,0 UV-I 16 W/m 7,9 C 0,7 C 37,0 km/h (5 Bft)
01.10.2022 08:43 9,3 C 8,9 C 91 % 1007,2 hPa 0,0 l/m 22,5 km/h (4 Bft) S 180 0 min 0,0 UV-I 16 W/m 7,9 C 1,6 C 30,6 km/h (5 Bft)
01.10.2022 08:44 9,3 C 8,9 C 91 % 1007,1 hPa 0,0 l/m 20,9 km/h (4 Bft) S 180 0 min 0,0 UV-I 14 W/m 7,9 C 2,1 C 38,6 km/h (5 Bft)
01.10.2022 08:45 9,3 C 8,9 C 91 % 1007,2 hPa 0,0 l/m 17,7 km/h (3 Bft) S 180 0 min 0,0 UV-I 12 W/m 7,9 C 3,2 C 27,4 km/h (4 Bft)
01.10.2022 08:46 9,3 C 8,9 C 91 % 1007,2 hPa 0,0 l/m 14,5 km/h (3 Bft) S 180 0 min 0,0 UV-I 11 W/m 7,9 C 4,5 C 24,1 km/h (4 Bft)
01.10.2022 08:47 9,3 C 8,9 C 91 % 1007,1 hPa 0,0 l/m 12,9 km/h (3 Bft) S 180 0 min 0,0 UV-I 11 W/m 7,9 C 5,3 C 17,7 km/h (3 Bft)
01.10.2022 08:48 9,3 C 8,9 C 91 % 1007,1 hPa 0,0 l/m 17,7 km/h (3 Bft) S 180 0 min 0,0 UV-I 14 W/m 7,9 C 3,2 C 29,0 km/h (5 Bft)
01.10.2022 08:49 9,3 C 8,9 C 91 % 1007,0 hPa 0,0 l/m 22,5 km/h (4 Bft) S 180 0 min 0,0 UV-I 14 W/m 7,9 C 1,6 C 32,2 km/h (5 Bft)
01.10.2022 08:50 9,3 C 8,9 C 91 % 1007,2 hPa 0,0 l/m 20,9 km/h (4 Bft) S-SW 202 0 min 0,0 UV-I 18 W/m 7,9 C 2,1 C 37,0 km/h (5 Bft)
01.10.2022 08:51 9,3 C 8,9 C 91 % 1007,1 hPa 0,0 l/m 16,1 km/h (3 Bft) S 180 0 min 0,0 UV-I 18 W/m 7,9 C 3,8 C 25,7 km/h (4 Bft)
01.10.2022 08:52 9,3 C 8,9 C 91 % 1007,0 hPa 0,0 l/m 17,7 km/h (3 Bft) S 180 0 min 0,0 UV-I 20 W/m 7,9 C 3,2 C 22,5 km/h (4 Bft)
01.10.2022 08:53 9,3 C 8,9 C 91 % 1007,1 hPa 0,0 l/m 17,7 km/h (3 Bft) S-SW 202 0 min 0,0 UV-I 21 W/m 7,9 C 3,2 C 24,1 km/h (4 Bft)
01.10.2022 08:54 9,3 C 8,9 C 91 % 1007,1 hPa 0,0 l/m 17,7 km/h (3 Bft) S 180 0 min 0,0 UV-I 19 W/m 7,9 C 3,2 C 20,9 km/h (4 Bft)
01.10.2022 08:55 9,3 C 8,9 C 91 % 1007,1 hPa 0,0 l/m 17,7 km/h (3 Bft) S 180 0 min 0,0 UV-I 19 W/m 7,9 C 3,2 C 27,4 km/h (4 Bft)
01.10.2022 08:56 9,3 C 8,9 C 91 % 1007,1 hPa 0,0 l/m 16,1 km/h (3 Bft) S 180 0 min 0,0 UV-I 16 W/m 7,9 C 3,8 C 20,9 km/h (4 Bft)
01.10.2022 08:57 9,3 C 8,9 C 91 % 1007,0 hPa 0,0 l/m 16,1 km/h (3 Bft) S 180 0 min 0,0 UV-I 15 W/m 7,9 C 3,8 C 20,9 km/h (4 Bft)
01.10.2022 08:58 9,3 C 8,9 C 91 % 1007,1 hPa 0,0 l/m 14,5 km/h (3 Bft) S 180 0 min 0,0 UV-I 16 W/m 7,9 C 4,5 C 20,9 km/h (4 Bft)
01.10.2022 08:59 9,3 C 8,9 C 91 % 1007,1 hPa 0,0 l/m 17,7 km/h (3 Bft) S 180 0 min 0,0 UV-I 18 W/m 7,9 C 3,2 C 20,9 km/h (4 Bft)
01.10.2022 09:00 9,3 C 8,9 C 91 % 1007,1 hPa 0,0 l/m 12,9 km/h (3 Bft) S-SW 202 0 min 0,0 UV-I 19 W/m 7,9 C 5,3 C 19,3 km/h (3 Bft)
01.10.2022 09:01 9,3 C 8,9 C 91 % 1007,1 hPa 0,0 l/m 11,3 km/h (2 Bft) S 180 0 min 0,0 UV-I 19 W/m 7,9 C 6,1 C 17,7 km/h (3 Bft)
01.10.2022 09:02 9,3 C 8,9 C 91 % 1007,2 hPa 0,0 l/m 12,9 km/h (3 Bft) S 180 0 min 0,0 UV-I 19 W/m 7,9 C 5,3 C 19,3 km/h (3 Bft)
01.10.2022 09:03 9,3 C 8,9 C 91 % 1007,1 hPa 0,0 l/m 12,9 km/h (3 Bft) S 180 0 min 0,0 UV-I 21 W/m 7,9 C 5,3 C 16,1 km/h (3 Bft)
01.10.2022 09:04 9,3 C 8,9 C 91 % 1007,1 hPa 0,0 l/m 14,5 km/h (3 Bft) S 180 0 min 0,0 UV-I 28 W/m 7,9 C 4,5 C 25,7 km/h (4 Bft)
01.10.2022 09:05 9,3 C 8,9 C 91 % 1007,1 hPa 0,0 l/m 17,7 km/h (3 Bft) S 180 0 min 0,0 UV-I 30 W/m 7,9 C 3,2 C 24,1 km/h (4 Bft)
01.10.2022 09:06 9,3 C 8,9 C 91 % 1007,0 hPa 0,0 l/m 14,5 km/h (3 Bft) S 180 0 min 0,0 UV-I 30 W/m 7,9 C 4,5 C 24,1 km/h (4 Bft)
01.10.2022 09:07 9,3 C 8,9 C 92 % 1007,0 hPa 0,0 l/m 16,1 km/h (3 Bft) S 180 0 min 0,0 UV-I 30 W/m 8,1 C 3,8 C 22,5 km/h (4 Bft)
01.10.2022 09:08 9,3 C 8,9 C 92 % 1007,0 hPa 0,0 l/m 17,7 km/h (3 Bft) S 180 0 min 0,0 UV-I 32 W/m 8,1 C 3,2 C 32,2 km/h (5 Bft)
01.10.2022 09:09 9,3 C 8,9 C 92 % 1006,9 hPa 0,0 l/m 16,1 km/h (3 Bft) S 180 0 min 0,0 UV-I 32 W/m 8,1 C 3,8 C 20,9 km/h (4 Bft)
01.10.2022 09:10 9,3 C 8,9 C 92 % 1006,9 hPa 0,0 l/m 17,7 km/h (3 Bft) S 180 0 min 0,0 UV-I 32 W/m 8,1 C 3,2 C 37,0 km/h (5 Bft)
01.10.2022 09:11 9,4 C 8,9 C 92 % 1006,9 hPa 0,0 l/m 17,7 km/h (3 Bft) S 180 0 min 0,0 UV-I 33 W/m 8,2 C 3,3 C 24,1 km/h (4 Bft)
01.10.2022 09:12 9,4 C 8,9 C 92 % 1006,9 hPa 0,0 l/m 17,7 km/h (3 Bft) S 180 0 min 0,0 UV-I 33 W/m 8,2 C 3,3 C 22,5 km/h (4 Bft)
01.10.2022 09:13 9,4 C 8,9 C 92 % 1007,0 hPa 0,0 l/m 16,1 km/h (3 Bft) S 180 0 min 0,0 UV-I 33 W/m 8,2 C 3,9 C 22,5 km/h (4 Bft)
01.10.2022 09:14 9,4 C 8,9 C 92 % 1006,9 hPa 0,0 l/m 19,3 km/h (3 Bft) S 180 0 min 0,0 UV-I 37 W/m 8,2 C 2,7 C 27,4 km/h (4 Bft)
01.10.2022 09:15 9,4 C 8,9 C 92 % 1006,9 hPa 0,0 l/m 19,3 km/h (3 Bft) S-SO 157 0 min 0,0 UV-I 34 W/m 8,2 C 2,7 C 30,6 km/h (5 Bft)
01.10.2022 09:16 9,4 C 8,9 C 92 % 1006,9 hPa 0,0 l/m 17,7 km/h (3 Bft) S 180 0 min 0,0 UV-I 32 W/m 8,2 C 3,3 C 32,2 km/h (5 Bft)
01.10.2022 09:17 9,4 C 8,9 C 92 % 1006,9 hPa 0,0 l/m 16,1 km/h (3 Bft) S 180 0 min 0,0 UV-I 37 W/m 8,2 C 3,9 C 22,5 km/h (4 Bft)
01.10.2022 09:18 9,5 C 8,9 C 92 % 1006,9 hPa 0,2 l/m 19,3 km/h (3 Bft) S-SW 202 0 min 0,0 UV-I 37 W/m 8,3 C 2,9 C 27,4 km/h (4 Bft)
01.10.2022 09:19 9,5 C 8,9 C 92 % 1006,8 hPa 0,0 l/m 14,5 km/h (3 Bft) S 180 0 min 0,0 UV-I 33 W/m 8,3 C 4,7 C 20,9 km/h (4 Bft)
01.10.2022 09:20 9,5 C 8,9 C 92 % 1006,9 hPa 0,0 l/m 19,3 km/h (3 Bft) S 180 0 min 0,0 UV-I 28 W/m 8,3 C 2,9 C 32,2 km/h (5 Bft)
01.10.2022 09:21 9,6 C 8,9 C 92 % 1006,9 hPa 0,0 l/m 17,7 km/h (3 Bft) S 180 0 min 0,0 UV-I 26 W/m 8,4 C 3,6 C 25,7 km/h (4 Bft)
01.10.2022 09:22 9,6 C 8,9 C 92 % 1006,9 hPa 0,0 l/m 16,1 km/h (3 Bft) S 180 0 min 0,0 UV-I 30 W/m 8,4 C 4,2 C 29,0 km/h (5 Bft)
01.10.2022 09:23 9,6 C 8,9 C 92 % 1007,0 hPa 0,0 l/m 25,7 km/h (4 Bft) S 180 0 min 0,0 UV-I 25 W/m 8,4 C 1,1 C 40,2 km/h (6 Bft)
01.10.2022 09:27 9,6 C 8,9 C 92 % 1006,9 hPa 0,0 l/m 14,9 km/h (3 Bft) SW 215 0 min 0,0 UV-I 23 W/m 8,4 C 4,7 C 24,1 km/h (4 Bft)
01.10.2022 09:30 9,6 C 8,9 C 92 % 1006,9 hPa 0,0 l/m 18,2 km/h (3 Bft) S-SW 211 0 min 0,0 UV-I 26 W/m 8,4 C 3,4 C 32,2 km/h (5 Bft)
01.10.2022 09:33 9,6 C 8,9 C 92 % 1006,9 hPa 0,0 l/m 16,6 km/h (3 Bft) S 186 0 min 0,0 UV-I 31 W/m 8,4 C 4,0 C 25,7 km/h (4 Bft)
01.10.2022 09:36 9,6 C 8,9 C 92 % 1007,0 hPa 0,2 l/m 15,2 km/h (3 Bft) SW 218 0 min 0,0 UV-I 38 W/m 8,4 C 4,6 C 25,7 km/h (4 Bft)
01.10.2022 09:39 9,7 C 8,9 C 92 % 1007,1 hPa 0,0 l/m 16,2 km/h (3 Bft) S-SW 206 0 min 0,0 UV-I 34 W/m 8,5 C 4,3 C 35,4 km/h (5 Bft)
01.10.2022 09:42 9,7 C 8,9 C 92 % 1007,0 hPa 0,2 l/m 15,9 km/h (3 Bft) S-SO 163 0 min 0,0 UV-I 26 W/m 8,5 C 4,4 C 25,7 km/h (4 Bft)
01.10.2022 09:45 9,7 C 9,4 C 92 % 1007,0 hPa 0,0 l/m 16,0 km/h (3 Bft) SW 221 0 min 0,0 UV-I 25 W/m 8,5 C 4,4 C 33,8 km/h (5 Bft)
01.10.2022 09:48 9,7 C 9,4 C 92 % 1007,1 hPa 0,0 l/m 16,8 km/h (3 Bft) S 189 0 min 0,0 UV-I 25 W/m 8,5 C 4,0 C 30,6 km/h (5 Bft)
01.10.2022 09:51 9,7 C 9,4 C 92 % 1007,2 hPa 0,0 l/m 13,9 km/h (3 Bft) S-SW 194 0 min 0,0 UV-I 20 W/m 8,5 C 5,3 C 22,5 km/h (4 Bft)
01.10.2022 09:54 9,8 C 9,4 C 92 % 1007,2 hPa 0,0 l/m 14,0 km/h (3 Bft) S-SW 203 0 min 0,0 UV-I 24 W/m 8,6 C 5,3 C 19,3 km/h (3 Bft)
01.10.2022 09:57 9,8 C 9,4 C 92 % 1007,1 hPa 0,0 l/m 15,2 km/h (3 Bft) S 190 0 min 0,0 UV-I 28 W/m 8,6 C 4,8 C 37,0 km/h (5 Bft)
01.10.2022 10:00 9,8 C 9,4 C 92 % 1007,2 hPa 0,0 l/m 19,2 km/h (3 Bft) SW 218 0 min 0,0 UV-I 35 W/m 8,6 C 3,3 C 32,2 km/h (5 Bft)
01.10.2022 10:03 9,8 C 9,4 C 92 % 1007,3 hPa 0,0 l/m 18,5 km/h (3 Bft) S 176 0 min 0,0 UV-I 40 W/m 8,6 C 3,5 C 27,4 km/h (4 Bft)
01.10.2022 10:06 9,9 C 9,4 C 92 % 1007,4 hPa 0,0 l/m 14,8 km/h (3 Bft) S-SW 201 0 min 0,0 UV-I 36 W/m 8,7 C 5,1 C 20,9 km/h (4 Bft)
01.10.2022 10:09 9,9 C 9,4 C 92 % 1007,4 hPa 0,0 l/m 17,0 km/h (3 Bft) S-SW 202 0 min 0,0 UV-I 35 W/m 8,7 C 4,2 C 25,7 km/h (4 Bft)
01.10.2022 10:12 9,9 C 9,4 C 92 % 1007,3 hPa 0,0 l/m 15,7 km/h (3 Bft) S 171 0 min 0,0 UV-I 49 W/m 8,7 C 4,7 C 22,5 km/h (4 Bft)
01.10.2022 10:15 9,9 C 9,4 C 92 % 1007,3 hPa 0,0 l/m 14,9 km/h (3 Bft) S 185 0 min 0,0 UV-I 47 W/m 8,7 C 5,1 C 25,7 km/h (4 Bft)
01.10.2022 10:18 10,0 C 9,4 C 92 % 1007,2 hPa 0,0 l/m 14,2 km/h (3 Bft) S-SW 194 0 min 0,0 UV-I 41 W/m 8,8 C 5,5 C 25,7 km/h (4 Bft)
01.10.2022 10:21 10,1 C 9,4 C 92 % 1007,4 hPa 0,0 l/m 16,3 km/h (3 Bft) S-SW 199 0 min 0,0 UV-I 55 W/m 8,9 C 4,7 C 32,2 km/h (5 Bft)
01.10.2022 10:24 10,1 C 10,0 C 92 % 1007,3 hPa 0,0 l/m 15,0 km/h (3 Bft) S-SW 209 0 min 0,4 UV-I 77 W/m 8,9 C 5,3 C 27,4 km/h (4 Bft)
01.10.2022 10:27 10,1 C 10,0 C 92 % 1007,5 hPa 0,0 l/m 16,7 km/h (3 Bft) S-SO 150 0 min 0,2 UV-I 56 W/m 8,9 C 4,6 C 29,0 km/h (5 Bft)
01.10.2022 10:30 10,2 C 10,0 C 92 % 1007,5 hPa 0,0 l/m 15,8 km/h (3 Bft) S-SO 167 0 min 0,1 UV-I 55 W/m 9,0 C 5,1 C 29,0 km/h (5 Bft)
01.10.2022 10:33 10,3 C 10,0 C 92 % 1007,4 hPa 0,0 l/m 19,2 km/h (3 Bft) S-SW 200 0 min 0,2 UV-I 73 W/m 9,1 C 3,9 C 32,2 km/h (5 Bft)
01.10.2022 10:36 10,3 C 10,0 C 92 % 1007,4 hPa 0,0 l/m 18,9 km/h (3 Bft) S 177 0 min 0,0 UV-I 58 W/m 9,1 C 4,0 C 30,6 km/h (5 Bft)
01.10.2022 10:39 10,3 C 10,0 C 92 % 1007,5 hPa 0,0 l/m 17,0 km/h (3 Bft) S-SW 209 0 min 0,0 UV-I 38 W/m 9,1 C 4,7 C 25,7 km/h (4 Bft)
01.10.2022 10:42 10,3 C 10,0 C 92 % 1007,7 hPa 0,0 l/m 16,8 km/h (3 Bft) S-SW 205 0 min 0,0 UV-I 57 W/m 9,1 C 4,8 C 27,4 km/h (4 Bft)
01.10.2022 10:45 10,4 C 10,0 C 92 % 1007,6 hPa 0,2 l/m 21,2 km/h (4 Bft) S 188 0 min 0,1 UV-I 58 W/m 9,2 C 3,4 C 37,0 km/h (5 Bft)
01.10.2022 10:48 10,4 C 10,0 C 92 % 1007,7 hPa 0,0 l/m 19,7 km/h (3 Bft) SW 221 0 min 0,0 UV-I 61 W/m 9,2 C 3,9 C 32,2 km/h (5 Bft)
01.10.2022 10:51 10,5 C 10,0 C 92 % 1007,6 hPa 0,0 l/m 15,4 km/h (3 Bft) S 190 0 min 0,4 UV-I 74 W/m 9,3 C 5,6 C 24,1 km/h (4 Bft)
01.10.2022 10:54 10,6 C 10,0 C 92 % 1007,7 hPa 0,0 l/m 19,4 km/h (3 Bft) S-SW 205 0 min 0,0 UV-I 60 W/m 9,4 C 4,3 C 29,0 km/h (5 Bft)
01.10.2022 10:57 10,6 C 10,0 C 92 % 1007,8 hPa 0,0 l/m 15,1 km/h (3 Bft) S-SW 213 0 min 0,0 UV-I 51 W/m 9,4 C 5,8 C 25,7 km/h (4 Bft)
01.10.2022 11:00 10,6 C 10,6 C 92 % 1007,8 hPa 0,2 l/m 17,2 km/h (3 Bft) W-SW 242 0 min 0,6 UV-I 87 W/m 9,4 C 5,0 C 25,7 km/h (4 Bft)
01.10.2022 11:03 10,7 C 10,6 C 93 % 1007,8 hPa 0,0 l/m 17,5 km/h (3 Bft) SW 233 0 min 0,6 UV-I 104 W/m 9,6 C 5,0 C 24,1 km/h (4 Bft)
01.10.2022 11:06 10,7 C 10,6 C 92 % 1007,9 hPa 0,0 l/m 16,9 km/h (3 Bft) S 189 0 min 0,4 UV-I 75 W/m 9,5 C 5,2 C 29,0 km/h (5 Bft)
01.10.2022 11:09 10,8 C 10,6 C 92 % 1007,9 hPa 0,0 l/m 17,0 km/h (3 Bft) SW 215 0 min 0,5 UV-I 92 W/m 9,6 C 5,3 C 27,4 km/h (4 Bft)
01.10.2022 11:12 10,8 C 10,6 C 92 % 1008,0 hPa 0,0 l/m 15,2 km/h (3 Bft) S-SO 166 0 min 0,0 UV-I 53 W/m 9,6 C 6,0 C 25,7 km/h (4 Bft)
01.10.2022 11:15 10,8 C 10,6 C 92 % 1008,0 hPa 0,0 l/m 18,9 km/h (3 Bft) S-SW 202 0 min 0,2 UV-I 78 W/m 9,6 C 4,7 C 38,6 km/h (5 Bft)
01.10.2022 11:18 10,9 C 11,1 C 92 % 1008,1 hPa 0,0 l/m 17,0 km/h (3 Bft) S-SW 212 0 min 0,8 UV-I 136 W/m 9,7 C 5,5 C 25,7 km/h (4 Bft)
01.10.2022 11:21 11,0 C 11,1 C 92 % 1008,2 hPa 0,0 l/m 14,7 km/h (3 Bft) S-SW 209 0 min 0,8 UV-I 119 W/m 9,8 C 6,5 C 22,5 km/h (4 Bft)
01.10.2022 11:24 11,1 C 11,1 C 92 % 1008,1 hPa 0,0 l/m 15,5 km/h (3 Bft) S-SW 206 0 min 0,7 UV-I 100 W/m 9,8 C 6,3 C 25,7 km/h (4 Bft)
01.10.2022 11:27 11,2 C 11,1 C 92 % 1008,2 hPa 0,0 l/m 15,3 km/h (3 Bft) S-SW 196 0 min 1,0 UV-I 157 W/m 9,9 C 6,5 C 27,4 km/h (4 Bft)
01.10.2022 11:30 11,2 C 11,1 C 92 % 1008,2 hPa 0,0 l/m 15,3 km/h (3 Bft) SW 217 0 min 0,9 UV-I 164 W/m 9,9 C 6,5 C 24,1 km/h (4 Bft)
01.10.2022 11:33 11,3 C 11,7 C 92 % 1008,2 hPa 0,0 l/m 10,3 km/h (2 Bft) S-SW 195 0 min 0,9 UV-I 153 W/m 10,0 C 8,9 C 19,3 km/h (3 Bft)
01.10.2022 11:36 11,5 C 12,2 C 92 % 1008,3 hPa 0,0 l/m 11,6 km/h (2 Bft) S 182 0 min 1,3 UV-I 197 W/m 10,2 C 8,4 C 17,7 km/h (3 Bft)
01.10.2022 11:39 11,7 C 12,2 C 92 % 1008,2 hPa 0,0 l/m 13,3 km/h (3 Bft) SW 224 0 min 1,2 UV-I 202 W/m 10,4 C 7,9 C 22,5 km/h (4 Bft)
01.10.2022 11:42 11,7 C 12,2 C 92 % 1008,4 hPa 0,0 l/m 11,5 km/h (2 Bft) SW 231 0 min 1,1 UV-I 179 W/m 10,4 C 8,7 C 19,3 km/h (3 Bft)
01.10.2022 11:45 11,9 C 12,2 C 92 % 1008,4 hPa 0,0 l/m 12,5 km/h (3 Bft) SW 231 0 min 1,2 UV-I 202 W/m 10,6 C 8,5 C 22,5 km/h (4 Bft)
01.10.2022 11:48 11,9 C 12,8 C 92 % 1008,4 hPa 0,0 l/m 12,5 km/h (3 Bft) S-SW 205 0 min 1,2 UV-I 240 W/m 10,6 C 8,5 C 20,9 km/h (4 Bft)
01.10.2022 11:51 12,1 C 12,8 C 91 % 1008,4 hPa 0,0 l/m 13,8 km/h (3 Bft) S-SW 194 0 min 1,0 UV-I 209 W/m 10,7 C 8,2 C 24,1 km/h (4 Bft)
01.10.2022 11:54 12,1 C 12,8 C 91 % 1008,3 hPa 0,0 l/m 12,6 km/h (3 Bft) SW 215 0 min 1,2 UV-I 201 W/m 10,7 C 8,7 C 30,6 km/h (5 Bft)
01.10.2022 11:57 12,1 C 12,2 C 90 % 1008,4 hPa 0,0 l/m 17,3 km/h (3 Bft) W-SW 246 0 min 1,3 UV-I 156 W/m 10,5 C 6,9 C 29,0 km/h (5 Bft)
01.10.2022 12:00 12,0 C 11,7 C 90 % 1008,5 hPa 0,0 l/m 16,7 km/h (3 Bft) S-SW 204 0 min 0,9 UV-I 87 W/m 10,4 C 6,9 C 30,6 km/h (5 Bft)
01.10.2022 12:03 11,9 C 11,7 C 90 % 1008,4 hPa 0,0 l/m 13,1 km/h (3 Bft) SW 225 0 min 0,9 UV-I 79 W/m 10,3 C 8,2 C 22,5 km/h (4 Bft)
01.10.2022 12:06 12,1 C 12,8 C 91 % 1008,4 hPa 0,0 l/m 11,6 km/h (2 Bft) W 262 0 min 1,0 UV-I 134 W/m 10,7 C 9,1 C 19,3 km/h (3 Bft)
01.10.2022 12:09 12,2 C 12,2 C 90 % 1008,5 hPa 0,0 l/m 11,1 km/h (2 Bft) SW 220 0 min 0,9 UV-I 100 W/m 10,6 C 9,5 C 19,3 km/h (3 Bft)
01.10.2022 12:12 12,2 C 12,2 C 90 % 1008,4 hPa 0,0 l/m 13,6 km/h (3 Bft) S-SW 197 0 min 1,0 UV-I 109 W/m 10,6 C 8,4 C 27,4 km/h (4 Bft)
01.10.2022 12:15 12,2 C 12,2 C 89 % 1008,5 hPa 0,0 l/m 12,0 km/h (2 Bft) SW 225 0 min 1,2 UV-I 145 W/m 10,4 C 9,0 C 22,5 km/h (4 Bft)
01.10.2022 12:18 12,3 C 12,2 C 89 % 1008,7 hPa 0,0 l/m 11,6 km/h (2 Bft) W-SW 244 0 min 1,2 UV-I 104 W/m 10,5 C 9,3 C 19,3 km/h (3 Bft)
01.10.2022 12:21 12,3 C 12,2 C 89 % 1008,5 hPa 0,2 l/m 16,9 km/h (3 Bft) SW 232 0 min 1,5 UV-I 162 W/m 10,5 C 7,2 C 32,2 km/h (5 Bft)
01.10.2022 12:24 12,4 C 12,8 C 88 % 1008,5 hPa 0,0 l/m 14,9 km/h (3 Bft) SW 225 0 min 1,7 UV-I 184 W/m 10,5 C 8,1 C 33,8 km/h (5 Bft)
01.10.2022 12:27 12,7 C 14,4 C 88 % 1008,7 hPa 0,0 l/m 13,6 km/h (3 Bft) S-SW 194 0 min 1,8 UV-I 250 W/m 10,8 C 8,9 C 29,0 km/h (5 Bft)
01.10.2022 12:30 12,9 C 13,3 C 87 % 1008,7 hPa 0,0 l/m 16,1 km/h (3 Bft) S-SW 209 0 min 1,6 UV-I 230 W/m 10,8 C 8,3 C 27,4 km/h (4 Bft)
01.10.2022 12:33 13,1 C 13,9 C 87 % 1008,6 hPa 0,0 l/m 14,1 km/h (3 Bft) W-SW 248 0 min 2,4 UV-I 285 W/m 11,0 C 9,2 C 25,7 km/h (4 Bft)
01.10.2022 12:36 13,4 C 16,7 C 86 % 1008,6 hPa 0,0 l/m 15,5 km/h (3 Bft) SW 229 3 min 2,8 UV-I 620 W/m 11,1 C 9,1 C 27,4 km/h (4 Bft)
01.10.2022 12:39 13,8 C 18,3 C 85 % 1008,6 hPa 0,0 l/m 12,7 km/h (3 Bft) S 190 3 min 3,2 UV-I 753 W/m 11,3 C 10,6 C 22,5 km/h (4 Bft)
01.10.2022 12:42 14,1 C 18,3 C 84 % 1008,6 hPa 0,0 l/m 16,6 km/h (3 Bft) SW 235 3 min 3,2 UV-I 733 W/m 11,4 C 9,6 C 27,4 km/h (4 Bft)
01.10.2022 12:45 14,2 C 18,3 C 83 % 1008,8 hPa 0,0 l/m 15,9 km/h (3 Bft) S 188 3 min 3,3 UV-I 746 W/m 11,4 C 9,9 C 25,7 km/h (4 Bft)
01.10.2022 12:48 14,3 C 18,9 C 83 % 1008,7 hPa 0,0 l/m 19,5 km/h (3 Bft) S 171 3 min 3,3 UV-I 778 W/m 11,5 C 9,0 C 27,4 km/h (4 Bft)
01.10.2022 12:51 14,2 C 18,3 C 82 % 1008,8 hPa 0,0 l/m 22,1 km/h (4 Bft) S-SW 200 3 min 3,2 UV-I 824 W/m 11,2 C 8,2 C 37,0 km/h (5 Bft)
01.10.2022 12:54 14,2 C 18,9 C 83 % 1008,9 hPa 0,0 l/m 15,4 km/h (3 Bft) SW 215 3 min 2,5 UV-I 571 W/m 11,4 C 10,1 C 33,8 km/h (5 Bft)
01.10.2022 12:57 14,2 C 18,9 C 82 % 1009,0 hPa 0,0 l/m 16,9 km/h (3 Bft) W-SW 257 3 min 3,2 UV-I 768 W/m 11,2 C 9,6 C 25,7 km/h (4 Bft)
01.10.2022 13:00 14,0 C 17,2 C 82 % 1008,9 hPa 0,0 l/m 12,4 km/h (3 Bft) W 263 3 min 1,7 UV-I 404 W/m 11,0 C 11,0 C 20,9 km/h (4 Bft)
01.10.2022 13:03 13,6 C 15,0 C 83 % 1009,1 hPa 0,0 l/m 11,9 km/h (2 Bft) W 281 0 min 1,0 UV-I 135 W/m 10,8 C 10,7 C 19,3 km/h (3 Bft)
01.10.2022 13:06 13,4 C 13,9 C 83 % 1009,0 hPa 0,0 l/m 9,0 km/h (2 Bft) S-SW 194 0 min 0,9 UV-I 114 W/m 10,6 C 11,9 C 19,3 km/h (3 Bft)
01.10.2022 13:09 13,3 C 13,9 C 84 % 1009,1 hPa 0,0 l/m 9,1 km/h (2 Bft) W 267 0 min 0,9 UV-I 85 W/m 10,7 C 11,7 C 17,7 km/h (3 Bft)
01.10.2022 13:12 13,1 C 13,3 C 84 % 1009,1 hPa 0,0 l/m 13,3 km/h (3 Bft) S-SW 201 0 min 1,2 UV-I 107 W/m 10,5 C 9,5 C 27,4 km/h (4 Bft)
01.10.2022 13:15 13,0 C 13,3 C 83 % 1009,2 hPa 0,0 l/m 16,4 km/h (3 Bft) W 271 0 min 1,2 UV-I 141 W/m 10,2 C 8,3 C 29,0 km/h (5 Bft)
01.10.2022 13:18 13,0 C 13,3 C 84 % 1009,3 hPa 0,0 l/m 10,7 km/h (2 Bft) W-SW 246 0 min 1,0 UV-I 156 W/m 10,4 C 10,6 C 22,5 km/h (4 Bft)
01.10.2022 13:21 13,0 C 13,3 C 85 % 1009,2 hPa 0,0 l/m 9,5 km/h (2 Bft) W 280 0 min 1,2 UV-I 229 W/m 10,5 C 11,2 C 16,1 km/h (3 Bft)
01.10.2022 13:24 13,2 C 14,4 C 85 % 1009,1 hPa 0,0 l/m 13,8 km/h (3 Bft) SW 220 0 min 1,2 UV-I 270 W/m 10,7 C 9,5 C 27,4 km/h (4 Bft)
01.10.2022 13:27 13,3 C 13,9 C 83 % 1009,3 hPa 0,0 l/m 16,7 km/h (3 Bft) W 271 0 min 0,6 UV-I 117 W/m 10,5 C 8,5 C 27,4 km/h (4 Bft)
01.10.2022 13:30 13,3 C 14,4 C 85 % 1009,2 hPa 0,0 l/m 9,9 km/h (2 Bft) W 265 0 min 1,2 UV-I 191 W/m 10,8 C 11,3 C 20,9 km/h (4 Bft)
01.10.2022 13:33 13,5 C 16,1 C 85 % 1009,2 hPa 0,0 l/m 14,3 km/h (3 Bft) W 281 0 min 1,6 UV-I 283 W/m 11,0 C 9,6 C 24,1 km/h (4 Bft)
01.10.2022 13:36 13,7 C 16,7 C 85 % 1009,2 hPa 0,0 l/m 12,3 km/h (3 Bft) SW 224 0 min 2,0 UV-I 244 W/m 11,2 C 10,6 C 20,9 km/h (4 Bft)
01.10.2022 13:39 13,8 C 16,1 C 84 % 1009,2 hPa 0,0 l/m 9,2 km/h (2 Bft) W-NW 290 0 min 1,4 UV-I 252 W/m 11,1 C 12,2 C 17,7 km/h (3 Bft)
01.10.2022 13:42 13,9 C 16,7 C 84 % 1009,2 hPa 0,0 l/m 9,0 km/h (2 Bft) S-SO 159 0 min 2,0 UV-I 248 W/m 11,2 C 12,4 C 16,1 km/h (3 Bft)
01.10.2022 13:45 14,1 C 16,1 C 81 % 1009,2 hPa 0,0 l/m 19,0 km/h (3 Bft) S-SW 194 0 min 1,5 UV-I 237 W/m 10,9 C 8,9 C 27,4 km/h (4 Bft)
01.10.2022 13:48 14,2 C 17,2 C 81 % 1009,3 hPa 0,0 l/m 12,7 km/h (3 Bft) SW 232 0 min 1,9 UV-I 207 W/m 11,0 C 11,1 C 24,1 km/h (4 Bft)
01.10.2022 13:51 14,4 C 18,3 C 80 % 1009,2 hPa 0,0 l/m 17,5 km/h (3 Bft) S-SW 200 0 min 2,2 UV-I 277 W/m 11,0 C 9,7 C 27,4 km/h (4 Bft)
01.10.2022 13:54 14,7 C 18,9 C 76 % 1009,1 hPa 0,0 l/m 22,4 km/h (4 Bft) SW 233 3 min 2,7 UV-I 706 W/m 10,5 C 8,8 C 43,5 km/h (6 Bft)
01.10.2022 13:57 14,5 C 16,7 C 75 % 1009,0 hPa 0,0 l/m 22,8 km/h (4 Bft) S-SW 193 0 min 1,6 UV-I 354 W/m 10,1 C 8,4 C 43,5 km/h (6 Bft)
01.10.2022 14:00 14,3 C 15,0 C 77 % 1009,4 hPa 0,0 l/m 19,7 km/h (3 Bft) SW 218 0 min 1,7 UV-I 187 W/m 10,3 C 8,9 C 33,8 km/h (5 Bft)
01.10.2022 14:03 14,3 C 16,1 C 78 % 1009,4 hPa 0,0 l/m 13,0 km/h (3 Bft) W-SW 256 0 min 2,1 UV-I 195 W/m 10,5 C 11,1 C 20,9 km/h (4 Bft)
01.10.2022 14:06 14,7 C 18,9 C 79 % 1009,3 hPa 0,0 l/m 13,3 km/h (3 Bft) SW 223 0 min 2,3 UV-I 223 W/m 11,1 C 11,4 C 32,2 km/h (5 Bft)
01.10.2022 14:09 15,1 C 21,1 C 78 % 1009,4 hPa 0,0 l/m 20,2 km/h (4 Bft) W-SW 248 0 min 2,8 UV-I 292 W/m 11,3 C 9,8 C 37,0 km/h (5 Bft)
01.10.2022 14:12 15,4 C 22,2 C 77 % 1009,2 hPa 0,0 l/m 17,1 km/h (3 Bft) SW 232 3 min 3,3 UV-I 505 W/m 11,4 C 11,0 C 29,0 km/h (5 Bft)
01.10.2022 14:15 15,5 C 20,6 C 75 % 1009,4 hPa 0,0 l/m 15,7 km/h (3 Bft) S-SW 199 3 min 2,6 UV-I 595 W/m 11,1 C 11,6 C 33,8 km/h (5 Bft)
01.10.2022 14:18 15,6 C 20,6 C 75 % 1009,3 hPa 0,0 l/m 12,7 km/h (3 Bft) W 271 0 min 2,6 UV-I 313 W/m 11,2 C 12,7 C 25,7 km/h (4 Bft)
01.10.2022 14:21 15,7 C 20,6 C 74 % 1009,3 hPa 0,0 l/m 13,5 km/h (3 Bft) S 180 0 min 2,3 UV-I 313 W/m 11,1 C 12,5 C 22,5 km/h (4 Bft)
01.10.2022 14:24 15,6 C 21,1 C 73 % 1009,3 hPa 0,0 l/m 16,4 km/h (3 Bft) S 176 3 min 2,7 UV-I 580 W/m 10,8 C 11,5 C 30,6 km/h (5 Bft)
01.10.2022 14:27 15,8 C 22,8 C 75 % 1009,5 hPa 0,0 l/m 16,3 km/h (3 Bft) S 189 3 min 2,8 UV-I 500 W/m 11,4 C 11,8 C 32,2 km/h (5 Bft)
01.10.2022 14:30 16,0 C 23,3 C 72 % 1009,5 hPa 0,0 l/m 13,7 km/h (3 Bft) W-SW 248 3 min 3,1 UV-I 667 W/m 11,0 C 12,8 C 30,6 km/h (5 Bft)
01.10.2022 14:33 15,9 C 23,3 C 73 % 1009,4 hPa 0,0 l/m 16,2 km/h (3 Bft) SW 236 3 min 3,2 UV-I 647 W/m 11,1 C 11,9 C 27,4 km/h (4 Bft)
01.10.2022 14:36 15,5 C 20,0 C 70 % 1009,4 hPa 0,0 l/m 19,9 km/h (4 Bft) W-SW 253 3 min 2,5 UV-I 400 W/m 10,1 C 10,4 C 35,4 km/h (5 Bft)
01.10.2022 14:39 15,2 C 18,3 C 72 % 1009,4 hPa 0,0 l/m 15,1 km/h (3 Bft) SW 223 0 min 1,9 UV-I 143 W/m 10,2 C 11,4 C 27,4 km/h (4 Bft)
01.10.2022 14:42 14,8 C 16,1 C 73 % 1009,5 hPa 0,0 l/m 16,6 km/h (3 Bft) W-NW 284 0 min 1,2 UV-I 87 W/m 10,0 C 10,4 C 27,4 km/h (4 Bft)
01.10.2022 14:45 14,5 C 15,0 C 74 % 1009,8 hPa 0,0 l/m 18,1 km/h (3 Bft) W-SW 247 0 min 1,2 UV-I 91 W/m 9,9 C 9,6 C 35,4 km/h (5 Bft)
01.10.2022 14:48 14,3 C 14,4 C 74 % 1009,7 hPa 0,0 l/m 13,2 km/h (3 Bft) S-SW 205 0 min 1,1 UV-I 69 W/m 9,7 C 11,0 C 24,1 km/h (4 Bft)
01.10.2022 14:51 14,2 C 15,0 C 75 % 1009,7 hPa 0,0 l/m 13,4 km/h (3 Bft) SW 229 0 min 1,3 UV-I 140 W/m 9,8 C 10,8 C 25,7 km/h (4 Bft)
01.10.2022 14:54 14,2 C 15,0 C 76 % 1009,8 hPa 0,0 l/m 12,4 km/h (3 Bft) SW 236 0 min 1,5 UV-I 165 W/m 10,0 C 11,2 C 27,4 km/h (4 Bft)
01.10.2022 14:57 14,2 C 14,4 C 76 % 1009,8 hPa 0,0 l/m 9,8 km/h (2 Bft) W 266 0 min 1,1 UV-I 79 W/m 10,0 C 12,3 C 24,1 km/h (4 Bft)
01.10.2022 15:00 14,1 C 14,4 C 77 % 1009,8 hPa 0,0 l/m 10,8 km/h (2 Bft) S-SW 204 0 min 1,1 UV-I 80 W/m 10,1 C 11,8 C 19,3 km/h (3 Bft)
01.10.2022 15:03 13,9 C 14,4 C 77 % 1009,8 hPa 0,0 l/m 10,9 km/h (2 Bft) SW 215 0 min 1,3 UV-I 99 W/m 9,9 C 11,5 C 24,1 km/h (4 Bft)
01.10.2022 15:06 14,1 C 15,6 C 77 % 1009,9 hPa 0,0 l/m 13,3 km/h (3 Bft) SW 230 0 min 1,5 UV-I 153 W/m 10,1 C 10,7 C 25,7 km/h (4 Bft)
01.10.2022 15:09 14,1 C 15,6 C 76 % 1010,0 hPa 0,0 l/m 14,6 km/h (3 Bft) SW 224 0 min 1,5 UV-I 142 W/m 9,9 C 10,2 C 27,4 km/h (4 Bft)
01.10.2022 15:12 14,1 C 15,0 C 75 % 1010,1 hPa 0,0 l/m 16,3 km/h (3 Bft) SW 216 0 min 1,4 UV-I 110 W/m 9,7 C 9,7 C 29,0 km/h (5 Bft)
01.10.2022 15:15 14,1 C 15,0 C 76 % 1010,0 hPa 0,0 l/m 15,2 km/h (3 Bft) SW 228 0 min 1,8 UV-I 155 W/m 9,9 C 10,0 C 25,7 km/h (4 Bft)
01.10.2022 15:18 14,7 C 19,4 C 76 % 1010,1 hPa 0,0 l/m 10,7 km/h (2 Bft) SW 225 0 min 2,0 UV-I 176 W/m 10,5 C 12,5 C 20,9 km/h (4 Bft)
01.10.2022 15:21 15,3 C 22,2 C 75 % 1010,0 hPa 0,0 l/m 13,0 km/h (3 Bft) S 176 3 min 2,6 UV-I 619 W/m 10,9 C 12,2 C 24,1 km/h (4 Bft)
01.10.2022 15:24 15,3 C 20,6 C 74 % 1010,1 hPa 0,0 l/m 18,2 km/h (3 Bft) S-SW 194 3 min 2,1 UV-I 420 W/m 10,7 C 10,6 C 30,6 km/h (5 Bft)
01.10.2022 15:27 15,4 C 20,6 C 74 % 1010,1 hPa 0,0 l/m 19,9 km/h (4 Bft) S-SW 198 3 min 2,0 UV-I 444 W/m 10,8 C 10,3 C 33,8 km/h (5 Bft)
01.10.2022 15:30 15,4 C 19,4 C 74 % 1010,2 hPa 0,0 l/m 13,8 km/h (3 Bft) S-SW 194 3 min 1,9 UV-I 462 W/m 10,8 C 12,1 C 24,1 km/h (4 Bft)
01.10.2022 15:33 15,2 C 17,8 C 75 % 1010,2 hPa 0,0 l/m 18,0 km/h (3 Bft) S-SW 203 0 min 1,6 UV-I 283 W/m 10,8 C 10,5 C 29,0 km/h (5 Bft)
01.10.2022 15:36 15,0 C 16,1 C 75 % 1010,2 hPa 0,0 l/m 14,0 km/h (3 Bft) W-SW 244 0 min 1,4 UV-I 203 W/m 10,6 C 11,5 C 25,7 km/h (4 Bft)
01.10.2022 15:39 14,7 C 15,6 C 75 % 1010,2 hPa 0,0 l/m 12,9 km/h (3 Bft) SW 223 0 min 1,1 UV-I 131 W/m 10,3 C 11,6 C 19,3 km/h (3 Bft)
01.10.2022 15:42 14,5 C 15,0 C 75 % 1010,2 hPa 0,0 l/m 12,7 km/h (3 Bft) W 264 0 min 1,1 UV-I 73 W/m 10,1 C 11,4 C 19,3 km/h (3 Bft)
01.10.2022 15:45 14,2 C 13,9 C 75 % 1010,3 hPa 0,0 l/m 15,0 km/h (3 Bft) W-SW 243 0 min 1,0 UV-I 70 W/m 9,8 C 10,2 C 27,4 km/h (4 Bft)
01.10.2022 15:48 14,1 C 14,4 C 75 % 1010,4 hPa 0,0 l/m 15,2 km/h (3 Bft) S-SW 213 0 min 1,3 UV-I 93 W/m 9,7 C 10,0 C 30,6 km/h (5 Bft)
01.10.2022 15:51 14,0 C 13,9 C 76 % 1010,4 hPa 0,0 l/m 9,5 km/h (2 Bft) SW 229 0 min 1,0 UV-I 78 W/m 9,8 C 12,3 C 17,7 km/h (3 Bft)
01.10.2022 15:54 13,9 C 13,9 C 77 % 1010,5 hPa 0,0 l/m 10,0 km/h (2 Bft) W-SW 238 0 min 0,9 UV-I 66 W/m 9,9 C 11,9 C 19,3 km/h (3 Bft)
01.10.2022 15:57 13,8 C 13,9 C 77 % 1010,4 hPa 0,0 l/m 8,1 km/h (2 Bft) SW 215 0 min 0,9 UV-I 89 W/m 9,8 C 12,8 C 14,5 km/h (3 Bft)
01.10.2022 16:00 13,8 C 13,9 C 77 % 1010,5 hPa 0,0 l/m 9,8 km/h (2 Bft) W-SW 249 0 min 1,0 UV-I 107 W/m 9,8 C 11,9 C 17,7 km/h (3 Bft)
01.10.2022 16:03 13,8 C 13,9 C 76 % 1010,5 hPa 0,0 l/m 12,4 km/h (3 Bft) W-SW 249 0 min 1,0 UV-I 99 W/m 9,6 C 10,7 C 22,5 km/h (4 Bft)
01.10.2022 16:06 13,8 C 13,9 C 76 % 1010,6 hPa 0,0 l/m 12,0 km/h (2 Bft) W 275 0 min 0,9 UV-I 74 W/m 9,6 C 10,9 C 20,9 km/h (4 Bft)
01.10.2022 16:09 13,8 C 13,3 C 77 % 1010,8 hPa 0,0 l/m 7,1 km/h (2 Bft) W-SW 240 0 min 0,9 UV-I 62 W/m 9,8 C 13,4 C 12,9 km/h (3 Bft)
01.10.2022 16:12 13,7 C 13,3 C 77 % 1010,8 hPa 0,0 l/m 8,2 km/h (2 Bft) SW 225 0 min 0,9 UV-I 81 W/m 9,7 C 12,6 C 19,3 km/h (3 Bft)
01.10.2022 16:15 13,7 C 15,0 C 76 % 1010,7 hPa 0,0 l/m 12,0 km/h (2 Bft) SW 226 0 min 1,0 UV-I 97 W/m 9,5 C 10,8 C 22,5 km/h (4 Bft)
01.10.2022 16:18 13,9 C 15,0 C 76 % 1010,7 hPa 0,0 l/m 12,9 km/h (3 Bft) SW 215 0 min 1,2 UV-I 105 W/m 9,7 C 10,6 C 20,9 km/h (4 Bft)
01.10.2022 16:21 13,8 C 14,4 C 76 % 1010,9 hPa 0,0 l/m 12,4 km/h (3 Bft) S-SW 212 0 min 1,0 UV-I 112 W/m 9,6 C 10,7 C 19,3 km/h (3 Bft)
01.10.2022 16:24 13,8 C 13,9 C 78 % 1011,0 hPa 0,0 l/m 12,3 km/h (3 Bft) W-SW 246 0 min 1,0 UV-I 139 W/m 10,0 C 10,8 C 20,9 km/h (4 Bft)
01.10.2022 16:27 13,7 C 13,9 C 79 % 1011,0 hPa 0,0 l/m 12,6 km/h (3 Bft) S 180 0 min 0,9 UV-I 163 W/m 10,1 C 10,5 C 22,5 km/h (4 Bft)
01.10.2022 16:30 13,7 C 13,9 C 80 % 1011,0 hPa 0,0 l/m 15,3 km/h (3 Bft) S-SW 209 0 min 0,9 UV-I 158 W/m 10,3 C 9,5 C 24,1 km/h (4 Bft)
01.10.2022 16:33 13,6 C 13,9 C 80 % 1010,9 hPa 0,0 l/m 13,1 km/h (3 Bft) S-SW 193 0 min 0,8 UV-I 157 W/m 10,2 C 10,2 C 22,5 km/h (4 Bft)
01.10.2022 16:36 13,6 C 14,4 C 81 % 1011,0 hPa 0,0 l/m 11,4 km/h (2 Bft) S-SW 200 0 min 0,9 UV-I 192 W/m 10,4 C 10,9 C 19,3 km/h (3 Bft)
01.10.2022 16:39 13,7 C 14,4 C 81 % 1011,0 hPa 0,0 l/m 11,9 km/h (2 Bft) S-SW 202 0 min 0,9 UV-I 154 W/m 10,5 C 10,8 C 17,7 km/h (3 Bft)
01.10.2022 16:42 13,7 C 15,6 C 82 % 1011,0 hPa 0,0 l/m 10,4 km/h (2 Bft) S 191 0 min 1,2 UV-I 200 W/m 10,7 C 11,5 C 14,5 km/h (3 Bft)
01.10.2022 16:45 13,9 C 16,7 C 82 % 1011,1 hPa 0,0 l/m 11,0 km/h (2 Bft) S-SW 194 0 min 1,2 UV-I 205 W/m 10,9 C 11,4 C 17,7 km/h (3 Bft)
01.10.2022 16:48 13,9 C 17,2 C 81 % 1011,1 hPa 0,0 l/m 16,3 km/h (3 Bft) S-SW 211 0 min 1,2 UV-I 262 W/m 10,7 C 9,4 C 25,7 km/h (4 Bft)
01.10.2022 16:51 13,9 C 17,2 C 82 % 1011,1 hPa 0,0 l/m 16,5 km/h (3 Bft) SW 227 0 min 1,1 UV-I 179 W/m 10,9 C 9,4 C 24,1 km/h (4 Bft)
01.10.2022 16:54 13,9 C 17,8 C 82 % 1011,0 hPa 0,0 l/m 16,5 km/h (3 Bft) W-SW 250 0 min 1,3 UV-I 193 W/m 10,9 C 9,4 C 25,7 km/h (4 Bft)
01.10.2022 16:57 14,1 C 17,8 C 82 % 1011,2 hPa 0,0 l/m 14,6 km/h (3 Bft) S-SW 205 0 min 1,2 UV-I 350 W/m 11,1 C 10,2 C 24,1 km/h (4 Bft)
01.10.2022 17:00 14,2 C 18,9 C 82 % 1011,1 hPa 0,0 l/m 11,1 km/h (2 Bft) S-SO 157 0 min 1,2 UV-I 390 W/m 11,2 C 11,7 C 17,7 km/h (3 Bft)
01.10.2022 17:03 14,2 C 19,4 C 82 % 1011,1 hPa 0,0 l/m 15,4 km/h (3 Bft) S 180 3 min 1,2 UV-I 432 W/m 11,2 C 10,1 C 24,1 km/h (4 Bft)
01.10.2022 17:06 13,9 C 16,7 C 81 % 1011,3 hPa 0,0 l/m 15,4 km/h (3 Bft) S 188 0 min 0,9 UV-I 317 W/m 10,7 C 9,7 C 22,5 km/h (4 Bft)
01.10.2022 17:09 13,7 C 14,4 C 82 % 1011,3 hPa 0,0 l/m 14,8 km/h (3 Bft) S-SW 208 0 min 0,7 UV-I 150 W/m 10,7 C 9,7 C 24,1 km/h (4 Bft)
01.10.2022 17:12 13,5 C 14,4 C 82 % 1011,3 hPa 0,0 l/m 14,9 km/h (3 Bft) S 190 0 min 0,7 UV-I 169 W/m 10,5 C 9,4 C 25,7 km/h (4 Bft)
01.10.2022 17:15 13,3 C 14,4 C 83 % 1011,3 hPa 0,0 l/m 14,7 km/h (3 Bft) S 179 0 min 0,6 UV-I 144 W/m 10,5 C 9,2 C 20,9 km/h (4 Bft)
01.10.2022 17:18 13,3 C 13,9 C 83 % 1011,4 hPa 0,0 l/m 17,0 km/h (3 Bft) SW 223 0 min 0,2 UV-I 101 W/m 10,5 C 8,5 C 22,5 km/h (4 Bft)
01.10.2022 17:21 13,2 C 12,8 C 83 % 1011,4 hPa 0,0 l/m 17,1 km/h (3 Bft) S-SW 204 0 min 0,0 UV-I 46 W/m 10,4 C 8,3 C 25,7 km/h (4 Bft)
01.10.2022 17:24 13,1 C 12,2 C 84 % 1011,6 hPa 0,0 l/m 16,0 km/h (3 Bft) SW 223 0 min 0,0 UV-I 56 W/m 10,5 C 8,5 C 25,7 km/h (4 Bft)
01.10.2022 17:27 12,9 C 12,2 C 85 % 1011,7 hPa 0,2 l/m 13,1 km/h (3 Bft) W-SW 246 0 min 0,1 UV-I 106 W/m 10,4 C 9,4 C 22,5 km/h (4 Bft)
01.10.2022 17:30 12,8 C 11,7 C 85 % 1011,9 hPa 0,0 l/m 12,9 km/h (3 Bft) W-SW 252 0 min 0,5 UV-I 79 W/m 10,3 C 9,4 C 27,4 km/h (4 Bft)
01.10.2022 17:33 12,7 C 11,7 C 85 % 1011,9 hPa 0,0 l/m 10,4 km/h (2 Bft) W-SW 244 0 min 0,1 UV-I 42 W/m 10,2 C 10,4 C 17,7 km/h (3 Bft)
01.10.2022 17:36 12,7 C 11,7 C 85 % 1011,8 hPa 0,0 l/m 12,8 km/h (3 Bft) W-SW 238 0 min 0,0 UV-I 32 W/m 10,2 C 9,3 C 24,1 km/h (4 Bft)
01.10.2022 17:39 12,7 C 11,7 C 86 % 1011,9 hPa 0,0 l/m 9,1 km/h (2 Bft) S 184 0 min 0,0 UV-I 51 W/m 10,4 C 11,1 C 14,5 km/h (3 Bft)
01.10.2022 17:42 12,6 C 11,7 C 86 % 1011,9 hPa 0,0 l/m 9,1 km/h (2 Bft) SW 221 0 min 0,0 UV-I 47 W/m 10,3 C 10,9 C 14,5 km/h (3 Bft)
01.10.2022 17:45 12,4 C 11,7 C 87 % 1011,9 hPa 0,0 l/m 9,7 km/h (2 Bft) SW 214 0 min 0,0 UV-I 54 W/m 10,3 C 10,4 C 16,1 km/h (3 Bft)
01.10.2022 17:48 12,3 C 11,7 C 87 % 1012,0 hPa 0,0 l/m 9,3 km/h (2 Bft) S 190 0 min 0,0 UV-I 56 W/m 10,2 C 10,5 C 12,9 km/h (3 Bft)
01.10.2022 17:51 12,3 C 11,7 C 87 % 1012,1 hPa 0,0 l/m 8,7 km/h (2 Bft) SW 222 0 min 0,0 UV-I 62 W/m 10,2 C 10,8 C 11,3 km/h (2 Bft)
01.10.2022 17:54 12,3 C 11,7 C 87 % 1012,1 hPa 0,0 l/m 6,7 km/h (2 Bft) W 259 0 min 0,0 UV-I 66 W/m 10,2 C 12,1 C 16,1 km/h (3 Bft)
01.10.2022 17:57 12,4 C 11,7 C 87 % 1012,0 hPa 0,0 l/m 7,3 km/h (2 Bft) W-SW 238 0 min 0,0 UV-I 68 W/m 10,3 C 11,8 C 14,5 km/h (3 Bft)
01.10.2022 18:00 12,6 C 12,2 C 87 % 1012,1 hPa 0,0 l/m 8,5 km/h (2 Bft) W-SW 244 0 min 0,0 UV-I 68 W/m 10,5 C 11,3 C 19,3 km/h (3 Bft)
01.10.2022 18:03 12,6 C 12,2 C 86 % 1012,2 hPa 0,0 l/m 6,5 km/h (2 Bft) W-SW 238 0 min 0,0 UV-I 65 W/m 10,3 C 12,6 C 12,9 km/h (3 Bft)
01.10.2022 18:06 12,6 C 12,2 C 86 % 1012,2 hPa 0,0 l/m 10,1 km/h (2 Bft) SW 229 0 min 0,0 UV-I 62 W/m 10,3 C 10,4 C 19,3 km/h (3 Bft)
01.10.2022 18:09 12,7 C 12,2 C 86 % 1012,3 hPa 0,0 l/m 8,1 km/h (2 Bft) SW 232 0 min 0,0 UV-I 54 W/m 10,4 C 11,6 C 17,7 km/h (3 Bft)
01.10.2022 18:12 12,7 C 12,2 C 85 % 1012,3 hPa 0,0 l/m 8,0 km/h (2 Bft) S-SW 208 0 min 0,0 UV-I 52 W/m 10,2 C 11,7 C 17,7 km/h (3 Bft)
01.10.2022 18:15 12,7 C 11,7 C 85 % 1012,5 hPa 0,0 l/m 8,6 km/h (2 Bft) S 180 0 min 0,0 UV-I 48 W/m 10,2 C 11,3 C 16,1 km/h (3 Bft)
01.10.2022 18:18 12,7 C 11,7 C 85 % 1012,4 hPa 0,0 l/m 8,4 km/h (2 Bft) S-SW 193 0 min 0,0 UV-I 43 W/m 10,2 C 11,5 C 16,1 km/h (3 Bft)
01.10.2022 18:21 12,7 C 11,7 C 84 % 1012,5 hPa 0,0 l/m 12,4 km/h (3 Bft) SW 224 0 min 0,0 UV-I 39 W/m 10,1 C 9,4 C 24,1 km/h (4 Bft)
01.10.2022 18:24 12,7 C 11,7 C 84 % 1012,6 hPa 0,0 l/m 8,6 km/h (2 Bft) SW 219 0 min 0,0 UV-I 34 W/m 10,1 C 11,3 C 16,1 km/h (3 Bft)
01.10.2022 18:27 12,7 C 11,7 C 83 % 1012,7 hPa 0,0 l/m 9,0 km/h (2 Bft) W-SW 244 0 min 0,0 UV-I 32 W/m 9,9 C 11,1 C 17,7 km/h (3 Bft)
01.10.2022 18:30 12,6 C 11,7 C 84 % 1012,7 hPa 0,0 l/m 6,8 km/h (2 Bft) SW 217 0 min 0,0 UV-I 28 W/m 10,0 C 12,4 C 12,9 km/h (3 Bft)
01.10.2022 18:33 12,6 C 11,7 C 84 % 1012,8 hPa 0,0 l/m 9,9 km/h (2 Bft) SW 220 0 min 0,0 UV-I 25 W/m 10,0 C 10,5 C 17,7 km/h (3 Bft)
01.10.2022 18:36 12,6 C 11,7 C 84 % 1012,8 hPa 0,0 l/m 9,1 km/h (2 Bft) S-SW 202 0 min 0,0 UV-I 24 W/m 10,0 C 10,9 C 14,5 km/h (3 Bft)
01.10.2022 18:39 12,5 C 11,7 C 84 % 1012,9 hPa 0,0 l/m 8,7 km/h (2 Bft) SW 233 0 min 0,0 UV-I 22 W/m 9,9 C 11,1 C 16,1 km/h (3 Bft)
01.10.2022 18:42 12,4 C 11,7 C 84 % 1012,9 hPa 0,0 l/m 10,5 km/h (2 Bft) S 184 0 min 0,0 UV-I 20 W/m 9,8 C 10,0 C 17,7 km/h (3 Bft)
01.10.2022 18:45 12,4 C 11,7 C 84 % 1013,0 hPa 0,0 l/m 10,0 km/h (2 Bft) SW 223 0 min 0,0 UV-I 19 W/m 9,8 C 10,2 C 14,5 km/h (3 Bft)
01.10.2022 18:48 12,3 C 11,7 C 84 % 1013,0 hPa 0,0 l/m 6,9 km/h (2 Bft) W-SW 257 0 min 0,0 UV-I 17 W/m 9,7 C 12,0 C 12,9 km/h (3 Bft)
01.10.2022 18:51 12,3 C 11,7 C 84 % 1013,0 hPa 0,0 l/m 8,2 km/h (2 Bft) S 185 0 min 0,0 UV-I 15 W/m 9,7 C 11,1 C 16,1 km/h (3 Bft)
01.10.2022 18:54 12,2 C 11,1 C 84 % 1013,1 hPa 0,0 l/m 5,4 km/h (1 Bft) W-SW 239 0 min 0,0 UV-I 12 W/m 9,6 C 12,2 C 9,7 km/h (2 Bft)
01.10.2022 18:57 12,2 C 11,1 C 84 % 1013,0 hPa 0,0 l/m 10,0 km/h (2 Bft) SW 223 0 min 0,0 UV-I 11 W/m 9,6 C 10,0 C 16,1 km/h (3 Bft)
01.10.2022 19:00 12,2 C 11,1 C 84 % 1013,2 hPa 0,0 l/m 9,7 km/h (2 Bft) S-SW 207 0 min 0,0 UV-I 8 W/m 9,6 C 10,2 C 14,5 km/h (3 Bft)
01.10.2022 19:03 12,1 C 11,1 C 84 % 1013,3 hPa 0,0 l/m 5,3 km/h (1 Bft) S-SW 212 0 min 0,0 UV-I 7 W/m 9,5 C 12,1 C 9,7 km/h (2 Bft)
01.10.2022 19:06 12,0 C 11,1 C 84 % 1013,2 hPa 0,0 l/m 7,3 km/h (2 Bft) SW 234 0 min 0,0 UV-I 6 W/m 9,4 C 11,4 C 12,9 km/h (3 Bft)
01.10.2022 19:09 11,9 C 11,1 C 84 % 1013,4 hPa 0,0 l/m 7,6 km/h (2 Bft) S-SW 207 0 min 0,0 UV-I 3 W/m 9,3 C 11,1 C 11,3 km/h (2 Bft)
01.10.2022 19:12 11,9 C 11,1 C 85 % 1013,4 hPa 0,0 l/m 5,9 km/h (2 Bft) SW 219 0 min 0,0 UV-I 0 W/m 9,5 C 11,9 C 9,7 km/h (2 Bft)
01.10.2022 19:15 11,8 C 11,1 C 85 % 1013,4 hPa 0,0 l/m 7,2 km/h (2 Bft) S-SW 198 0 min 0,0 UV-I 0 W/m 9,4 C 11,3 C 9,7 km/h (2 Bft)
01.10.2022 19:18 11,8 C 10,6 C 85 % 1013,4 hPa 0,0 l/m 6,5 km/h (2 Bft) S-SW 205 0 min 0,0 UV-I 0 W/m 9,4 C 11,8 C 11,3 km/h (2 Bft)
01.10.2022 19:21 11,8 C 10,6 C 85 % 1013,5 hPa 0,0 l/m 5,8 km/h (2 Bft) W-SW 240 0 min 0,0 UV-I 0 W/m 9,4 C 11,8 C 8,0 km/h (2 Bft)
01.10.2022 19:24 11,7 C 10,6 C 85 % 1013,5 hPa 0,0 l/m 4,6 km/h (1 Bft) SW 227 0 min 0,0 UV-I 0 W/m 9,3 C 11,7 C 8,0 km/h (2 Bft)
01.10.2022 19:27 11,7 C 10,6 C 85 % 1013,7 hPa 0,0 l/m 6,3 km/h (2 Bft) SW 219 0 min 0,0 UV-I 0 W/m 9,3 C 11,7 C 11,3 km/h (2 Bft)
01.10.2022 19:30 11,7 C 11,1 C 85 % 1014,0 hPa 0,0 l/m 6,6 km/h (2 Bft) S-SW 194 0 min 0,0 UV-I 0 W/m 9,3 C 11,6 C 14,5 km/h (3 Bft)
01.10.2022 19:33 11,7 C 10,6 C 86 % 1013,9 hPa 0,0 l/m 7,2 km/h (2 Bft) W-SW 255 0 min 0,0 UV-I 0 W/m 9,4 C 11,2 C 19,3 km/h (3 Bft)
01.10.2022 19:36 11,6 C 10,6 C 86 % 1013,9 hPa 0,0 l/m 8,6 km/h (2 Bft) SW 234 0 min 0,0 UV-I 0 W/m 9,3 C 10,2 C 14,5 km/h (3 Bft)
01.10.2022 19:39 11,5 C 10,6 C 86 % 1014,0 hPa 0,0 l/m 5,5 km/h (1 Bft) W 269 0 min 0,0 UV-I 0 W/m 9,2 C 11,5 C 9,7 km/h (2 Bft)
01.10.2022 19:42 11,4 C 10,0 C 87 % 1014,1 hPa 0,0 l/m 5,5 km/h (1 Bft) W 261 0 min 0,0 UV-I 0 W/m 9,3 C 11,4 C 11,3 km/h (2 Bft)
01.10.2022 19:45 11,3 C 10,0 C 87 % 1014,1 hPa 0,0 l/m 6,2 km/h (2 Bft) W-SW 243 0 min 0,0 UV-I 0 W/m 9,2 C 11,3 C 11,3 km/h (2 Bft)
01.10.2022 19:48 11,2 C 10,0 C 87 % 1014,1 hPa 0,0 l/m 5,8 km/h (2 Bft) SW 221 0 min 0,0 UV-I 0 W/m 9,1 C 11,2 C 12,9 km/h (3 Bft)
01.10.2022 19:51 11,2 C 10,0 C 88 % 1014,2 hPa 0,0 l/m 6,2 km/h (2 Bft) W-SW 255 0 min 0,0 UV-I 0 W/m 9,3 C 11,2 C 11,3 km/h (2 Bft)
01.10.2022 19:54 11,1 C 10,0 C 88 % 1014,5 hPa 0,0 l/m 5,4 km/h (1 Bft) W-SW 239 0 min 0,0 UV-I 0 W/m 9,2 C 11,1 C 11,3 km/h (2 Bft)
01.10.2022 19:57 11,1 C 10,0 C 88 % 1014,4 hPa 0,0 l/m 4,7 km/h (1 Bft) W 269 0 min 0,0 UV-I 0 W/m 9,2 C 11,1 C 9,7 km/h (2 Bft)
01.10.2022 20:00 11,1 C 10,0 C 88 % 1014,6 hPa 0,6 l/m 7,3 km/h (2 Bft) W-SW 254 0 min 0,0 UV-I 0 W/m 9,2 C 10,5 C 12,9 km/h (3 Bft)
01.10.2022 20:03 11,1 C 10,0 C 89 % 1014,5 hPa 0,0 l/m 7,5 km/h (2 Bft) S-SW 211 0 min 0,0 UV-I 0 W/m 9,4 C 10,3 C 11,3 km/h (2 Bft)
01.10.2022 20:06 11,1 C 10,0 C 89 % 1014,6 hPa 0,0 l/m 9,5 km/h (2 Bft) S 187 0 min 0,0 UV-I 0 W/m 9,4 C 9,1 C 12,9 km/h (3 Bft)
01.10.2022 20:09 11,1 C 9,4 C 89 % 1014,6 hPa 0,0 l/m 7,4 km/h (2 Bft) SW 221 0 min 0,0 UV-I 0 W/m 9,4 C 10,4 C 11,3 km/h (2 Bft)
01.10.2022 20:12 11,1 C 9,4 C 89 % 1014,7 hPa 0,0 l/m 7,0 km/h (2 Bft) S-SW 193 0 min 0,0 UV-I 0 W/m 9,4 C 10,7 C 12,9 km/h (3 Bft)
01.10.2022 20:15 10,9 C 9,4 C 89 % 1014,8 hPa 0,0 l/m 4,9 km/h (1 Bft) S-SW 211 0 min 0,0 UV-I 0 W/m 9,2 C 10,9 C 9,7 km/h (2 Bft)
01.10.2022 20:18 10,8 C 9,4 C 89 % 1014,8 hPa 0,0 l/m 4,0 km/h (1 Bft) S-SW 205 0 min 0,0 UV-I 0 W/m 9,1 C 10,8 C 8,0 km/h (2 Bft)
01.10.2022 20:21 10,7 C 8,9 C 89 % 1014,8 hPa 0,0 l/m 4,3 km/h (1 Bft) S-SW 205 0 min 0,0 UV-I 0 W/m 9,0 C 10,7 C 6,4 km/h (2 Bft)
01.10.2022 20:24 10,5 C 8,9 C 89 % 1014,9 hPa 0,0 l/m 4,3 km/h (1 Bft) S-SW 205 0 min 0,0 UV-I 0 W/m 8,8 C 10,5 C 8,0 km/h (2 Bft)
01.10.2022 20:27 10,4 C 9,4 C 90 % 1014,9 hPa 0,0 l/m 6,7 km/h (2 Bft) S 191 0 min 0,0 UV-I 0 W/m 8,8 C 10,2 C 8,0 km/h (2 Bft)
01.10.2022 20:30 10,5 C 9,4 C 90 % 1015,0 hPa 0,0 l/m 6,2 km/h (2 Bft) SW 225 0 min 0,0 UV-I 0 W/m 8,9 C 10,5 C 9,7 km/h (2 Bft)
01.10.2022 20:33 10,4 C 9,4 C 90 % 1015,0 hPa 0,0 l/m 5,6 km/h (1 Bft) S-SW 204 0 min 0,0 UV-I 0 W/m 8,8 C 10,4 C 8,0 km/h (2 Bft)
01.10.2022 20:36 10,4 C 9,4 C 90 % 1015,0 hPa 0,0 l/m 4,2 km/h (1 Bft) S-SW 205 0 min 0,0 UV-I 0 W/m 8,8 C 10,4 C 8,0 km/h (2 Bft)
01.10.2022 20:39 10,5 C 9,4 C 90 % 1015,0 hPa 0,0 l/m 6,1 km/h (2 Bft) S-SW 207 0 min 0,0 UV-I 0 W/m 8,9 C 10,5 C 9,7 km/h (2 Bft)
01.10.2022 20:42 10,6 C 9,4 C 90 % 1015,2 hPa 0,2 l/m 6,5 km/h (2 Bft) S-SW 202 0 min 0,0 UV-I 0 W/m 9,0 C 10,6 C 9,7 km/h (2 Bft)
01.10.2022 20:45 10,7 C 9,4 C 91 % 1015,0 hPa 0,0 l/m 4,6 km/h (1 Bft) S-SW 198 0 min 0,0 UV-I 0 W/m 9,3 C 10,7 C 8,0 km/h (2 Bft)
01.10.2022 20:48 10,7 C 10,0 C 91 % 1015,3 hPa 0,0 l/m 5,9 km/h (2 Bft) SW 217 0 min 0,0 UV-I 0 W/m 9,3 C 10,7 C 9,7 km/h (2 Bft)
01.10.2022 20:51 10,8 C 10,0 C 91 % 1015,4 hPa 0,2 l/m 9,8 km/h (2 Bft) SW 221 0 min 0,0 UV-I 0 W/m 9,4 C 8,6 C 16,1 km/h (3 Bft)
01.10.2022 20:54 10,8 C 10,0 C 91 % 1015,5 hPa 0,2 l/m 8,0 km/h (2 Bft) S-SW 196 0 min 0,0 UV-I 0 W/m 9,4 C 9,7 C 12,9 km/h (3 Bft)
01.10.2022 20:57 10,9 C 10,0 C 91 % 1015,6 hPa 0,2 l/m 10,5 km/h (2 Bft) W-SW 244 0 min 0,0 UV-I 0 W/m 9,5 C 8,3 C 19,3 km/h (3 Bft)
01.10.2022 21:00 10,9 C 10,0 C 91 % 1015,6 hPa 0,2 l/m 11,5 km/h (2 Bft) W-SW 238 0 min 0,0 UV-I 0 W/m 9,5 C 7,8 C 22,5 km/h (4 Bft)
01.10.2022 21:03 10,8 C 10,0 C 90 % 1015,6 hPa 0,0 l/m 12,8 km/h (3 Bft) S-SW 198 0 min 0,0 UV-I 0 W/m 9,2 C 7,1 C 20,9 km/h (4 Bft)
01.10.2022 21:06 10,8 C 10,0 C 90 % 1015,6 hPa 0,2 l/m 10,1 km/h (2 Bft) S-SW 200 0 min 0,0 UV-I 0 W/m 9,2 C 8,4 C 17,7 km/h (3 Bft)
01.10.2022 21:09 10,8 C 10,0 C 90 % 1015,6 hPa 0,0 l/m 7,9 km/h (2 Bft) W-SW 257 0 min 0,0 UV-I 0 W/m 9,2 C 9,8 C 14,5 km/h (3 Bft)
01.10.2022 21:12 10,8 C 9,4 C 90 % 1015,7 hPa 0,0 l/m 15,2 km/h (3 Bft) W-SW 246 0 min 0,0 UV-I 0 W/m 9,2 C 6,0 C 24,1 km/h (4 Bft)
01.10.2022 21:15 10,8 C 9,4 C 90 % 1015,7 hPa 0,0 l/m 8,8 km/h (2 Bft) W 263 0 min 0,0 UV-I 0 W/m 9,2 C 9,2 C 16,1 km/h (3 Bft)
01.10.2022 21:18 10,7 C 9,4 C 89 % 1015,9 hPa 0,0 l/m 5,1 km/h (1 Bft) SW 218 0 min 0,0 UV-I 0 W/m 9,0 C 10,7 C 9,7 km/h (2 Bft)
01.10.2022 21:21 10,7 C 9,4 C 89 % 1015,9 hPa 0,0 l/m 6,0 km/h (2 Bft) SW 215 0 min 0,0 UV-I 0 W/m 9,0 C 10,7 C 11,3 km/h (2 Bft)
01.10.2022 21:24 10,7 C 9,4 C 89 % 1016,0 hPa 0,0 l/m 6,1 km/h (2 Bft) S-SW 208 0 min 0,0 UV-I 0 W/m 9,0 C 10,7 C 12,9 km/h (3 Bft)
01.10.2022 21:27 10,6 C 9,4 C 90 % 1015,9 hPa 0,0 l/m 3,7 km/h (1 Bft) W-SW 250 0 min 0,0 UV-I 0 W/m 9,0 C 10,6 C 9,7 km/h (2 Bft)
01.10.2022 21:30 10,5 C 8,9 C 90 % 1015,9 hPa 0,0 l/m 1,9 km/h (1 Bft) W-SW 250 0 min 0,0 UV-I 0 W/m 8,9 C 10,5 C 4,8 km/h (1 Bft)
01.10.2022 21:33 10,4 C 8,9 C 90 % 1015,9 hPa 0,0 l/m 3,1 km/h (1 Bft) S-SW 211 0 min 0,0 UV-I 0 W/m 8,8 C 10,4 C 8,0 km/h (2 Bft)
01.10.2022 21:36 10,3 C 8,3 C 90 % 1015,9 hPa 0,0 l/m 3,3 km/h (1 Bft) S-SW 211 0 min 0,0 UV-I 0 W/m 8,7 C 10,3 C 4,8 km/h (1 Bft)
01.10.2022 21:39 10,2 C 8,3 C 90 % 1016,0 hPa 0,0 l/m 2,5 km/h (1 Bft) S-SW 211 0 min 0,0 UV-I 0 W/m 8,6 C 10,2 C 4,8 km/h (1 Bft)
01.10.2022 21:42 10,2 C 8,3 C 91 % 1016,1 hPa 0,0 l/m 1,6 km/h (1 Bft) S-SW 211 0 min 0,0 UV-I 0 W/m 8,8 C 10,2 C 3,2 km/h (1 Bft)
01.10.2022 21:45 10,2 C 8,9 C 91 % 1016,1 hPa 0,0 l/m 3,2 km/h (1 Bft) S-SW 211 0 min 0,0 UV-I 0 W/m 8,8 C 10,2 C 4,8 km/h (1 Bft)
01.10.2022 21:48 10,2 C 9,4 C 91 % 1016,1 hPa 0,0 l/m 3,0 km/h (1 Bft) S-SW 213 0 min 0,0 UV-I 0 W/m 8,8 C 10,2 C 6,4 km/h (2 Bft)
01.10.2022 21:51 10,3 C 9,4 C 91 % 1016,1 hPa 0,0 l/m 2,8 km/h (1 Bft) SW 226 0 min 0,0 UV-I 0 W/m 8,9 C 10,3 C 6,4 km/h (2 Bft)
01.10.2022 21:54 10,3 C 9,4 C 91 % 1016,1 hPa 0,0 l/m 2,9 km/h (1 Bft) SW 226 0 min 0,0 UV-I 0 W/m 8,9 C 10,3 C 4,8 km/h (1 Bft)
01.10.2022 21:57 10,3 C 9,4 C 91 % 1016,2 hPa 0,0 l/m 2,7 km/h (1 Bft) SW 226 0 min 0,0 UV-I 0 W/m 8,9 C 10,3 C 4,8 km/h (1 Bft)
01.10.2022 22:00 10,3 C 9,4 C 91 % 1016,3 hPa 0,0 l/m 2,5 km/h (1 Bft) SW 226 0 min 0,0 UV-I 0 W/m 8,9 C 10,3 C 4,8 km/h (1 Bft)
01.10.2022 22:03 10,3 C 9,4 C 91 % 1016,3 hPa 0,2 l/m 1,9 km/h (1 Bft) SW 224 0 min 0,0 UV-I 0 W/m 8,9 C 10,3 C 4,8 km/h (1 Bft)
01.10.2022 22:06 10,3 C 9,4 C 92 % 1016,3 hPa 0,0 l/m 2,7 km/h (1 Bft) SW 219 0 min 0,0 UV-I 0 W/m 9,1 C 10,3 C 6,4 km/h (2 Bft)
01.10.2022 22:09 10,4 C 9,4 C 92 % 1016,3 hPa 0,0 l/m 2,2 km/h (1 Bft) S-SW 192 0 min 0,0 UV-I 0 W/m 9,2 C 10,4 C 4,8 km/h (1 Bft)
01.10.2022 22:12 10,4 C 9,4 C 92 % 1016,4 hPa 0,0 l/m 5,9 km/h (2 Bft) SW 216 0 min 0,0 UV-I 0 W/m 9,2 C 10,4 C 14,5 km/h (3 Bft)
01.10.2022 22:15 10,6 C 9,4 C 92 % 1016,5 hPa 0,0 l/m 7,3 km/h (2 Bft) S-SW 203 0 min 0,0 UV-I 0 W/m 9,4 C 10,0 C 12,9 km/h (3 Bft)
01.10.2022 22:18 10,6 C 9,4 C 92 % 1016,5 hPa 0,0 l/m 5,4 km/h (1 Bft) S 187 0 min 0,0 UV-I 0 W/m 9,4 C 10,6 C 11,3 km/h (2 Bft)
01.10.2022 22:21 10,7 C 9,4 C 92 % 1016,5 hPa 0,0 l/m 4,8 km/h (1 Bft) SW 221 0 min 0,0 UV-I 0 W/m 9,5 C 10,7 C 6,4 km/h (2 Bft)
01.10.2022 22:24 10,7 C 10,0 C 92 % 1016,5 hPa 0,0 l/m 7,5 km/h (2 Bft) SW 217 0 min 0,0 UV-I 0 W/m 9,5 C 9,9 C 9,7 km/h (2 Bft)
01.10.2022 22:27 10,8 C 10,0 C 92 % 1016,6 hPa 0,0 l/m 5,4 km/h (1 Bft) SW 215 0 min 0,0 UV-I 0 W/m 9,6 C 10,8 C 9,7 km/h (2 Bft)
01.10.2022 22:30 10,8 C 10,0 C 92 % 1016,7 hPa 0,0 l/m 3,6 km/h (1 Bft) S-SW 211 0 min 0,0 UV-I 0 W/m 9,6 C 10,8 C 6,4 km/h (2 Bft)
01.10.2022 22:33 10,8 C 10,0 C 92 % 1016,8 hPa 0,0 l/m 4,9 km/h (1 Bft) S 188 0 min 0,0 UV-I 0 W/m 9,6 C 10,8 C 8,0 km/h (2 Bft)
01.10.2022 22:36 10,8 C 10,0 C 92 % 1016,7 hPa 0,0 l/m 4,6 km/h (1 Bft) S 190 0 min 0,0 UV-I 0 W/m 9,6 C 10,8 C 8,0 km/h (2 Bft)
01.10.2022 22:39 10,9 C 10,6 C 92 % 1016,8 hPa 0,0 l/m 8,5 km/h (2 Bft) SW 217 0 min 0,0 UV-I 0 W/m 9,7 C 9,5 C 19,3 km/h (3 Bft)
01.10.2022 22:42 11,0 C 10,0 C 92 % 1016,8 hPa 0,0 l/m 8,9 km/h (2 Bft) S-SW 195 0 min 0,0 UV-I 0 W/m 9,8 C 9,3 C 17,7 km/h (3 Bft)
01.10.2022 22:45 11,0 C 10,0 C 92 % 1016,7 hPa 0,0 l/m 9,9 km/h (2 Bft) SW 236 0 min 0,0 UV-I 0 W/m 9,8 C 8,8 C 14,5 km/h (3 Bft)
01.10.2022 22:48 11,0 C 10,0 C 91 % 1016,8 hPa 0,0 l/m 8,3 km/h (2 Bft) S 178 0 min 0,0 UV-I 0 W/m 9,6 C 9,7 C 14,5 km/h (3 Bft)
01.10.2022 22:51 11,1 C 10,0 C 91 % 1016,7 hPa 0,0 l/m 9,1 km/h (2 Bft) S-SW 196 0 min 0,0 UV-I 0 W/m 9,7 C 9,3 C 19,3 km/h (3 Bft)
01.10.2022 22:54 11,1 C 10,0 C 91 % 1016,8 hPa 0,0 l/m 7,2 km/h (2 Bft) SW 227 0 min 0,0 UV-I 0 W/m 9,7 C 10,5 C 12,9 km/h (3 Bft)
01.10.2022 22:57 11,1 C 10,0 C 91 % 1016,8 hPa 0,0 l/m 8,2 km/h (2 Bft) W-SW 249 0 min 0,0 UV-I 0 W/m 9,7 C 9,9 C 12,9 km/h (3 Bft)
01.10.2022 23:00 11,1 C 10,6 C 91 % 1016,8 hPa 0,0 l/m 8,3 km/h (2 Bft) SW 221 0 min 0,0 UV-I 0 W/m 9,7 C 9,8 C 16,1 km/h (3 Bft)
01.10.2022 23:03 11,2 C 10,6 C 92 % 1017,0 hPa 0,0 l/m 10,6 km/h (2 Bft) S-SW 208 0 min 0,0 UV-I 0 W/m 9,9 C 8,6 C 16,1 km/h (3 Bft)
01.10.2022 23:06 11,2 C 10,6 C 91 % 1016,9 hPa 0,0 l/m 7,0 km/h (2 Bft) W 262 0 min 0,0 UV-I 0 W/m 9,8 C 10,8 C 14,5 km/h (3 Bft)
01.10.2022 23:09 11,2 C 10,6 C 91 % 1016,9 hPa 0,0 l/m 6,6 km/h (2 Bft) SW 227 0 min 0,0 UV-I 0 W/m 9,8 C 11,1 C 11,3 km/h (2 Bft)
01.10.2022 23:12 11,2 C 10,6 C 91 % 1016,9 hPa 0,0 l/m 5,9 km/h (2 Bft) SW 215 0 min 0,0 UV-I 0 W/m 9,8 C 11,2 C 9,7 km/h (2 Bft)
01.10.2022 23:15 11,2 C 10,6 C 91 % 1017,0 hPa 0,0 l/m 5,0 km/h (1 Bft) W-SW 246 0 min 0,0 UV-I 0 W/m 9,8 C 11,2 C 9,7 km/h (2 Bft)
01.10.2022 23:18 11,2 C 10,6 C 91 % 1017,1 hPa 0,0 l/m 7,4 km/h (2 Bft) W-SW 258 0 min 0,0 UV-I 0 W/m 9,8 C 10,5 C 11,3 km/h (2 Bft)
01.10.2022 23:21 11,2 C 10,6 C 91 % 1017,2 hPa 0,0 l/m 6,5 km/h (2 Bft) SW 223 0 min 0,0 UV-I 0 W/m 9,8 C 11,2 C 16,1 km/h (3 Bft)
01.10.2022 23:24 11,3 C 10,6 C 91 % 1017,1 hPa 0,0 l/m 7,7 km/h (2 Bft) SW 225 0 min 0,0 UV-I 0 W/m 9,9 C 10,4 C 19,3 km/h (3 Bft)
01.10.2022 23:27 11,3 C 10,6 C 91 % 1017,1 hPa 0,0 l/m 5,9 km/h (2 Bft) SW 226 0 min 0,0 UV-I 0 W/m 9,9 C 11,3 C 9,7 km/h (2 Bft)
01.10.2022 23:30 11,3 C 10,6 C 91 % 1017,1 hPa 0,0 l/m 5,5 km/h (1 Bft) W-SW 240 0 min 0,0 UV-I 0 W/m 9,9 C 11,3 C 11,3 km/h (2 Bft)
01.10.2022 23:33 11,3 C 10,6 C 91 % 1017,1 hPa 0,0 l/m 6,1 km/h (2 Bft) S-SW 213 0 min 0,0 UV-I 0 W/m 9,9 C 11,3 C 9,7 km/h (2 Bft)
01.10.2022 23:36 11,3 C 10,6 C 91 % 1017,1 hPa 0,0 l/m 7,2 km/h (2 Bft) S-SW 205 0 min 0,0 UV-I 0 W/m 9,9 C 10,8 C 12,9 km/h (3 Bft)
01.10.2022 23:39 11,3 C 10,6 C 91 % 1017,1 hPa 0,0 l/m 5,4 km/h (1 Bft) S 184 0 min 0,0 UV-I 0 W/m 9,9 C 11,3 C 12,9 km/h (3 Bft)
01.10.2022 23:42 11,3 C 10,6 C 91 % 1017,2 hPa 0,2 l/m 5,6 km/h (1 Bft) S 191 0 min 0,0 UV-I 0 W/m 9,9 C 11,3 C 8,0 km/h (2 Bft)
01.10.2022 23:45 11,3 C 10,6 C 91 % 1017,2 hPa 0,0 l/m 4,6 km/h (1 Bft) W-SW 246 0 min 0,0 UV-I 0 W/m 9,9 C 11,3 C 9,7 km/h (2 Bft)
01.10.2022 23:48 11,3 C 10,6 C 91 % 1017,2 hPa 0,0 l/m 8,1 km/h (2 Bft) S-SW 194 0 min 0,0 UV-I 0 W/m 9,9 C 10,2 C 12,9 km/h (3 Bft)
01.10.2022 23:51 11,3 C 10,6 C 91 % 1017,3 hPa 0,0 l/m 8,4 km/h (2 Bft) W 268 0 min 0,0 UV-I 0 W/m 9,9 C 10,0 C 17,7 km/h (3 Bft)
01.10.2022 23:54 11,4 C 10,6 C 91 % 1017,3 hPa 0,0 l/m 6,9 km/h (2 Bft) S-SW 211 0 min 0,0 UV-I 0 W/m 10,0 C 11,1 C 12,9 km/h (3 Bft)
01.10.2022 23:57 11,4 C 10,6 C 91 % 1017,2 hPa 0,0 l/m 5,5 km/h (1 Bft) SW 215 0 min 0,0 UV-I 0 W/m 10,0 C 11,4 C 9,7 km/h (2 Bft)
01.10.2022 23:58 11,4 C 10,6 C 91 % 1017,2 hPa 0,0 l/m 6,4 km/h (2 Bft) SW 225 0 min 0,0 UV-I 0 W/m 10,0 C 11,4 C 11,3 km/h (2 Bft)
01.10.2022 23:59 11,4 C 10,6 C 91 % 1017,2 hPa 0,0 l/m 11,3 km/h (2 Bft) S-SW 202 0 min 0,0 UV-I 0 W/m 10,0 C 8,5 C 16,1 km/h (3 Bft)
_ Min-Zeit 03:17 02:21 14:36 07:17 - 21:42 - - - - - 00:00 04:53 21:42
Minimum _ 8,2 C 7,2 C 70 % 1006,8 hPa - 1,6 km/h (1 Bft) - - - - - 5,8 C -2,8 C 3,2 km/h (1 Bft)
_ Max-Zeit 14:30 14:30 11:03 23:51 20:00 04:53 - - 12:36 12:45 12:51 12:48 16:09 04:53
Maximum _ 16,0 C 23,3 C 93 % 1017,3 hPa 0,6 l/m 35,4 km/h
S-SO (5 Bft)
- - 3 min 3,3 UV-I 824 W/m 11,5 C 13,4 C 57,9 km/h
S (7 Bft)
Durchschnitt _ 10,8 C 10,7 C 86 % 1010,5 hPa #14,6 l/m 14,4 km/h (3 Bft) S - #1:06 h 1,4 UV-I 153 W/m 8,6 C 6,6 C 23,5 km/h (4 Bft)